     2              OBSERVATION DATA    GPS                 RINEX VERSION / TYPE
ASHCAN V. 1.90 20010309 21:38:59UTC                         PGM / RUN BY / DATE
                                                            COMMENT
Original Marker Name: TRAN TRAN_SALTON__                    COMMENT
Campaign Name: DHL 2001                                     COMMENT
4-Character Station Name: TRAN                              COMMENT
6-Character Antenna Code: DMRCHT                            COMMENT
Vertical Measurement Point: BCR                             COMMENT
Vertical Offset to Rinex Ref. Point: 0.0348                 COMMENT
Radial Measurement Point: ECF                               COMMENT
Radial Offset to Rinex Ref. Point: 0.1897                   COMMENT
Antenna Height from Field Measurement: 1.1290 m             COMMENT
Additional Antenna Identification Info.:                    COMMENT
Turborogue and Ashtech Choke Ring                           COMMENT
Original XYZ: -2321858.3149 -4795843.1764 3493771.7474      COMMENT
New XYZ position is based on association with SCEC monument COMMENT
E1D0L3A8+0011. Position of that monument is believed to be  COMMENT
valid to within 1 m horizontally; vertical accuracy         COMMENT
should be no worse than 3-times this value.                 COMMENT
                                                            COMMENT
Revised Rinex header created by UCSD GPS archive for        COMMENT
GSAC on 22-Mar-2001 (2001:081) 23:45:10 GMT                 COMMENT
For assistance contact dagnew@ucsd.edu                      COMMENT
or anderson@python.ucsd.edu                                 COMMENT
                                                            COMMENT
3-D ROD MARK, RIVERSIDE CNTY                                MARKER NAME
JFG SCRIPPS INSTITUTION OF OCEANOGRAPHY                     OBSERVER / AGENCY
319 ASHTECH Z-XII3 CC00 1D02                                REC # / TYPE / VERS
756 DORNE-MARGOL. TYPE T                                    ANT # / TYPE
 -2321852.2043 -4795818.6316  3493751.1625                  APPROX POSITION XYZ
        1.0781        0.0000        0.0000                  ANTENNA: DELTA H/E/N
     1     1     0                                          WAVELENGTH FACT L1/2
     5    L1    L2    C1    P1    P2                        # / TYPES OF OBSERV
    30                                                      INTERVAL
  2001     3     8     0     0   30.000000                  TIME OF FIRST OBS
  2001     3     8    16    35   30.000000                  TIME OF LAST OBS
                                                            END OF HEADER
 01  3  8  0  0 30.0000000  0  9 30 24 23  5  6 26 18 10 17          0.000000000
   2261436.572 9   1764212.25948  21375058.281    21375058.5654   21375067.2974
  11074088.277 9   8592752.63045  24544467.692    24544467.3394   24544480.6614
  -6502071.088 9  -5054548.97146  23496450.669    23496450.2774   23496466.1194
  11087335.297 9   8618230.52646  22916085.058    22916084.5954   22916096.8704
 -10423953.406 9  -8096255.82649  20596721.948    20596721.7964   20596729.7214
  -9177483.273 9  -7140841.46646  23601391.590    23601391.6874   23601407.3854
  -1477018.870 8   -892456.32442         0.000           0.0004          0.0004
    713971.662 9    559911.24048  21325073.571    21325072.7994   21325081.8074
 -10231647.001 9  -7961967.70347  22350181.651    22350181.1624   22350191.6514
 01  3  8  0  1  0.0000000  0  9 30 24 23  5  6 26 18 10 17         -0.000000001
   2329006.493 9   1816864.08948  21387916.473    21387916.7734   21387925.4874
  11148240.279 9   8650533.32845  24558578.358    24558578.1304   24558591.5064
  -6601882.632 9  -5132323.80446  23477456.779    23477456.4254   23477472.2024
  11187798.602 9   8696513.44746  22935202.714    22935202.2204   22935214.5844
 -10459825.158 9  -8124207.80449  20589895.743    20589895.6024   20589903.5284
  -9261506.603 9  -7206313.89146  23585402.322    23585402.4464   23585417.9554
  -1588227.691 8   -979112.12452         0.000           0.0004          0.0005
    774906.586 9    607392.97748  21336669.123    21336668.3524   21336677.3964
 -10283329.237 9  -8002239.47847  22340346.778    22340346.2904   22340356.7544
 01  3  8  0  1 30.0000000  0  9 30 24 23  5  6 26 18 10 17         -0.000000003
   2397012.349 9   1869855.61148  21400857.584    21400857.8744   21400866.6014
  11222342.778 9   8708275.49745  24572679.721    24572679.2384   24572692.8424
  -6701495.463 9  -5209943.79746  23458500.789    23458500.3594   23458516.0274
  11288410.679 9   8774912.28846  22954348.651    22954348.1554   22954360.5624
 -10495398.442 9  -8151927.20749  20583126.348    20583126.2084   20583134.1214
  -9345403.227 9  -7271687.58846  23569437.057    23569437.1884   23569452.5574
  -1699375.785 8  -1065720.27644         0.000           0.0004   24707339.3094
    836308.794 9    655238.82848  21348353.588    21348352.8034   21348361.8824
 -10334821.900 9  -8042363.52747  22330548.000    22330547.5044   22330557.9284
 01  3  8  0  2  0.0000000  0  9 30 24 23  5  6 26 18 10 17         -0.000000005
   2465449.103 9   1923182.88748  21413880.705    21413881.0084   21413889.7134
  11296392.678 9   8765976.72245  24586771.090    24586770.7434   24586784.0214
  -6800909.951 9  -5287409.25446  23439582.553    23439582.0464   23439597.6914
  11389166.132 9   8853422.85646  22973521.928    22973521.4324   22973533.8514
 -10530674.298 9  -8179414.85349  20576413.537    20576413.4054   20576421.3194
  -9429172.138 9  -7336961.78746  23553496.153    23553496.2644   23553511.5424
  -1810463.689 8  -1152281.80245  24686178.646    24686177.3454   24686195.8184
    898172.980 9    703444.65748  21360125.945    21360125.1934   21360134.2414
 -10386127.974 9  -8082342.19247  22320784.711    22320784.2134   22320794.6224
 01  3  8  0  2 30.0000000  0  9 30 24 23  5  6 26 18 10 17         -0.000000008
   2534317.972 9   1976846.88848  21426986.082    21426986.3864   21426995.0814
  11370393.974 9   8823640.02645  24600853.151    24600852.7544   24600866.2074
  -6900119.953 9  -5364715.38346  23420703.219    23420702.7454   23420718.2524
  11490066.167 9   8932046.08146  22992722.688    22992722.1894   22992734.6904
 -10565647.077 9  -8206666.32649  20569758.393    20569758.2734   20569766.1644
  -9512806.094 9  -7402130.81346  23537580.921    23537580.9824   23537596.1704
  -1921485.189 8  -1238791.55845  24665051.651    24665049.3224   24665067.3994
    960500.725 9    752011.72048  21371986.547    21371985.7824   21371994.8154
 -10437243.893 9  -8122172.67547  22311057.630    22311057.1174   22311067.5054
 01  3  8  0  3  0.0000000  0  9 30 24 23  5  6 26 18 10 17         -0.000000009
   2603617.442 9   2030846.41148  21440173.388    21440173.6574   21440182.3904
  11444347.834 9   8881266.32945  24614926.116    24614925.7514   24614939.4104
  -6999122.001 9  -5441859.47646  23401863.462    23401862.9884   23401878.3614
  11591109.113 9   9010780.67146  23011950.639    23011950.1684   23011962.6394
 -10600313.685 9  -8233679.23049  20563161.553    20563161.4304   20563169.3124
  -9596300.546 9  -7467191.12146  23521692.236    23521692.2924   23521707.4824
  -2032437.087 8  -1325247.02345  24643937.768    24643936.1894   24643955.1054
   1023290.775 9    800939.00548  21383935.150    21383934.3804   21383943.4054
 -10488168.704 9  -8161854.24647  22301366.864    22301366.3464   22301376.7264
 01  3  8  0  3 30.0000000  0  9 30 24 23  5  6 26 18 10 17         -0.000000009
   2673343.613 9   2085178.43848  21453441.882    21453442.1414   21453450.9064
  11518252.309 9   8938854.15645  24628989.713    24628989.4064   24629003.1314
  -7097915.524 9  -5518841.08646  23383063.419    23383062.9634   23383078.2004
  11692290.480 9   9089623.12046  23031204.951    23031204.5184   23031216.9824
 -10634673.864 9  -8260453.35149  20556622.997    20556622.8864   20556630.7454
  -9679653.730 9  -7532141.36646  23505830.372    23505830.4134   23505845.6034
  -2143318.522 8  -1411647.54845  24622837.431    24622835.7664   24622855.1384
   1086539.099 9    850223.39648  21395970.939    21395970.1584   21395979.1884
 -10538904.433 9  -8201388.47347  22291712.082    22291711.5694   22291721.9764
 01  3  8  0  4  0.0000000  0  9 30 24 23  5  6 26 18 10 17         -0.000000010
   2743493.331 9   2139840.50048  21466791.005    21466791.2494   21466800.0254
  11592106.404 9   8996402.74145  24643043.791    24643043.5064   24643057.2404
  -7196499.000 9  -5595659.03646  23364303.306    23364302.8804   23364318.0344
  11793607.096 9   9168570.94846  23050484.970    23050484.5314   23050497.1034
 -10668726.544 9  -8286987.86449  20550142.937    20550142.8324   20550150.6934
  -9762862.804 9  -7596979.30946  23489996.002    23489996.0454   23490011.0624
  -2254127.952 8  -1497991.97845  24601750.625    24601748.9444   24601768.6394
   1150242.653 9    899862.51348  21408093.304    21408092.5564   21408101.5934
 -10589451.902 9  -8240776.00547  22282093.133    22282092.6384   22282103.0094
 01  3  8  0  4 30.0000000  0  9 30 24 23  5  6 26 18 10 17         -0.000000010
   2814063.760 9   2194830.38348  21480220.166    21480220.3834   21480229.1994
  11665909.738 8   9053911.76945  24657088.189    24657087.9134   24657101.6524
  -7294870.245 9  -5672311.61746  23345583.633    23345583.1894   23345598.2334
  11895056.004 9   9247621.86246  23069790.232    23069789.7664   23069802.4184
 -10702469.945 9  -8313281.38449  20543721.781    20543721.6584   20543729.5184
  -9845924.453 9  -7661702.37446  23474189.609    23474189.6774   23474204.5564
  -2364862.927 8  -1584278.36745  24580678.126    24580676.7914   24580696.1844
   1214398.927 9    949854.39848  21420301.830    21420301.0944   21420310.1444
 -10639811.446 9  -8280017.10447  22272509.944    22272509.4734   22272519.8134
 01  3  8  0  5  0.0000000  0  9 30 24 23  5  6 26 18 10 17         -0.000000010
   2885053.672 9   2250147.13048  21493729.175    21493729.4004   21493738.2174
  11739663.717 8   9111382.32045  24671123.149    24671122.8374   24671136.6924
  -7393025.779 9  -5748796.12746  23326905.034    23326904.6014   23326919.5544
  11996635.619 9   9326774.62546  23089120.329    23089119.8644   23089132.5694
 -10735901.022 9  -8339331.53649  20537360.032    20537359.9124   20537367.7514
  -9928834.080 9  -7726307.00946  23458412.239    23458412.3204   23458427.1054
  -2475520.252 8  -1670504.26045  24559620.273    24559619.1704   24559638.5384
   1279006.363 9   1000197.83848  21432596.259    21432595.5234   21432604.5774
 -10689982.182 9  -8319111.07947  22262962.729    22262962.2324   22262972.5504
 01  3  8  0  5 30.0000000  0  9 30 24 23  5  6 26 18 10 17         -0.000000010
   2956458.993 9   2305787.57848  21507317.192    21507317.4144   21507326.2484
  11813366.417 8   9168812.90045  24685148.301    24685148.0784   24685161.9594
  -7490964.751 9  -5825111.88746  23308267.512    23308267.1034   23308281.9134
  12098342.019 9   9406026.16846  23108474.551    23108474.0964   23108486.8724
 -10769019.466 9  -8365138.07749  20531057.767    20531057.6654   20531065.4754
 -10011589.693 9  -7790791.61145  23442664.155    23442664.1724   23442679.0154
  -2586099.238 8  -1756669.09345  24538577.253    24538576.3574   24538595.9434
   1344061.120 9   1050889.84648  21444975.766    21444975.0234   21444984.0784
 -10739965.637 9  -8358059.12747  22253451.118    22253450.6174   22253460.9034
 01  3  8  0  6  0.0000000  0  9 30 24 23  5  6 26 18 10 17         -0.000000010
   3028276.658 9   2361749.33148  21520983.667    21520983.8934   21520992.7464
  11887017.037 8   9226202.92845  24699163.619    24699163.4154   24699177.3274
  -7588685.670 9  -5901257.74046  23289671.631    23289671.1874   23289685.9324
  12200171.742 9   9485373.81846  23127852.180    23127851.7314   23127864.5724
 -10801824.057 9  -8390700.05649  20524815.251    20524815.1264   20524822.9384
 -10094188.433 9  -7855153.98445  23426945.847    23426945.8644   23426960.6424
  -2696598.279 8  -1842771.62345  24517549.697    24517548.9044   24517568.2834
   1409560.083 9   1101927.98548  21457439.833    21457439.0644   21457448.1164
 -10789762.932 9  -8396862.11047  22243974.905    22243974.4174   22243984.6914
 01  3  8  0  6 30.0000000  0  9 30 24 23  5  6 26 18 10 17         -0.000000009
   3100505.180 9   2418031.23448  21534728.331    21534728.5384   21534737.4424
  11960616.764 8   9283553.26745  24713169.107    24713168.9594   24713183.0074
  -7686185.037 9  -5977230.95446  23271117.950    23271117.4714   23271132.0384
  12302123.098 9   9564816.23246  23147253.057    23147252.6104   23147265.4394
 -10834312.084 9  -8416015.36449  20518632.935    20518632.8064   20518640.6184
 -10176625.850 8  -7919390.63845  23411258.277    23411258.2944   23411273.0194
  -2807013.803 8  -1928809.08945  24496537.981    24496537.1704   24496556.4974
   1475502.004 9   1153311.27948  21469988.188    21469987.4174   21469996.4674
 -10839373.341 9  -8435519.46447  22234534.286    22234533.7834   22234544.0534
 01  3  8  0  7  0.0000000  0  9 30 24 23  5  6 26 18 10 17         -0.000000009
   3173141.695 9   2474631.04248  21548550.684    21548550.8794   21548559.7974
  12034165.186 7   9340863.59945  24727164.899    24727164.4304   24727178.8094
  -7783461.158 9  -6053030.21946  23252606.674    23252606.2064   23252620.6144
  12404193.049 9   9644351.07846  23166676.536    23166676.0544   23166688.8894
 -10866482.025 9  -8441082.82449  20512511.185    20512511.0544   20512518.8464
 -10258898.822 9  -7983499.17745  23395602.024    23395601.9624   23395616.8014
  -2917344.002 8  -2014780.07645  24475542.463    24475541.8364   24475560.6954
   1541883.590 9   1205037.16248  21482620.193    21482619.4324   21482628.4604
 -10888797.373 9  -8474031.60047  22225129.125    22225128.6344   22225138.8434
 01  3  8  0  7 30.0000000  0  9 30 24 23  5  6 26 18 10 17         -0.000000009
   3246183.484 9   2531546.65548  21562450.152    21562450.3364   21562459.2354
  12107661.977 8   9398133.72745  24741150.815    24741150.3584   24741165.0204
  -7880511.686 9  -6128653.69546  23234138.307    23234137.8224   23234152.1754
  12506379.082 9   9723976.34746  23186122.008    23186121.5324   23186134.3724
 -10898331.840 9  -8465900.82549  20506450.358    20506450.2504   20506458.0364
 -10341003.739 9  -8047476.78445  23379977.852    23379977.8294   23379992.2644
  -3027586.445 9  -2100682.66645  24454563.545    24454563.0604   24454581.7954
   1608702.694 9   1257103.97948  21495335.436    21495334.6894   21495343.7554
 -10938035.359 9  -8512398.75747  22215759.389    22215758.8904   22215769.0694
 01  3  8  0  8  0.0000000  0  9 30 24 23  5  6 26 18 10 17         -0.000000009
   3319627.106 9   2588775.38148  21576426.077    21576426.2314   21576435.1414
  12181106.584 8   9455363.19745  24755126.999    24755126.4424   24755141.1834
  -7977335.110 9  -6204100.20246  23215713.111    23215712.6774   23215726.9744
  12608677.678 9   9803689.33046  23205588.917    23205588.4454   23205601.3054
 -10929860.454 9  -8490468.54549  20500450.620    20500450.4934   20500458.2644
 -10422938.011 9  -8111321.39945  23364386.054    23364386.0424   23364400.4814
  -3137739.729 9  -2186515.81845  24433601.658    24433601.1404   24433619.7854
   1675956.198 9   1309509.27948  21508133.375    21508132.6204   21508141.7084
 -10987088.066 9  -8550621.54548  22206424.866    22206424.3834   22206434.5334
 01  3  8  0  8 30.0000000  0  9 30 24 23  5  6 26 18 10 17         -0.000000009
   3393470.666 9   2646315.74448  21590478.064    21590478.2634   21590487.1684
  12254499.080 8   9512552.06845  24769093.126    24769092.4954   24769107.3744
  -8073928.920 9  -6279367.79946  23197331.690    23197331.2824   23197345.4804
  12711086.486 9   9883488.20546  23225076.827    23225076.3644   23225089.2294
 -10961065.590 9  -8514784.20949  20494512.470    20494512.3344   20494520.0824
 -10504697.686 8  -8175030.00145  23348827.482    23348827.4544   23348841.8144
  -3247801.199 9  -2272277.43345  24412657.304    24412656.8704   24412675.1974
   1743641.780 9   1362251.26348  21521013.506    21521012.7334   21521021.8494
 -11035955.511 9  -8588699.97848  22197125.612    22197125.1404   22197135.2684
 01  3  8  0  9  0.0000000  0  9 30 24 23  5  6 26 18 10 17         -0.000000008
   3467711.022 9   2704165.30048  21604605.553    21604605.7734   21604614.7184
  12327839.421 8   9569700.27245  24783049.411    24783048.8224   24783063.7294
  -8170291.327 9  -6354455.06546  23178994.317    23178993.8574   23179008.0364
  12813602.587 9   9963370.66446  23244585.167    23244584.6784   23244597.5984
 -10991945.821 9  -8538846.69349  20488636.118    20488635.9924   20488643.7434
 -10586279.716 9  -8238600.14845  23333302.623    23333302.5814   23333316.9404
  -3357768.691 9  -2357965.84545  24391730.792    24391730.3274   24391748.5294
   1811756.552 9   1415327.68648  21533975.344    21533974.5804   21533983.6824
 -11084638.409 9  -8626634.60848  22187861.521    22187861.0344   22187871.1224
 01  3  8  0  9 30.0000000  0  9 30 24 23  5  6 26 18 10 17         -0.000000008
   3542345.282 9   2762321.79248  21618808.027    21618808.2504   21618817.2274
  12401127.121 8   9626807.49045  24796995.670    24796995.1374   24797010.0184
  -8266420.254 9  -6429360.41446  23160701.355    23160700.9504   23160715.0124
  12916223.150 9  10043334.52946  23264113.392    23264112.8804   23264125.8934
 -11022499.323 9  -8562654.58849  20482821.990    20482821.8674   20482829.5714
 -10667680.540 9  -8302029.12945  23317812.377    23317812.4354   23317826.6494
  -3467640.393 9  -2443579.63545  24370822.439    24370822.0014   24370840.2104
   1880298.062 9   1468736.62748  21547018.389    21547017.6204   21547026.7274
 -11133136.912 9  -8664425.55648  22178632.491    22178632.0134   22178642.0754
 01  3  8  0 10  0.0000000  0  9 30 24 23  5  6 26 18 10 17         -0.000000007
   3617372.365 9   2820784.37648  21633085.270    21633085.4864   21633094.4644
  12474363.154 8   9683874.48445  24810932.143    24810931.7394   24810946.3684
  -8362312.298 9  -6504081.17646  23142453.427    23142453.0344   23142467.0474
  13018946.570 9  10123378.54446  23283661.177    23283660.5874   23283673.7184
 -11052723.327 9  -8586205.73949  20477070.523    20477070.3994   20477078.0844
 -10748895.628 9  -8365313.38445  23302357.458    23302357.5044   23302371.6724
  -3577412.712 9  -2529115.99645  24349933.097    24349932.7734   24349950.6704
   1949264.664 9   1522476.79948  21560142.314    21560141.5644   21560150.6614
 -11181450.273 9  -8702072.24448  22169438.682    22169438.1784   22169448.2154
 01  3  8  0 10 30.0000000  0  9 30 24 23  5  6 26 18 10 17         -0.000000007
   3692787.386 9   2879549.25148  21647436.326    21647436.5424   21647445.5544
  12547545.618 8   9740899.72445  24824858.372    24824858.0984   24824872.5314
  -8457967.262 9  -6578617.20646  23124250.654    23124250.1954   23124264.2424
  13121768.082 9  10203498.98446  23303227.650    23303226.9924   23303240.1664
 -11082617.919 9  -8609500.20049  20471381.762    20471381.6274   20471389.2944
 -10829923.534 8  -8428451.76145  23286938.137    23286938.1594   23286952.3844
  -3687085.290 9  -2614574.64145  24329062.751    24329062.3424   24329080.0534
   2018651.862 9   1576544.71948  21573346.274    21573345.5344   21573354.6454
 -11229580.698 9  -8739576.37648  22160279.670    22160279.1984   22160289.2174
 01  3  8  0 11  0.0000000  0  9 30 24 23  5  6 26 18 10 17         -0.000000007
   3768589.366 9   2938615.65548  21661860.992    21661861.2454   21661870.2814
  12620676.253 8   9797884.56645  24838774.747    24838774.4454   24838788.9404
  -8553381.370 9  -6652965.58146  23106093.812    23106093.3254   23106107.2174
  13224686.636 9  10283695.04546  23322812.592    23322811.9234   23322825.0904
 -11112179.686 9  -8632535.31449  20465756.335    20465756.1924   20465763.8574
 -10910759.160 9  -8491440.33845  23271555.465    23271555.6184   23271569.6064
  -3796654.388 9  -2699952.69245  24308212.021    24308211.6564   24308229.0934
   2088458.654 9   1630939.58748  21586630.074    21586629.3274   21586638.4594
 -11277526.989 9  -8776937.03848  22151155.711    22151155.2244   22151165.2194
 01  3  8  0 11 30.0000000  0  8 30 23  5  6 26 18 10 17            -0.000000013
   3844775.656 9   2997981.52548  21676358.821    21676359.0894   21676368.1414
  -8648552.639 9  -6727124.71346  23087983.063    23087982.6334   23087996.4384
  13327699.777 9  10363964.80146  23342415.439    23342414.8124   23342428.1354
 -11141406.909 9  -8655309.74649  20460194.548    20460194.4024   20460202.0694
 -10991399.231 9  -8554276.53246  23256209.981    23256210.1114   23256224.0774
  -3906117.868 9  -2785248.44245  24287381.437    24287381.1874   24287398.2464
   2158682.664 9   1685659.56248  21599993.247    21599992.5164   21600001.6744
 -11325289.484 9  -8814154.47848  22142066.712    22142066.2274   22142076.2384
 01  3  8  0 12  0.0000000  0  8 30 23  5  6 26 18 10 17            -0.000000010
   3921345.531 9   3057646.28448  21690929.616    21690929.8924   21690938.9574
  -8743476.696 9  -6801091.23746  23069919.369    23069918.9584   23069932.7354
  13430806.773 9  10444307.70046  23362036.143    23362035.5894   23362048.9784
 -11170295.559 9  -8677820.35649  20454697.178    20454697.0384   20454704.7224
 -11071837.935 9  -8616955.83646  23240902.945    23240903.0284   23240916.8734
  -4015471.289 8  -2870458.45845  24266571.894    24266571.4234   24266588.4084
   2229323.504 9   1740704.34348  21613435.752    21613435.0404   21613444.2134
 -11372866.327 9  -8851227.26748  22133013.084    22133012.6244   22133022.5764
 01  3  8  0 12 30.0000000  0  8 30 23  5  6 26 18 10 17            -0.000000010
   3998291.368 9   3117604.00548  21705571.967    21705572.2354   21705581.3284
  -8838156.190 9  -6874867.19746  23051902.171    23051901.8314   23051915.4764
  13533999.932 9  10524717.72346  23381673.320    23381672.8054   23381686.1894
 -11198848.794 9  -8700069.60449  20449263.655    20449263.5204   20449271.2104
 -11152076.731 9  -8679479.34146  23225633.802    23225633.7994   23225647.7404
  -4124717.064 8  -2955584.57745  24245782.674    24245782.2654   24245798.8354
   2300373.402 9   1796067.86248  21626956.124    21626955.4014   21626964.6064
 -11420262.591 9  -8888159.34748  22123993.814    22123993.3384   22124003.2764
 01  3  8  0 13  0.0000000  0  8 30 23  5  6 26 18 10 17            -0.000000010
   4075612.192 9   3177853.91948  21720285.650    21720285.9694   21720295.0864
  -8932587.503 9  -6948449.77046  23033932.254    23033931.9114   23033945.4844
  13637278.063 9  10605193.96046  23401326.649    23401326.0394   23401339.5974
 -11227063.297 9  -8722054.90449  20443894.580    20443894.4374   20443902.1314
 -11232110.581 9  -8741843.15246  23210403.784    23210403.8124   23210417.6554
  -4233851.593 8  -3040624.02545  24225014.619    24225014.2124   24225030.7254
   2371831.303 9   1851749.31548  21640554.135    21640553.4174   21640562.6284
 -11467477.036 9  -8924949.74248  22115009.139    22115008.6684   22115018.5464
 01  3  8  0 13 30.0000000  0  8 30 23  5  6 26 18 10 17            -0.000000010
   4153305.160 9   3238393.81448  21735070.182    21735070.5144   21735079.6354
  -9026768.267 9  -7021837.12246  23016009.992    23016009.6694   23016023.1994
  13740638.870 9  10685734.61046  23420995.721    23420995.1424   23421008.7404
 -11254937.011 9  -8743774.65849  20438590.385    20438590.2494   20438597.9154
 -11311935.907 9  -8804044.47546  23195213.358    23195213.3594   23195227.1504
  -4342872.264 8  -3125574.74645  24204268.211    24204267.8944   24204284.2324
   2443694.894 9   1907746.87548  21654229.359    21654228.6304   21654237.8354
 -11514509.764 9  -8961598.55348  22106059.046    22106058.5944   22106068.4254
 01  3  8  0 14  0.0000000  0  8 30 23  5  6 26 18 10 17            -0.000000009
   4231367.657 9   3299221.65848  21749925.054    21749925.3604   21749934.5084
  -9120696.319 9  -7095027.56046  22998135.901    22998135.5524   22998149.0184
  13844079.618 9  10766337.56746  23440680.022    23440679.4444   23440693.0434
 -11282468.196 9  -8765227.50149  20433351.360    20433351.2154   20433358.8844
 -11391549.172 9  -8866080.55646  23180063.286    23180063.3474   23180077.0214
  -4451776.832 8  -3210434.97145  24183543.990    24183543.4934   24183559.7744
   2515961.662 9   1964058.61148  21667981.293    21667980.5594   21667989.7504
 -11561360.928 9  -8998105.87748  22097143.492    22097143.0364   22097152.8774
 01  3  8  0 14 30.0000000  0  8 30 23  5  6 26 18 10 17            -0.000000009
   4309796.024 9   3360334.59848  21764849.532    21764849.8484   21764859.0084
  -9214370.661 9  -7168020.30346  22980310.070    22980309.6834   22980323.0654
  13947596.580 9  10846999.90846  23460378.798    23460378.2274   23460391.8484
 -11309656.240 9  -8786412.96149  20428177.626    20428177.4974   20428185.1534
 -11470947.944 9  -8927949.49446  23164953.981    23164954.0164   23164967.6694
  -4560564.244 8  -3295203.93645  24162842.145    24162841.5844   24162857.7054
   2588627.806 9   2020681.55348  21681809.218    21681808.4864   21681817.6834
 -11608031.916 9  -9034472.79848  22088262.231    22088261.7754   22088271.5954
 01  3  8  0 15  0.0000000  0  8 30 23  5  6 26 18 10 17            -0.000000009
   4388589.024 9   3421731.65748  21779843.451    21779843.7384   21779852.9084
  -9307787.615 9  -7240812.49346  22962533.218    22962532.8404   22962546.1454
  14051188.578 9  10927720.70146  23480091.879    23480091.3414   23480104.9614
 -11336497.896 9  -8807328.51949  20423069.804    20423069.6934   20423077.3314
 -11550127.236 9  -8989647.40446  23149886.490    23149886.5374   23149900.1604
  -4669230.495 8  -3379878.46045  24142163.320    24142162.8194   24142178.7924
   2661692.373 9   2077614.94248  21695712.966    21695712.2314   21695721.4614
 -11654521.727 9  -9070698.55748  22079415.467    22079415.0094   22079424.8214
 01  3  8  0 15 30.0000000  0  8 30 23  5  6 26 18 10 17            -0.000000009
   4467742.652 9   3483409.73248  21794905.980    21794906.2504   21794915.4314
  -9400946.209 9  -7313403.36246  22944805.554    22944805.1624   22944818.4374
  14154851.860 9  11008497.04446  23499818.492    23499818.0144   23499831.6874
 -11362992.243 9  -8827973.44349  20418028.083    20418027.9734   20418035.6064
 -11629084.617 9  -9051172.40746  23134861.272    23134861.3094   23134874.8554
  -4777774.855 8  -3464458.00145  24121507.668    24121507.1884   24121523.1014
   2735151.536 9   2134855.81048  21709691.825    21709691.0934   21709700.3024
 -11700831.753 9  -9106784.22048  22070602.896    22070602.4404   22070612.2294
 01  3  8  0 16  0.0000000  0  8 30 23  5  6 26 18 10 17            -0.000000009
   4547254.369 9   3545366.83948  21810036.608    21810036.8764   21810046.0944
  -9493844.545 9  -7385791.43946  22927127.412    22927126.9914   22927140.2254
  14258583.777 9  11089326.87046  23519558.199    23519557.8094   23519571.4444
 -11389137.599 9  -8848346.41849  20413052.788    20413052.6584   20413060.2784
 -11707816.890 9  -9112521.98046  23119878.821    23119878.9314   23119892.3844
  -4886194.709 9  -3548940.52145  24100875.664    24100875.1324   24100891.1134
   2809002.516 9   2192401.99948  21723745.241    21723744.5044   21723753.6834
 -11746962.240 9  -9142729.97148  22061824.535    22061824.0674   22061833.8544
 01  3  8  0 16 30.0000000  0  8 30 23  5  6 26 18 10 17            -0.000000009
   4627121.755 9   3607601.09048  21825234.927    21825235.1944   21825244.4164
  -9586479.828 9  -7457974.53846  22909499.366    22909498.9044   22909512.1084
  14362382.394 9  11170208.64746  23539310.621    23539310.1444   23539323.9344
 -11414931.511 9  -8868445.54149  20408144.360    20408144.2164   20408151.8434
 -11786319.839 9  -9173692.86446  23104940.067    23104940.1634   23104953.5384
  -4994487.327 8  -3633323.89945  24080267.867    24080267.3594   24080283.3944
   2883243.297 9   2250251.92848  21737872.828    21737872.0944   21737881.2714
 -11792912.950 9  -9178535.63748  22053080.338    22053079.8614   22053089.6714
 01  3  8  0 17  0.0000000  0  8 30 23  5  6 26 18 10 17            -0.000000009
   4707342.389 9   3670110.60048  21840500.439    21840500.7264   21840509.9494
  -9678849.856 9  -7529950.95847  22891921.767    22891921.2834   22891934.4214
  14466245.179 9  11251140.44246  23559075.261    23559074.8014   23559088.6194
 -11440371.998 9  -8888269.27249  20403303.180    20403303.0474   20403310.6464
 -11864589.724 9  -9234682.14346  23090045.581    23090045.6944   23090059.0284
  -5102650.316 9  -3717606.26245  24059684.729    24059684.3284   24059700.2254
   2957871.456 9   2308403.70648  21752074.112    21752073.3934   21752082.5714
 -11838683.980 9  -9214201.29348  22044370.323    22044369.8504   22044379.6664
 01  3  8  0 17 30.0000000  0  8 30 23  5  6 26 18 10 17            -0.000000009
   4787912.306 9   3732892.27548  21855832.418    21855832.7424   21855841.9784
  -9770953.578 9  -7601719.85947  22874394.822    22874394.3474   22874407.4374
  14570168.562 9  11332119.45646  23578851.434    23578850.9014   23578864.8884
 -11465458.506 9  -8907817.17649  20398529.365    20398529.2224   20398536.8324
 -11942624.309 9  -9295488.06846  23075195.948    23075196.0354   23075209.3744
  -5210682.525 9  -3801786.71445  24039126.539    24039126.0604   24039142.0594
   3032883.550 9   2366854.65747  21766348.472    21766347.7414   21766356.9534
 -11884276.549 9  -9249727.89048  22035694.309    22035693.8474   22035703.6134
 01  3  8  0 18  0.0000000  0  8 30 23  5  6 26 18 10 17            -0.000000009
   4868830.162 9   3795945.06448  21871230.682    21871230.9724   21871240.2174
  -9862787.616 9  -7673278.62747  22856919.219    22856918.7544   22856931.7704
  14674150.988 9  11413144.46346  23598638.784    23598638.2234   23598652.3384
 -11490187.987 9  -8927086.87949  20393823.481    20393823.3304   20393830.9294
 -12020418.769 9  -9356106.87546  23060391.922    23060392.0034   23060405.3874
  -5318580.339 9  -3885862.47345  24018593.904    24018593.5744   24018609.3314
   3108277.943 9   2425603.49947  21780695.555    21780694.8394   21780704.0654
 -11929689.721 9  -9285114.70048  22027052.417    22027051.9394   22027061.6794
 01  3  8  0 18 30.0000000  0  8 30 23  5  6 26 18 10 17            -0.000000009
   4950091.636 9   3859265.61548  21886694.297    21886694.5364   21886703.8304
  -9954351.366 9  -7744626.77447  22839495.037    22839494.6174   22839507.5564
  14778188.428 9  11494212.34546  23618436.676    23618436.0974   23618450.2944
 -11514560.098 9  -8946078.10649  20389185.588    20389185.4514   20389193.0464
 -12097971.031 9  -9416536.95746  23045634.015    23045634.0604   23045647.5014
  -5426343.130 9  -3969833.02445  23998087.058    23998086.7014   23998102.3694
   3184050.722 9   2484647.19547  21795114.717    21795113.9764   21795123.1934
 -11974925.168 9  -9320363.01848  22018444.317    22018443.8494   22018453.5724
 01  3  8  0 19  0.0000000  0  8 30 23  5  6 26 18 10 17            -0.000000009
   5031693.741 9   3922851.59348  21902222.702    21902222.9564   21902232.2844
 -10045642.608 9  -7815762.56547  22822122.654    22822122.2444   22822135.1644
  14882278.351 9  11575321.11446  23638244.527    23638243.9344   23638258.2264
 -11538573.179 9  -8964789.56849  20384616.049    20384615.8944   20384623.4624
 -12175277.601 9  -9476775.60446  23030922.867    23030922.9344   23030936.2894
  -5533968.464 9  -4053696.45345  23977606.220    23977605.9294   23977621.3754
   3260199.141 9   2543983.59547  21809605.278    21809604.5054   21809613.7774
 -12019983.352 9  -9355473.20448  22009869.972    22009869.5054   22009879.1954
 01  3  8  0 19 30.0000000  0  8 30 23  5  6 26 18 10 17            -0.000000009
   5113635.125 9   3986701.93748  21917815.665    21917815.9324   21917825.2994
 -10136658.419 9  -7886683.76447  22804802.769    22804802.3344   22804815.2204
  14986419.145 9  11656469.51146  23658062.023    23658061.4844   23658075.7914
 -11562224.371 9  -8983219.04449  20380115.383    20380115.2404   20380122.7824
 -12252333.959 9  -9536819.28446  23016259.399    23016259.4464   23016272.6794
  -5641453.057 9  -4137450.22745  23957152.212    23957152.0704   23957167.3534
   3336721.610 9   2603611.45847  21824167.030    21824166.2744   21824175.5704
 -12064863.669 9  -9390444.80248  22001329.493    22001329.0374   22001338.6904
 01  3  8  0 20  0.0000000  0  8 30 23  5  6 26 18 10 17            -0.000000009
   5195911.714 9   4050813.48448  21933472.416    21933472.7234   21933482.0954
 -10227397.727 9  -7957389.50147  22787535.479    22787535.0284   22787547.8164
  15090607.065 9  11737654.63846  23677888.551    23677887.9694   23677902.2854
 -11585512.940 9  -9001365.95849  20375683.684    20375683.5584   20375691.0734
 -12329137.735 9  -9596666.14446  23001643.873    23001643.9834   23001657.1564
  -5748795.942 9  -4221093.56545  23936725.197    23936725.0414   23936740.2344
   3413614.493 9   2663527.95347  21838799.289    21838798.5644   21838807.8574
 -12109567.400 9  -9425278.80748  21992822.606    21992822.1564   21992831.7494
 01  3  8  0 20 30.0000000  0  8 30 23  5  6 26 18 10 17            -0.000000009
   5278520.730 9   4115184.07048  21949192.497    21949192.7704   21949202.1264
 -10317858.450 9  -8027878.15147  22770321.195    22770320.7564   22770333.4504
  15194839.682 9  11818874.58846  23697723.600    23697723.0274   23697737.4454
 -11608436.892 9  -9019228.74849  20371321.378    20371321.2484   20371328.7504
 -12405685.326 9  -9656313.39546  22987077.194    22987077.2984   22987090.4094
  -5855994.249 9  -4304624.23545  23916325.695    23916325.3644   23916340.6284
   3490875.169 9   2723731.04747  21853501.540    21853500.7964   21853510.0934
 -12154094.504 9  -9459975.17048  21984349.349    21984348.8724   21984358.4534
 01  3  8  0 21  0.0000000  0  8 30 23  5  6 26 18 10 17            -0.000000008
   5361459.840 9   4179811.86548  21964975.304    21964975.5744   21964984.9504
 -10408038.201 9  -8098147.87147  22753160.395    22753159.9554   22753172.5904
  15299114.745 9  11900127.60146  23717566.680    23717566.1104   23717580.5944
 -11630994.223 9  -9036805.86749  20367028.854    20367028.7204   20367036.2374
 -12481972.809 9  -9715757.97346  22972560.007    22972560.1284   22972573.2154
  -5963045.849 9  -4388040.59445  23895954.113    23895953.7764   23895968.9294
   3568501.433 9   2784219.00547  21868273.390    21868272.6404   21868281.8874
 -12198444.981 9  -9494533.91848  21975909.641    21975909.1854   21975918.7444
 01  3  8  0 21 30.0000000  0  8 30 23  5  6 26 18 10 17            -0.000000008
   5444725.574 9   4244694.17247  21980820.345    21980820.6044   21980830.0084
 -10497935.483 9  -8168197.48847  22736053.290    22736052.8884   22736065.4734
  15403429.077 9  11981411.20046  23737417.189    23737416.7484   23737431.1594
 -11653183.644 9  -9054096.30349  20362806.321    20362806.1934   20362813.7074
 -12557997.311 9  -9774997.63846  22958092.885    22958092.9834   22958105.9254
  -6069948.893 9  -4471341.19645  23875610.824    23875610.4804   23875625.4834
   3646490.104 9   2844989.36847  21883114.200    21883113.4364   21883122.6694
 -12242619.529 9  -9528955.57548  21967503.477    21967503.0044   21967512.5434
 01  3  8  0 22  0.0000000  0  8 30 23  5  6 26 18 10 17            -0.000000008
   5528314.983 9   4309828.70247  21996726.890    21996727.2034   21996736.5934
 -10587548.571 9  -8238025.64847  22719000.341    22718999.9444   22719012.4764
  15507779.684 9  12062723.07946  23757274.662    23757274.2214   23757288.7184
 -11675003.730 9  -9071098.93549  20358654.039    20358653.9174   20358661.4614
 -12633755.648 9  -9834029.90746  22943676.339    22943676.4944   22943689.2794
  -6176701.537 9  -4554524.62245  23855296.125    23855295.8934   23855310.6324
   3724838.424 9   2906039.97347  21898023.406    21898022.6444   21898031.9004
 -12286618.714 9  -9563240.57648  21959130.656    21959130.1914   21959139.7254
 01  3  8  0 22 30.0000000  0  8 30 23  5  6 26 18 10 17            -0.000000008
   5612225.991 9   4375213.81747  22012694.702    22012694.9884   22012704.4294
 -10676874.803 9  -8307630.28947  22702001.965    22702001.5824   22702014.0364
  15612164.639 9  12144061.72146  23777138.690    23777138.2094   23777152.8274
 -11696452.050 9  -9087811.89149  20354572.555    20354572.4234   20354579.9674
 -12709243.724 9  -9892851.59446  22929311.263    22929311.3784   22929324.1494
  -6283300.672 9  -4637588.44045  23835010.659    23835010.3464   23835025.0054
   3803543.954 9   2967368.91147  21913000.568    21912999.8164   21913009.0914
 -12330442.326 9  -9597388.77748  21950791.261    21950790.7844   21950800.3004
 01  3  8  0 23  0.0000000  0  8 30 23  5  6 26 18 10 17            -0.000000008
   5696455.371 9   4440847.01847  22028723.130    22028723.3824   22028732.8404
 -10765912.417 9  -8377010.03447  22685058.476    22685058.1024   22685070.5584
  15716581.225 9  12225425.00846  23797008.763    23797008.2834   23797022.8314
 -11717527.078 9  -9104233.96949  20350562.102    20350561.9694   20350569.5094
 -12784458.230 9  -9951460.11846  22914998.343    22914998.4474   22915011.1274
  -6389744.376 9  -4720531.15446  23814754.810    23814754.4304   23814769.0234
   3882604.096 9   3028974.17247  21928045.263    21928044.4814   21928053.7994
 -12374090.809 9  -9631400.51348  21942485.177    21942484.6944   21942494.2094
 01  3  8  0 23 30.0000000  0  8 30 23  5  6 26 18 10 17            -0.000000007
   5781000.058 9   4506725.90647  22044811.516    22044811.7544   22044821.2614
 -10854659.643 9  -8446163.50247  22668170.274    22668169.8834   22668182.3054
  15821026.716 9  12306810.80446  23816884.305    23816883.8944   23816898.4014
 -11738227.362 9  -9120364.03749  20346622.941    20346622.8064   20346630.3284
 -12859395.945 9 -10009852.95246  22900738.036    22900738.1694   22900750.8054
  -6496030.568 9  -4803351.13046  23794528.874    23794528.4414   23794542.9844
   3962016.019 9   3090853.55247  21943156.885    21943156.1094   21943165.4294
 -12417564.568 9  -9665276.10548  21934212.324    21934211.8414   21934221.3514
 01  3  8  0 24  0.0000000  0  8 30 23  5  6 26 18 10 17            -0.000000008
   5865856.954 9   4572848.08047  22060959.302    22060959.5564   22060969.0724
 -10943114.707 9  -8515089.30947  22651337.675    22651337.2564   22651349.6524
  15925498.183 9  12388216.84745  23836764.816    23836764.2714   23836778.8984
 -11758551.518 9  -9136201.02249  20342755.374    20342755.2344   20342762.7404
 -12934053.735 9 -10068027.65946  22886530.934    22886531.0754   22886543.6884
  -6602157.521 9  -4886047.05446  23774333.110    23774332.8334   23774347.1984
   4041776.624 9   3153004.63347  21958334.857    21958334.0624   21958343.4324
 -12460864.289 9  -9699016.08248  21925972.605    21925972.1154   21925981.5904
 01  3  8  0 24 30.0000000  0  8 30 23  5  6 26 18 10 17            -0.000000007
   5951024.049 9   4639211.96747  22077166.121    22077166.3564   22077175.9024
 -11031275.135 9  -8583785.52647  22634561.163    22634560.7204   22634573.0764
  16029993.860 8  12469641.75845  23856649.880    23856649.3844   23856664.0274
 -11778497.182 9  -9151743.08049  20338959.832    20338959.6814   20338967.1924
 -13008427.287 9 -10125980.89446  22872377.953    22872378.1224   22872390.7324
  -6708122.092 9  -4968616.43346  23754168.359    23754168.0234   23754182.3924
   4121883.982 9   3215425.89947  21973578.808    21973578.0084   21973587.4034
 -12503989.302 9  -9732619.92348  21917766.161    21917765.6874   21917775.1174
 01  3  8  0 25  0.0000000  0  8 30 23  5  6 26 18 10 17            -0.000000007
   6036496.664 9   4705813.92647  22093431.093    22093431.3264   22093440.8884
 -11119140.578 9  -8652251.87647  22617840.758    22617840.3064   22617852.6214
  16134509.351 8  12551082.09845  23876538.744    23876538.1264   23876552.9814
 -11798064.521 9  -9166990.33049  20335236.296    20335236.1594   20335243.6504
 -13082515.008 9 -10183711.39646  22858279.484    22858279.6824   22858292.0364
  -6813924.024 9  -5051059.11346  23734034.650    23734034.2714   23734048.5784
   4202333.684 9   3278113.94347  21988887.902    21988887.1104   21988896.4764
 -12546941.795 9  -9766089.32348  21909592.536    21909592.0354   21909601.4744
 01  3  8  0 25 30.0000000  0  8 30 23  5  6 26 18 10 17            -0.000000007
   6122272.879 9   4772652.45447  22109753.782    22109754.0264   22109763.6584
 -11206708.187 9  -8720486.14847  22601176.991    22601176.5724   22601188.8424
  16239043.086 8  12632536.64745  23896431.068    23896430.4654   23896445.3104
 -11817250.759 9  -9181940.62049  20331585.254    20331585.0874   20331592.5884
 -13156312.541 9 -10241215.77846  22844236.059    22844236.2554   22844248.6534
  -6919560.076 9  -5133372.53246  23713932.496    23713932.0474   23713946.2504
   4283123.793 9   3341067.23447  22004261.807    22004260.9874   22004270.3584
 -12589721.146 9  -9799423.80948  21901451.807    21901451.3114   21901460.7454
 01  3  8  0 26  0.0000000  0  8 30 23  5  6 26 18 10 17            -0.000000006
   6208350.159 9   4839725.56747  22126133.783    22126134.0264   22126143.6754
 -11293975.746 9  -8788486.61047  22584570.368    22584569.9184   22584582.1414
  16343592.794 8  12714003.64645  23916326.357    23916325.8424   23916340.8944
 -11836053.654 9  -9196592.21149  20328007.182    20328007.0144   20328014.4964
 -13229815.920 9 -10298490.94146  22830248.647    22830248.9084   22830261.2874
  -7025027.400 9  -5215554.48246  23693862.421    23693862.0014   23693876.0424
   4364252.578 9   3404284.41947  22019700.158    22019699.3194   22019708.6964
 -12632327.009 9  -9832623.12048  21893344.115    21893343.6244   21893353.0474
 01  3  8  0 26 30.0000000  0  8 30 23  5  6 26 18 10 17            -0.000000006
   6294724.161 9   4907029.90647  22142570.311    22142570.5074   22142580.1624
 -11380942.682 9  -8856252.81947  22568020.985    22568020.5354   22568032.6834
  16448154.615 8  12795480.06745  23936224.011    23936223.3774   23936238.5004
 -11854473.085 9  -9210944.99349  20324502.086    20324501.9004   20324509.3764
 -13303023.039 9 -10355535.23746  22816317.593    22816317.8224   22816330.1834
  -7130325.130 9  -5297604.29846  23673824.596    23673824.2234   23673838.1894
   4445715.977 9   3467762.34847  22035202.148    22035201.2984   22035210.7454
 -12674761.018 9  -9865688.50648  21885269.162    21885268.6444   21885278.0694
 01  3  8  0 27  0.0000000  0  8 30 23  5  6 26 18 10 17            -0.000000005
   6381392.562 9   4974563.63647  22159062.839    22159063.0804   22159072.7364
 -11467606.689 9  -8923782.98647  22551529.150    22551528.7724   22551540.8464
  16552726.328 8  12876964.20445  23956123.577    23956123.0304   23956138.2454
 -11872507.065 9  -9224997.42349  20321070.319    20321070.1464   20321077.6154
 -13375930.123 9 -10412345.75746  22802443.795    22802443.9374   22802456.1994
  -7235450.950 9  -5379520.17146  23653819.582    23653819.1724   23653832.9744
   4527511.598 9   3531499.14947  22050767.374    22050766.5324   22050775.9844
 -12717023.271 9  -9898620.06748  21877226.860    21877226.3714   21877235.7744
 01  3  8  0 27 30.0000000  0  8 30 23  5  6 26 18 10 17            -0.000000004
   6468352.810 9   5042324.77947  22175610.903    22175611.1344   22175620.7644
 -11553965.223 9  -8991075.12247  22535095.563    22535095.1794   22535107.1314
  16657306.012 8  12958454.55945  23976024.678    23976024.2744   23976039.4164
 -11890153.190 9  -9238747.63249  20317712.367    20317712.1914   20317719.6574
 -13448533.214 9 -10468919.37646  22788627.771    22788627.8824   22788640.1304
  -7340402.145 9  -5461299.98146  23633847.756    23633847.4094   23633860.9724
   4609637.240 9   3595493.10647  22066395.374    22066394.5534   22066404.0394
 -12759113.370 9  -9931417.48148  21869217.342    21869216.8564   21869226.2274
 01  3  8  0 28  0.0000000  0  8 30 23  5  6 26 18 10 17            -0.000000004
   6555600.588 9   5110309.96747  22192213.659    22192213.8904   22192223.5524
 -11640018.242 9  -9058129.18947  22518720.046    22518719.6654   22518731.5654
  16761889.227 8  13039947.66345  23995926.513    23995926.0364   23995941.3074
 -11907411.653 9  -9252195.76449  20314428.156    20314427.9844   20314435.4534
 -13520830.736 9 -10525254.89346  22774869.848    22774869.9564   22774882.0844
  -7445178.293 9  -5542943.40246  23613909.214    23613908.9614   23613922.3854
   4692088.168 9   3659740.53647  22082085.314    22082084.4814   22082093.9704
 -12801033.636 9  -9964082.55448  21861240.136    21861239.6594   21861249.0134
 01  3  8  0 28 30.0000000  0  8 30 23  5  6 26 18 10 17            -0.000000004
   6643134.637 9   5178518.22647  22208870.919    22208871.1384   22208880.8374
 -11725761.964 9  -9124942.24947  22502403.405    22502403.0214   22502414.8514
  16866475.320 8  13121442.98145  24015828.759    24015828.1384   24015843.6894
 -11924278.918 9  -9265339.06349  20311218.388    20311218.2264   20311225.6984
 -13592817.534 9 -10581348.27946  22761171.023    22761171.0904   22761183.3124
  -7549775.064 9  -5624447.06646  23594004.907    23594004.6224   23594017.9064
   4774863.428 9   3724240.69747  22097836.948    22097836.1164   22097845.5854
 -12842782.291 9  -9996613.90448  21853295.587    21853295.0994   21853304.4434
 01  3  8  0 29  0.0000000  0  8 30 23  5  6 26 18 10 17            -0.000000003
   6730951.340 9   5246946.73647  22225581.916    22225582.1794   22225591.8504
 -11811195.254 9  -9191513.41847  22486145.859    22486145.4564   22486157.2424
  16971061.126 9  13202938.08145  24035731.042    24035730.4804   24035746.0514
 -11940753.911 9  -9278176.70049  20308083.282    20308083.1374   20308090.5904
 -13664490.732 9 -10637197.31446  22747531.904    22747531.9724   22747544.1454
  -7654191.196 9  -5705809.97946  23574134.852    23574134.5564   23574147.7514
   4857959.924 9   3788991.16047  22113649.754    22113648.8994   22113658.3504
 -12884360.320 9 -10029012.30048  21845383.542    21845383.0264   21845392.3244
 01  3  8  0 29 30.0000000  0  8 30 23  5  6 26 18 10 17            -0.000000003
   6819047.857 9   5315593.28647  22242346.205    22242346.4444   22242356.1604
 -11896316.073 9  -9257841.11447  22469947.744    22469947.3094   22469959.0714
  17075644.290 9  13284431.13745  24055632.785    24055632.2324   24055647.9144
 -11956835.032 9  -9290707.41849  20305023.119    20305023.0054   20305030.4394
 -13735846.851 9 -10692799.26946  22733953.086    22733953.1524   22733965.2274
  -7758424.373 9  -5787030.34546  23554299.660    23554299.3984   23554312.5244
   4941375.099 9   3853989.95047  22129523.188    22129522.3404   22129531.7544
 -12925767.867 9 -10061277.84848  21837503.920    21837503.4014   21837512.6684
 01  3  8  0 30  0.0000000  0  8 30 23  5  6 26 18 10 17            -0.000000002
   6907421.325 9   5384455.62047  22259163.202    22259163.4414   22259173.1704
 -11981122.602 9  -9323923.91547  22453809.435    22453808.9724   22453820.6914
  17180222.080 9  13365919.97845  24075533.517    24075532.9454   24075548.6994
 -11972520.655 9  -9302929.96549  20302038.226    20302038.1014   20302045.5374
 -13806882.431 9 -10748151.45246  22720435.288    22720435.3904   22720447.4134
  -7862472.546 9  -5868106.53846  23534499.720    23534499.4264   23534512.4734
   5025106.363 9   3919235.03147  22145456.778    22145455.9404   22145465.3404
 -12967005.218 9 -10093410.78148  21829656.674    21829656.1634   21829665.3774
 01  3  8  0 30 30.0000000  0  8 30 23  5  6 26 18 10 17            -0.000000002
   6996068.121 9   5453530.94947  22276032.206    22276032.4444   22276042.1714
 -12065613.737 9  -9389760.95847  22437731.123    22437730.6634   22437742.3144
  17284791.558 9  13447402.34545  24095432.670    24095432.1394   24095447.9064
 -11987809.866 9  -9314843.61749  20299128.779    20299128.6664   20299136.0854
 -13877594.954 9 -10803251.89746  22706978.963    22706979.0664   22706991.0534
  -7966334.175 9  -5949037.40046  23514735.295    23514734.9884   23514747.9754
   5109150.410 9   3984723.85447  22161449.853    22161449.0084   22161458.4354
 -13008073.400 9 -10125411.89348  21821841.630    21821841.1044   21821850.3034
 01  3  8  0 31  0.0000000  0  8 30 23  5  6 26 18 10 17            -0.000000001
   7084986.207 9   5522817.66947  22292952.819    22292953.0304   22292962.8254
 -12149786.784 9  -9455350.14847  22421713.362    22421712.8924   22421724.5094
  17389350.907 8  13528876.81845  24115329.936    24115329.4144   24115345.2464
 -12002700.327 9  -9326446.55249  20296295.184    20296295.0474   20296302.4664
 -13947980.010 9 -10858097.17546  22693585.008    22693585.2084   22693597.0664
  -8070006.035 9  -6029820.38846  23495006.944    23495006.6364   23495019.5804
   5193504.908 9   4050454.58147  22177502.016    22177501.1854   22177510.6044
 -13048971.824 9 -10157280.72348  21814058.823    21814058.3224   21814067.5104
 01  3  8  0 31 30.0000000  0  8 30 23  5  6 26 18 10 17            -0.000000001
   7174171.655 9   5592312.72347  22309924.330    22309924.5514   22309934.3874
 -12233641.084 9  -9520690.96347  22405756.290    22405755.7984   22405767.3724
  17493896.575 9  13610340.62745  24135224.623    24135224.1024   24135239.8364
 -12017191.288 9  -9337738.19049  20293537.652    20293537.5064   20293544.9164
 -14018035.476 9 -10912685.64046  22680253.637    22680253.8184   22680265.6944
  -8173487.193 9  -6110454.76446  23475314.854    23475314.5694   23475327.4444
   5278166.433 9   4116424.55047  22193612.578    22193611.7624   22193621.2004
 -13089701.966 9 -10189018.42748  21806308.057    21806307.5584   21806316.7314
 01  3  8  0 32  0.0000000  0  8 30 23  5  6 26 18 10 17            -0.000000000
   7263622.300 9   5662014.41947  22326946.301    22326946.5364   22326956.4004
 -12317174.011 9  -9585781.36747  22389860.328    22389859.8624   22389871.3784
  17598427.086 8  13691792.62445  24155116.434    24155115.9314   24155131.6414
 -12031280.481 9  -9348716.76349  20290856.526    20290856.3834   20290863.7894
 -14087756.958 9 -10967013.86946  22666985.952    22666986.1924   22666997.8624
  -8276774.440 9  -6190938.05646  23455659.750    23455659.4554   23455672.2904
   5363133.355 9   4182632.48647  22209781.268    22209780.4794   22209789.9254
 -13130263.241 9 -10220624.54048  21798589.443    21798588.9514   21798598.1294
 01  3  8  0 32 30.0000000  0  8 30 23  5  6 26 18 10 17             0.000000001
   7353334.360 9   5731919.80447  22344017.978    22344018.2384   22344028.1414
 -12400384.468 9  -9650620.50647  22374025.768    22374025.3154   22374036.7944
  17702938.993 8  13773230.11845  24175004.622    24175004.1624   24175020.0084
 -12044967.279 9  -9359381.78949  20288252.037    20288251.8964   20288259.2844
 -14157141.993 9 -11021079.93546  22653782.242    22653782.4634   22653794.1524
  -8379866.743 9  -6271269.43346  23436041.699    23436041.3974   23436054.2214
   5448402.186 9   4249075.66647  22226007.445    22226006.6554   22226016.1224
 -13170656.350 9 -10252099.62348  21790902.814    21790902.3224   21790911.4864
 01  3  8  0 33  0.0000000  0  8 30 23  5  6 26 18 10 17             0.000000002
   7443305.151 9   5802026.80247  22361138.921    22361139.2054   22361149.1414
 -12483270.417 9  -9715206.78947  22358252.933    22358252.4944   22358263.8854
  17807429.710 8  13854651.10045  24194888.785    24194888.1884   24194904.2324
 -12058249.679 9  -9369731.69849  20285724.470    20285724.3154   20285731.7084
 -14226186.993 9 -11074881.04746  22640643.327    22640643.5794   22640655.1554
  -8482761.526 9  -6351446.90646  23416461.303    23416460.9624   23416473.7534
   5533970.404 9   4315752.14247  22242290.601    22242289.7934   22242299.2724
 -13210881.565 9 -10283443.88648  21783248.168    21783247.6724   21783256.8184
 01  3  8  0 33 30.0000000  0  8 30 23  5  6 26 18 10 17             0.000000002
   7533530.126 9   5872331.86647  22378308.242    22378308.5194   22378318.4574
 -12565831.877 9  -9779540.22247  22342541.811    22342541.4114   22342552.7384
  17911895.246 8  13936052.46645  24214768.129    24214767.5454   24214783.8214
 -12071127.765 9  -9379766.55449  20283273.805    20283273.6724   20283281.0704
 -14294890.308 9 -11128415.91046  22627569.395    22627569.6404   22627581.1084
  -8585458.351 9  -6431470.11246  23396918.571    23396918.1614   23396930.9424
   5619833.309 9   4382658.25247  22258629.803    22258629.0014   22258638.5314
 -13250940.770 9 -10314658.78148  21775625.099    21775624.6194   21775633.7184
 01  3  8  0 34  0.0000000  0  8 30 23  5  6 26 18 10 17             0.000000002
   7624008.798 9   5942834.61047  22395525.830    22395526.1304   22395536.0644
 -12648064.654 9  -9843617.54347  22326893.293    22326892.8944   22326904.1754
  18016335.398 8  14017434.04345  24234642.663    24234642.1964   24234658.4464
 -12083597.616 9  -9389483.30249  20280900.870    20280900.7254   20280908.1184
 -14363246.189 9 -11181680.04546  22614561.499    22614561.7154   22614573.2404
  -8687952.798 9  -6511335.62846  23377414.224    23377413.8734   23377426.5964
   5705990.889 9   4449793.97547  22275025.045    22275024.2714   22275033.8014
 -13290832.030 9 -10345742.80848  21768033.997    21768033.5044   21768042.5944
 01  3  8  0 34 30.0000000  0  9 30 23  5  6 26 18 10 22 17          0.000000036
   7714727.825 9   6013524.65147  22412789.230    22412789.4894   22412799.4324
 -12729977.371 9  -9907445.46647  22311305.707    22311305.3054   22311316.5484
  18120737.468 8  14098785.96045  24254509.992    24254509.5034   24254525.8944
 -12095668.071 9  -9398888.83549  20278603.919    20278603.7754   20278611.1794
 -14431261.641 9 -11234678.92046  22601618.493    22601618.6854   22601630.0644
  -8790253.049 9  -6591049.80446  23357946.917    23357946.5704   23357959.3114
   5792430.148 9   4517149.19847  22291473.921    22291473.1744   22291482.7064
  -4242001.714 9  -3109601.79845  24355423.179    24355422.2624   24355437.0824
 -13330565.876 9 -10376704.17448  21760472.846    21760472.3594   21760481.4174
 01  3  8  0 35  0.0000000  0  9 30 23  5  6 26 18 10 22 17          0.000000031
   7805694.655 9   6084407.77547  22430099.716    22430100.0154   22430109.9384
 -12811557.989 9  -9971014.62147  22295781.283    22295780.8824   22295792.0924
  18225109.325 8  14180114.31245  24274371.553    24274371.0624   24274387.4944
 -12107327.240 9  -9407973.89049  20276385.219    20276385.0914   20276392.4714
 -14498922.929 9 -11287401.83246  22588742.821    22588743.0694   22588754.3944
  -8892346.533 9  -6670602.87546  23338518.969    23338518.6004   23338531.2594
   5879158.768 9   4584729.89347  22307977.861    22307977.0694   22307986.6604
  -4305693.415 8  -3159231.57145  24343302.895    24343302.1734   24343316.7524
 -13370132.223 9 -10407535.02648  21752943.590    21752943.1114   21752952.1514
 01  3  8  0 35 30.0000000  0  9 30 23  5  6 26 18 10 22 17          0.000000028
   7896909.714 9   6155484.31547  22447457.470    22447457.7284   22447467.6614
 -12892801.477 9 -10034321.08047  22280321.062    22280320.6654   22280331.8224
  18329451.916 8  14261419.86445  24294227.530    24294227.1564   24294243.5774
 -12118570.196 9  -9416734.62649  20274245.751    20274245.6124   20274253.0094
 -14566223.463 9 -11339843.63746  22575935.867    22575936.0354   22575947.3794
  -8994227.688 9  -6749990.50846  23319131.414    23319131.0324   23319143.5814
   5966176.984 9   4652536.23747  22324536.939    22324536.1554   22324545.7374
  -4368954.781 9  -3208526.03445  24331264.602    24331263.7564   24331278.2524
 -13409528.115 9 -10438233.06148  21745446.733    21745446.2414   21745455.2734
 01  3  8  0 36  0.0000000  0  9 30 23  5  6 26 18 10 22 17          0.000000026
   7988366.702 9   6226749.38347  22464861.221    22464861.4904   22464871.4384
 -12973709.327 9 -10097366.00047  22264924.726    22264924.2844   22264935.4094
  18433759.871 8  14342698.42045  24314076.971    24314076.4854   24314093.1544
 -12129398.694 9  -9425172.41149  20272185.138    20272185.0184   20272192.3864
 -14633163.077 9 -11392004.20846  22563197.393    22563197.6044   22563209.0144
  -9095897.594 9  -6829213.51046  23299784.035    23299783.6664   23299796.2484
   6053479.324 9   4720563.98147  22341150.024    22341149.2744   22341158.8524
  -4431787.202 8  -3257486.23745  24319307.885    24319307.2054   24319321.5314
 -13448756.884 9 -10468800.87348  21737981.700    21737981.2194   21737990.2504
 01  3  8  0 36 30.0000000  0  9 30 23  5  6 26 18 10 22 17          0.000000026
   8080063.319 9   6298201.17147  22482310.549    22482310.8704   22482320.8454
 -13054279.430 9 -10160147.73947  22249592.633    22249592.1684   22249603.2494
  18538030.905 8  14423948.18545  24333919.336    24333918.9374   24333935.5994
 -12139810.817 9  -9433285.73249  20270203.774    20270203.6504   20270211.0314
 -14699737.953 9 -11443880.58146  22550528.559    22550528.8034   22550540.1264
  -9197353.819 9  -6908270.00546  23280477.286    23280477.0024   23280489.4184
   6141063.755 9   4788811.55047  22357816.844    22357816.0964   22357825.6924
  -4494187.902 8  -3306110.03645  24307433.345    24307432.4754   24307446.9254
 -13487818.216 9 -10499238.20548  21730548.520    21730548.0254   21730557.0544
 01  3  8  0 37  0.0000000  0  9 30 23  5  6 26 18 10 22 17          0.000000026
   8171994.356 9   6369835.61247  22499804.519    22499804.8494   22499814.8894
 -13134512.187 9 -10222666.61747  22234324.690    22234324.2484   22234335.2894
  18642260.292 8  14505165.50845  24353753.797    24353753.5074   24353770.2414
 -12149807.053 9  -9441074.99549  20268301.532    20268301.4274   20268308.7934
 -14765947.043 9 -11495471.92146  22537929.260    22537929.5074   22537940.7524
  -9298596.420 9  -6987160.03746  23261211.253    23261210.9794   23261223.2764
   6228925.268 9   4857275.01447  22374536.358    22374535.6114   22374545.2184
  -4556156.808 9  -3354397.37645  24295640.948    24295640.0384   24295654.3684
 -13526714.701 9 -10529547.09448  21723146.712    21723146.2294   21723155.2244
 01  3  8  0 37 30.0000000  0  9 30 23  5  6 26 18 10 22 17          0.000000026
   8264157.341 9   6441650.79247  22517342.645    22517342.9584   22517353.0384
 -13214405.457 9 -10284920.96547  22219121.373    22219120.9634   22219131.9184
  18746446.158 8  14586348.91945  24373580.048    24373579.6314   24373596.5494
 -12159385.641 9  -9448538.82349  20266478.817    20266478.6994   20266486.0594
 -14831786.630 9 -11546775.33746  22525400.282    22525400.5404   22525411.6944
  -9399622.943 9  -7065881.69346  23241986.280    23241986.0384   23241998.3164
   6317061.651 9   4925952.66547  22391308.207    22391307.4604   22391317.1024
  -4617691.827 9  -3402346.62845  24283931.114    24283930.3254   24283944.4724
 -13565446.014 9 -10559727.28148  21715776.344    21715775.8714   21715784.8584
 01  3  8  0 38  0.0000000  0  9 30 23  5  6 26 18 10 22 17          0.000000026
   8356548.674 9   6513643.91747  22534924.196    22534924.4964   22534934.6454
 -13293958.229 9 -10346909.98247  22203982.867    22203982.4634   22203993.3564
  18850585.514 8  14667496.09045  24393397.347    24393396.7324   24393413.9974
 -12168545.667 9  -9455676.48949  20264735.699    20264735.5754   20264742.9264
 -14897254.046 9 -11597788.75546  22512942.153    22512942.3354   22512953.5554
  -9500431.796 9  -7144433.71946  23222802.753    23222802.5194   23222814.7664
   6405469.633 9   4994841.95747  22408131.718    22408130.9734   22408140.6124
  -4678792.177 9  -3449957.16345  24272304.036    24272303.2544   24272317.2094
 -13604013.101 9 -10589779.49648  21708437.214    21708436.7324   21708445.7314
 01  3  8  0 38 30.0000000  0  9 30 23  5  6 26 18 10 22 17          0.000000026
   8449165.719 9   6585812.91247  22552548.712    22552549.0254   22552559.2214
 -13373168.468 9 -10408632.10047  22188909.540    22188909.1684   22188919.9804
  18954676.324 8  14748605.41945  24413205.457    24413205.0994   24413222.1174
 -12177285.323 9  -9462486.59549  20263072.583    20263072.4674   20263079.8054
 -14962345.607 9 -11648509.30846  22500555.495    22500555.7294   22500566.8934
  -9601020.333 9  -7222814.08846  23203661.156    23203660.9304   23203673.0294
   6494146.872 9   5063941.05047  22425006.445    22425005.7224   22425015.3534
  -4739455.607 8  -3497227.22845  24260760.020    24260759.2664   24260773.2854
 -13642415.730 9 -10619703.56448  21701129.395    21701128.9014   21701137.8884
 01  3  8  0 39  0.0000000  0  9 30 23  5  6 26 18 10 22 17          0.000000026
   8542004.615 9   6658154.78747  22570215.443    22570215.7744   22570226.0174
 -13452035.583 9 -10470086.83947  22173901.547    22173901.1384   22173911.9244
  19058715.278 8  14829674.33445  24433003.644    24433003.3824   24433020.5404
 -12185604.003 9  -9468968.66349  20261489.622    20261489.4834   20261496.8134
 -15027058.939 9 -11698935.11946  22488240.919    22488241.0954   22488252.2454
  -9701387.641 9  -7301022.07046  23184561.674    23184561.4034   23184573.4844
   6583089.900 9   5133247.26447  22441931.820    22441931.0844   22441940.7334
  -4799680.706 8  -3544155.75745  24249299.475    24249298.5714   24249312.8994
 -13680655.133 9 -10649500.44348  21693852.633    21693852.1494   21693861.1074
 01  3  8  0 39 30.0000000  0  9 30 23  5  6 26 18 10 22 17          0.000000026
   8635063.708 9   6730668.23047  22587924.128    22587924.4254   22587934.6864
 -13530556.500 9 -10531271.81447  22158959.408    22158958.9824   22158969.7444
  19162701.115 8  14910701.85045  24452791.762    24452791.5054   24452808.7554
 -12193498.896 9  -9475120.51449  20259987.234    20259987.1034   20259994.4424
 -15091389.562 9 -11749062.72646  22475999.044    22475999.2404   22476010.3404
  -9801530.276 9  -7379054.97446  23165504.938    23165504.6754   23165516.6054
   6672297.338 9   5202759.50747  22458907.492    22458906.7224   22458916.4164
  -4859464.218 8  -3590740.14945  24237922.869    24237921.9764   24237936.2254
 -13718730.386 9 -10679169.42048  21686607.139    21686606.6354   21686615.5664
 01  3  8  0 40  0.0000000  0  9 30 23  5  6 26 18 10 22 17          0.000000027
   8728338.475 9   6803349.73047  22605673.809    22605674.0874   22605684.4114
 -13608731.327 9 -10592187.11747  22144083.099    22144082.6914   22144093.4004
  19266629.742 8  14991684.78745  24472569.045    24472568.7334   24472585.8294
 -12200970.319 9  -9480942.39249  20258565.447    20258565.3174   20258572.6464
 -15155336.096 9 -11798891.04646  22463830.358    22463830.5244   22463841.5404
  -9901447.783 9  -7456912.47446  23146491.058    23146490.8384   23146502.5974
   6761764.713 9   5272474.29647  22475932.574    22475931.7764   22475941.5234
  -4918806.529 8  -3636980.76045  24226630.282    24226629.4944   24226643.7164
 -13756643.545 9 -10708712.09248  21679392.437    21679391.9394   21679400.8614
 01  3  8  0 40 30.0000000  0  9 30 23  5  6 26 18 10 22 17          0.000000027
   8821827.057 9   6876197.83947  22623464.220    22623464.4614   22623474.8174
 -13686557.367 9 -10652830.63847  22129273.163    22129272.7734   22129283.4444
  19370499.852 8  15072622.13645  24492335.219    24492334.8094   24492351.9834
 -12208015.740 9  -9486432.31949  20257224.738    20257224.6054   20257231.9514
 -15218894.001 9 -11848416.53446  22451735.559    22451735.7074   22451746.6904
 -10001136.941 9  -7534592.04446  23127520.603    23127520.3424   23127532.0684
   6851490.605 9   5342390.51647  22493006.883    22493006.1064   22493015.8014
  -4977704.941 8  -3682875.47645  24215422.140    24215421.3034   24215435.6084
 -13794393.702 9 -10738127.75048  21672208.753    21672208.2834   21672217.1884
 01  3  8  0 41  0.0000000  0  9 30 23  5  6 26 18 10 22 17          0.000000027
   8915526.088 9   6949209.93947  22641294.662    22641294.9084   22641305.2824
 -13764033.366 9 -10713201.39747  22114529.850    22114529.4604   22114540.0714
  19474308.667 8  15153511.73345  24512089.684    24512089.1734   24512106.6434
 -12214634.161 9  -9491589.52249  20255965.290    20255965.1574   20255972.5224
 -15282060.457 9 -11897637.00046  22439715.281    22439715.4984   22439726.3914
 -10100596.208 9  -7612092.47346  23108593.942    23108593.6444   23108605.3494
   6941471.859 9   5412505.72947  22510129.816    22510129.0724   22510138.7474
  -5036157.802 8  -3728423.00145  24204298.825    24204298.0634   24204312.3274
 -13831981.295 9 -10767416.73548  21665056.037    21665055.5744   21665064.4414
 01  3  8  0 41 30.0000000  0  9 30 23  5  6 26 18 10 22 17          0.000000027
   9009431.823 9   7022383.10947  22659164.425    22659164.6664   22659175.0564
 -13841158.614 9 -10773298.84247  22099853.272    22099852.8804   22099863.4654
  19578052.911 8  15234351.02345  24531831.864    24531831.2374   24531848.9054
 -12220825.057 9  -9496413.57649  20254787.184    20254787.0434   20254794.4174
 -15344833.207 9 -11946550.68246  22427769.969    22427770.1584   22427780.9804
 -10199824.686 9  -7689413.07546  23089711.167    23089710.8164   23089722.5314
   7031705.025 9   5482817.23047  22527300.663    22527299.9154   22527309.5734
  -5094163.895 8  -3773622.39945  24193260.499    24193259.7154   24193273.9804
 -13869407.461 9 -10796579.92648  21657934.032    21657933.5654   21657942.4154
 01  3  8  0 42  0.0000000  0  9 30 23  5  6 26 18 10 22 17          0.000000028
   9103542.420 9   7095715.90747  22677073.189    22677073.4094   22677083.8424
 -13917930.344 9 -10833120.81847  22085243.984    22085243.5844   22085254.1344
  19681731.361 8  15315139.04445  24551561.461    24551560.7884   24551578.4704
 -12226585.854 9  -9500902.49549  20253690.917    20253690.7924   20253698.1524
 -15407207.775 9 -11995154.09046  22415900.351    22415900.5264   22415911.3154
 -10298818.603 9  -7766550.91546  23070873.019    23070872.6584   23070884.3174
   7122188.882 9   5553324.06747  22544519.186    22544518.4454   22544528.1224
  -5151720.102 8  -3818471.23545  24182307.762    24182306.8884   24182321.2444
 -13906671.100 9 -10825616.48048  21650842.929    21650842.4644   21650851.2954
 01  3  8  0 42 30.0000000  0  9 30 23  5  6 26 18 10 22 17          0.000000028
   9197853.966 9   7169205.29547  22695020.153    22695020.3944   22695030.8774
 -13994347.840 9 -10892666.77347  22070702.138    22070701.7214   22070712.2334
  19785341.041 8  15395873.48945  24571278.037    24571277.3284   24571295.0684
 -12231916.012 9  -9505055.85449  20252676.633    20252676.4944   20252683.8434
 -15469181.753 9 -12043445.36046  22404106.974    22404107.1204   22404117.8834
 -10397576.815 9  -7843505.09246  23052079.764    23052079.4084   23052090.9644
   7212919.831 9   5624023.44047  22561784.728    22561783.9924   22561793.6944
  -5208826.141 8  -3862969.29045  24171440.717    24171439.8604   24171454.2634
 -13943773.368 9 -10854527.29248  21643782.575    21643782.1214   21643790.9274
 01  3  8  0 43  0.0000000  0  9 30 23  5  6 26 18 10 22 17          0.000000028
   9292363.382 9   7242848.87047  22713004.807    22713005.0434   22713015.5874
 -14070409.951 9 -10951935.79447  22056227.876    22056227.4724   22056237.9694
  19888879.300 9  15476552.27945  24590981.061    24590980.3804   24590998.2064
 -12236814.522 9  -9508872.86049  20251744.476    20251744.3394   20251751.6684
 -15530752.349 9 -12091422.28246  22392390.349    22392390.5014   22392401.2804
 -10496097.790 9  -7920274.41346  23033331.604    23033331.2964   23033342.8034
   7303894.971 9   5694913.10047  22579096.748    22579096.0174   22579105.8094
  -5265480.664 8  -3907115.51845  24160659.647    24160658.8344   24160673.0674
 -13980714.880 9 -10883312.83348  21636752.796    21636752.3284   21636761.1274
 01  3  8  0 43 30.0000000  0  9 30 23  5  6 26 18 10 22 17          0.000000029
   9387068.100 9   7316644.61747  22731026.564    22731026.8274   22731037.4094
 -14146114.809 9 -11010926.44247  22041821.581    22041821.2154   22041831.6404
  19992343.837 9  15557173.63045  24610670.019    24610669.2374   24610687.0734
 -12241279.571 9  -9512352.10649  20250894.791    20250894.6574   20250901.9724
 -15591916.193 9 -12139082.27846  22380751.200    22380751.3384   22380761.9854
 -10594378.938 9  -7996856.87646  23014629.100    23014628.7554   23014640.2114
   7395111.900 9   5765991.16147  22596454.780    22596454.0504   22596463.8754
  -5321681.261 8  -3950908.02945  24149964.941    24149964.0984   24149978.5744
 -14017495.397 9 -10911972.93148  21629753.670    21629753.2134   21629761.9864
 01  3  8  0 44  0.0000000  0  9 30 23  5  6 26 18 10 22 17          0.000000029
   9481964.356 9   7390589.61347  22749084.840    22749085.0864   22749095.6844
 -14221461.512 9 -11069638.00347  22027483.503    22027483.1014   22027493.4814
  20095731.731 9  15637735.23445  24630344.368    24630343.6774   24630361.6824
 -12245310.467 9  -9515493.05449  20250127.738    20250127.5884   20250134.9004
 -15652670.555 9 -12186423.17546  22369189.823    22369190.0124   22369200.7164
 -10692418.958 9  -8073251.44746  22995972.495    22995972.1994   22995983.5174
   7486567.469 9   5837255.16947  22613858.267    22613857.5124   22613867.3484
  -5377426.599 8  -3994345.78945  24139356.837    24139355.9024   24139370.5024
 -14054115.771 9 -10940508.23648  21622784.996    21622784.5384   21622793.3014
 01  3  8  0 44 30.0000000  0  9 30 23  5  6 26 18 10 22 17          0.000000029
   9577049.794 9   7464682.02747  22767179.116    22767179.3304   22767190.0214
 -14296447.871 9 -11128068.78047  22013213.984    22013213.5604   22013223.9154
  20199041.629 8  15718236.08045  24650003.913    24650003.3164   24650021.3314
 -12248905.171 9  -9518294.10749  20249443.659    20249443.5124   20249450.8304
 -15713011.736 9 -12233442.13146  22357707.083    22357707.3024   22357718.0604
 -10790215.101 9  -8149455.98646  22977362.323    22977361.9744   22977373.1884
   7578259.806 9   5908703.68747  22631306.804    22631306.0234   22631315.8464
  -5432714.526 8  -4037427.14345  24128835.764    24128834.9254   24128849.2424
 -14090575.609 9 -10968918.44648  21615846.903    21615846.4414   21615855.2024
 01  3  8  0 45  0.0000000  0  9 30 23  5  6 26 18 10 22 17          0.000000030
   9672320.875 9   7538919.10947  22785308.683    22785308.9094   22785319.6164
 -14371073.253 9 -11186218.26948  21999013.103    21999012.7114   21999023.0134
  20302270.191 8  15798673.53445  24669647.921    24669647.4774   24669665.5224
 -12252063.186 9  -9520754.87849  20248842.703    20248842.5584   20248849.8804
 -15772937.355 9 -12280137.26946  22346303.583    22346303.7564   22346314.3904
 -10887766.181 9  -8225469.56646  22958798.767    22958798.4154   22958809.6074
   7670185.304 9   5980333.87847  22648799.706    22648798.9634   22648808.7874
  -5487544.626 8  -4080151.76245  24118401.919    24118401.0394   24118415.3254
 -14126875.953 9 -10997204.37548  21608939.134    21608938.6634   21608947.4084
 01  3  8  0 45 30.0000000  0  8 30 23  6 26 18 10 22 17             0.000000023
   9767776.087 9   7613299.65647  22803473.356    22803473.5734   22803484.3074
 -14445334.970 9 -11244084.38748  21984881.429    21984881.0544   21984891.3214
 -12254781.900 9  -9522873.34049  20248325.339    20248325.1964   20248332.5204
 -15832443.086 9 -12326505.23047  22334979.836    22334980.0154   22334990.6844
 -10985068.921 9  -8301289.65446  22940282.499    22940282.1044   22940293.2714
   7762342.620 9   6052144.69247  22666336.695    22666335.9434   22666345.7984
  -5541913.929 8  -4122517.31445  24108055.720    24108054.7914   24108069.1104
 -14163015.738 9 -11025365.19048  21602061.919    21602061.4544   21602070.2034
 01  3  8  0 46  0.0000000  0  8 30 23  6 26 18 10 22 17             0.000000027
   9863416.357 9   7687824.40747  22821673.176    22821673.4344   22821684.1754
 -14519227.500 9 -11301662.83148  21970820.033    21970819.6394   21970829.8974
 -12257055.936 9  -9524645.30549  20247892.586    20247892.4564   20247899.7734
 -15891521.834 9 -12372540.48447  22323737.460    22323737.6284   22323748.2534
 -11082117.431 9  -8376911.64346  22921814.603    22921814.1694   22921825.3104
   7854733.172 9   6124137.25947  22683918.077    22683917.3114   22683927.1904
  -5595816.259 8  -4164519.00045  24097798.272    24097797.4324   24097811.6244
 -14198991.263 9 -11053398.01748  21595215.976    21595215.4944   21595224.2594
 01  3  8  0 46 30.0000000  0  8 30 23  6 26 18 10 22 17             0.000000029
   9959230.519 9   7762484.66047  22839906.093    22839906.3824   22839917.1514
 -14592757.397 9 -11358958.69348  21956827.648    21956827.2354   21956837.4454
 -12258892.069 9  -9526076.03949  20247543.183    20247543.0684   20247550.3574
 -15950178.359 9 -12418246.72447  22312575.385    22312575.5464   22312586.1764
 -11178917.505 9  -8452340.03946  22903394.007    22903393.5514   22903404.6124
   7947346.520 9   6196303.43047  22701541.831    22701541.0694   22701550.9594
  -5649257.994 8  -4206161.79345  24087628.543    24087627.6824   24087641.8694
 -14234810.545 9 -11081309.08648  21588399.738    21588399.2724   21588408.0134
 01  3  8  0 47  0.0000000  0  8 30 23  6 26 18 10 22 17             0.000000030
  10055217.287 9   7837279.40547  22858171.911    22858172.1664   22858182.9344
 -14665921.686 9 -11415969.67748  21942904.825    21942904.4344   21942914.6284
 -12260287.659 9  -9527163.49549  20247277.593    20247277.4724   20247284.7804
 -16008408.171 9 -12463620.47547  22301494.451    22301494.6564   22301505.2234
 -11275465.864 9  -8527572.30846  22885021.266    22885020.8104   22885031.8574
   8040181.692 9   6268642.46347  22719207.819    22719207.0814   22719216.9034
  -5702236.553 8  -4247443.67245  24077547.040    24077546.1824   24077560.2434
 -14270472.321 9 -11109097.42448  21581613.514    21581613.0704   21581621.7794
 01  3  8  0 47 30.0000000  0  8 30 23  6 26 18 10 22 17             0.000000031
  10151374.463 9   7912206.94147  22876470.116    22876470.3994   22876481.1814
 -14738718.207 9 -11472694.08448  21929051.997    21929051.6044   21929061.7544
 -12261240.482 9  -9527905.93649  20247096.245    20247096.1274   20247103.4334
 -16066207.498 9 -12508658.77947  22290495.588    22290495.7324   22290506.2414
 -11371759.784 9  -8602606.31346  22866697.001    22866696.5864   22866707.4894
   8133236.635 9   6341152.73546  22736915.622    22736914.8814   22736924.7234
  -5754749.744 8  -4288362.92945  24067554.072    24067553.2104   24067567.3124
 -14305976.123 9 -11136762.66948  21574857.317    21574856.8584   21574865.5594
 01  3  8  0 48  0.0000000  0  8 30 23  6 26 18 10 22 17             0.000000031
  10247697.980 9   7987264.09747  22894799.959    22894800.2194   22894811.0734
 -14811146.712 9 -11529131.72748  21915269.233    21915268.8254   21915278.9064
 -12261750.592 9  -9528303.40549  20246999.188    20246999.0744   20247006.3594
 -16123574.398 9 -12553360.13247  22279578.939    22279579.0694   22279589.5464
 -11467798.379 9  -8677441.35646  22848421.296    22848420.8984   22848431.7474
   8226507.695 9   6413831.42746  22754664.574    22754663.7944   22754673.6944
  -5806796.791 8  -4328918.94745  24057649.800    24057649.0464   24057662.8984
 -14341323.066 9 -11164305.67948  21568131.004    21568130.5544   21568139.2164
 01  3  8  0 48 30.0000000  0  8 30 23  6 26 18 10 22 17             0.000000031
  10344186.409 9   8062449.74847  22913161.189    22913161.4094   22913172.3614
 -14883204.317 9 -11585280.36248  21901557.027    21901556.6084   21901566.6444
 -12261815.113 9  -9528353.66649  20246986.900    20246986.8034   20246994.0634
 -16180504.209 9 -12597720.90047  22268745.423    22268745.5384   22268755.9664
 -11563578.003 9  -8752074.61146  22830194.886    22830194.4964   22830205.2374
   8319993.724 9   6486677.62746  22772454.410    22772453.6984   22772463.5164
  -5858374.180 8  -4369109.00845  24047834.854    24047834.1314   24047847.9274
 -14376511.988 9 -11191725.56048  21561434.725    21561434.2604   21561442.9134
 01  3  8  0 49  0.0000000  0  8 30 23  6 26 18 10 22 17             0.000000031
  10440836.383 9   8137761.27247  22931553.109    22931553.3564   22931564.3794
 -14954889.993 9 -11641139.19048  21887915.596    21887915.1824   21887925.1644
 -12261433.238 9  -9528056.08749  20247059.535    20247059.4324   20247066.6894
 -16236994.384 9 -12641739.10047  22257995.584    22257995.7014   22258006.1404
 -11659097.102 9  -8826504.85946  22812017.999    22812017.6504   22812028.3204
   8413691.941 9   6559689.15746  22790284.634    22790283.9254   22790293.7474
  -5909481.053 8  -4408932.42845  24038109.395    24038108.6844   24038122.4404
 -14411543.485 9 -11219022.76848  21554768.415    21554767.9554   21554776.5834
 01  3  8  0 49 30.0000000  0  8 30 23  6 26 18 10 22 17             0.000000031
  10537645.200 9   8213196.56947  22949975.287    22949975.5524   22949986.6014
 -15026202.299 9 -11696707.07648  21874345.183    21874344.7774   21874354.7454
 -12260603.643 9  -9527409.63649  20247217.407    20247217.3034   20247224.5654
 -16293041.885 9 -12685412.35947  22247330.001    22247330.1444   22247340.5984
 -11754353.612 9  -8900730.49746  22793891.127    22793890.7784   22793901.3774
   8507599.923 9   6632864.15646  22808154.774    22808154.0534   22808163.8794
  -5960116.273 9  -4448388.32146  24028473.759    24028472.9954   24028486.7384
 -14446417.652 9 -11246197.38648  21548132.029    21548131.5494   21548140.1574
 01  3  8  0 50  0.0000000  0  8 30 23  6 26 18 10 22 17             0.000000031
  10634609.391 9   8288752.94647  22968427.077    22968427.3484   22968438.4404
 -15097140.307 9 -11751983.30448  21860846.007    21860845.6224   21860855.5364
 -12259325.497 9  -9526413.66449  20247460.625    20247460.5254   20247467.7764
 -16348643.993 9 -12728738.55447  22236749.240    22236749.3594   22236759.7244
 -11849346.037 9  -8974750.34846  22775814.537    22775814.1734   22775824.7184
   8601714.340 9   6706200.01746  22826064.219    22826063.5054   22826073.3304
  -6010278.723 9  -4487475.82746  24018928.083    24018927.3124   24018940.9614
 -14481135.088 9 -11273249.86848  21541525.472    21541524.9934   21541533.5874
 01  3  8  0 50 30.0000000  0  8 30 23  6 26 18 10 22 17             0.000000031
  10731725.930 9   8364428.01747  22986907.843    22986908.1644   22986919.2724
 -15167702.657 9 -11806966.81848  21847418.319    21847417.9474   21847427.8454
 -12257597.657 9  -9525067.28149  20247789.401    20247789.3074   20247796.5624
 -16403797.662 9 -12771715.32347  22226253.789    22226253.9154   22226264.1444
 -11944072.368 9  -9048562.86346  22757788.567    22757788.1424   22757798.6944
   8696032.857 9   6779694.91746  22844012.497    22844011.8094   22844021.6144
  -6059966.462 9  -4526193.43846  24009472.741    24009471.9994   24009485.6204
 -14515695.959 9 -11300180.35748  21534948.745    21534948.2764   21534956.8584
 01  3  8  0 51  0.0000000  0  8 30 23  6 26 18 10 22 17             0.000000031
  10828991.543 9   8440219.26546  23005416.984    23005417.3004   23005428.4404
 -15237888.376 9 -11861656.86148  21834062.337    21834061.9534   21834071.8054
 -12255419.221 9  -9523369.79049  20248203.886    20248203.8004   20248211.0794
 -16458500.419 9 -12814340.71947  22215844.076    22215844.2124   22215854.4434
 -12038531.121 9  -9122166.87447  22739813.472    22739813.0854   22739823.5574
   8790552.703 9   6853346.68046  22861999.104    22861998.4184   22862008.2244
  -6109178.222 9  -4564540.15046  24000107.963    24000107.2614   24000120.7974
 -14550100.828 9 -11326989.28448  21528401.649    21528401.1784   21528409.7584
 01  3  8  0 51 30.0000000  0  8 30 23  6 26 18 10 22 17             0.000000031
  10926405.243 9   8516125.89646  23023954.316    23023954.6174   23023965.7824
 -15307694.475 9 -11916051.09648  21820778.583    21820778.1704   21820788.0144
 -12252787.304 9  -9521318.93649  20248704.720    20248704.6334   20248711.9014
 -16512747.690 9 -12856611.20247  22205521.062    22205521.2184   22205531.4444
 -12132718.729 9  -9195559.61747  22721890.021    22721889.6044   22721900.0064
   8885272.797 9   6927154.47846  22880023.781    22880023.0794   22880033.0124
  -6157911.344 9  -4602513.90046  23990834.258    23990833.4624   23990847.1424
 -14584348.271 9 -11353675.54848  21521884.529    21521884.0604   21521892.6324
 01  3  8  0 52  0.0000000  0  8 30 23  6 26 18 10 22 17             0.000000030
  11023962.119 9   8592144.08846  23042518.887    23042519.1954   23042530.3694
 -15377121.332 9 -11970149.81848  21807566.991    21807566.5864   21807576.3714
 -12249702.668 9  -9518915.31649  20249291.685    20249291.6074   20249298.8754
 -16566538.256 9 -12898525.80047  22195284.970    22195285.1054   22195295.2924
 -12226635.193 9  -9268741.06447  22704018.176    22704017.7564   22704028.0944
   8980189.018 9   7001115.11746  22898085.773    22898085.0754   22898095.0294
  -6206166.423 9  -4640115.14545  23981651.529    23981650.7894   23981664.3914
 -14618440.009 9 -11380240.48048  21515397.040    21515396.5714   21515405.1154
 01  3  8  0 52 30.0000000  0  8 30 23  6 26 18 10 22 17             0.000000030
  11121658.496 9   8668270.97846  23061110.017    23061110.3254   23061121.5294
 -15446168.541 9 -12023952.70948  21794427.658    21794427.2624   21794436.9984
 -12246164.808 9  -9516158.53249  20249964.890    20249964.8114   20249972.1044
 -16619869.811 9 -12940082.72747  22185136.215    22185136.3504   22185146.5364
 -12320278.992 9  -9341710.04447  22686198.161    22686197.7824   22686208.0604
   9075298.006 9   7075225.96146  22916184.445    22916183.7564   22916193.7664
  -6253942.614 9  -4677343.23045  23972559.927    23972559.0834   23972572.8584
 -14652376.918 9 -11406684.76748  21508939.043    21508938.5824   21508947.0994
 01  3  8  0 53  0.0000000  0  8 30 23  6 26 18 10 22 17             0.000000030
  11219493.336 9   8744505.77546  23079727.510    23079727.8364   23079739.0374
 -15514833.230 9 -12077457.53848  21781361.081    21781360.6484   21781370.3724
 -12242171.073 9  -9513046.52349  20250724.870    20250724.7854   20250732.0614
 -16672737.836 9 -12981278.46947  22175075.707    22175075.8454   22175085.9844
 -12413646.664 9  -9414463.86747  22668430.728    22668430.3824   22668440.5734
   9170598.993 9   7149486.40546  22934319.633    22934318.9414   22934329.0414
  -6301236.327 9  -4714195.37745  23963560.144    23963559.4034   23963573.0194
 -14686157.450 9 -11433007.20248  21502510.781    21502510.3224   21502518.8004
 01  3  8  0 53 30.0000000  0  8 30 23  6 26 18 10 22 17             0.000000030
  11317462.366 9   8820845.12446  23098370.500    23098370.8104   23098382.0464
 -15583115.126 9 -12130664.08648  21768367.376    21768366.9434   21768376.6144
 -12237721.435 9  -9509579.26049  20251571.615    20251571.5294   20251578.8104
 -16725140.548 9 -13022111.62147  22165103.661    22165103.7884   22165113.9464
 -12506737.557 9  -9487002.02447  22650715.957    22650715.5964   22650725.7174
   9266088.241 9   7223893.54746  22952490.625    22952489.9724   22952500.0744
  -6348047.317 9  -4750671.36245  23954652.225    23954651.5504   23954664.9394
 -14719783.116 9 -11459208.96648  21496112.009    21496111.5424   21496120.0174
 01  3  8  0 54  0.0000000  0  8 30 23  6 26 18 10 22 17             0.000000030
  11415562.969 9   8897286.99146  23117038.543    23117038.8374   23117050.1044
 -15651012.800 9 -12183571.25048  21755446.815    21755446.3784   21755455.9964
 -12232814.602 9  -9505755.75049  20252505.354    20252505.2724   20252512.5314
 -16777074.855 9 -13062579.78647  22155220.804    22155220.9204   22155231.0604
 -12599549.395 9  -9559322.73947  22633054.250    22633053.9734   22633063.9764
   9361763.428 9   7298445.58146  22970697.051    22970696.3284   22970706.5154
  -6394374.649 9  -4786770.45945  23945836.335    23945835.6644   23945849.0974
 -14753253.776 9 -11485289.95148  21489742.703    21489742.2214   21489750.6884
 01  3  8  0 54 30.0000000  0  8 30 23  6 26 18 10 22 17             0.000000030
  11513791.932 9   8973828.88346  23135731.022    23135731.3164   23135742.6414
 -15718525.259 9 -12236178.23748  21742599.539    21742599.0924   21742608.6984
 -12227449.873 9  -9501575.43749  20253526.228    20253526.1554   20253533.4244
 -16828538.135 9 -13102680.93447  22145427.649    22145427.7204   22145437.8264
 -12692080.621 9  -9631424.79947  22615445.979    22615445.7034   22615455.6594
   9457621.877 9   7373140.40646  22988938.310    22988937.5404   22988947.7984
  -6440217.320 9  -4822491.91145  23937112.683    23937112.0224   23937125.4044
 -14786569.920 9 -11511250.53748  21483402.802    21483402.3204   21483410.7694
 01  3  8  0 55  0.0000000  0  8 30 23  6 26 18 10 22 17             0.000000030
  11612145.682 9   9050468.00946  23154447.251    23154447.4894   23154458.8414
 -15785651.853 9 -12288484.55348  21729825.667    21729825.2354   21729834.7854
 -12221626.800 9  -9497037.96249  20254634.308    20254634.2194   20254641.5034
 -16879528.179 9 -13142413.30047  22135724.427    22135724.5374   22135734.5524
 -12784330.125 9  -9703307.33347  22597891.346    22597891.0064   22597900.9764
   9553660.588 9   7447975.70746  23007213.964    23007213.2084   23007223.4524
  -6485574.237 9  -4857834.85345  23928481.403    23928480.7184   23928494.0404
 -14819732.197 9 -11537091.21748  21477092.206    21477091.7194   21477100.1454
 01  3  8  0 55 30.0000000  0  8 30 23  6 26 18 10 22 17             0.000000030
  11710622.008 9   9127202.64646  23173186.797    23173187.0464   23173198.4034
 -15852390.825 9 -12340488.82248  21717125.548    21717125.1284   21717134.6414
 -12215343.530 9  -9492141.89849  20255829.959    20255829.8714   20255837.1254
 -16930041.683 9 -13181774.34347  22126111.985    22126112.0924   22126122.0384
 -12876295.231 9  -9774968.25647  22580390.836    22580390.4524   22580400.4294
   9649877.613 9   7522949.94546  23025523.520    23025522.7924   23025533.0154
  -6530443.254 9  -4892797.61045  23919943.014    23919942.4094   23919955.5994
 -14852740.193 9 -11562811.68248  21470810.961    21470810.4774   21470818.8974
 01  3  8  0 56  0.0000000  0  8 30 23  6 26 18 10 22 17             0.000000030
  11809217.252 9   9204029.94146  23191948.972    23191949.2874   23191960.6384
 -15918741.677 9 -12392190.66848  21704499.322    21704498.8884   21704508.3814
 -12208599.666 9  -9486886.93049  20257113.300    20257113.2124   20257120.4574
 -16980076.242 9 -13220762.19647  22116590.654    22116590.7634   22116600.6154
 -12967974.604 9  -9846406.54347  22562944.667    22562944.2894   22562954.2464
   9746269.731 9   7598060.62146  23043866.386    23043865.6244   23043875.9034
  -6574823.781 9  -4927379.71945  23911497.634    23911497.0064   23911510.0774
 -14885594.615 9 -11588412.48648  21464558.941    21464558.4354   21464566.8474
 01  3  8  0 56 30.0000000  0  8 30 23  6 26 18 10 22 17             0.000000030
  11907929.511 9   9280948.41646  23210733.365    23210733.6534   23210745.0694
 -15984702.620 9 -12443588.68748  21691947.272    21691946.8384   21691956.3164
 -12201393.620 9  -9481271.82149  20258484.548    20258484.4634   20258491.6904
 -17029628.598 9 -13259374.29347  22107161.076    22107161.2114   22107170.9794
 -13059365.946 9  -9917620.40147  22545553.360    22545552.9694   22545562.8294
   9842835.435 9   7673306.55646  23062242.315    23062241.5424   23062251.8244
  -6618714.384 9  -4961580.08945  23903145.460    23903144.7874   23903157.7144
 -14918294.719 9 -11613893.04348  21458336.264    21458335.7734   21458344.1794
 01  3  8  0 57  0.0000000  0  8 30 23  6 26 18 10 22 17             0.000000030
  12006754.917 9   9357955.05946  23229539.325    23229539.6444   23229551.0634
 -16050273.180 9 -12494682.51348  21679469.517    21679469.0864   21679478.5384
 -12193725.000 9  -9475296.26149  20259943.828    20259943.7334   20259950.9404
 -17078696.740 9 -13297609.08147  22097823.567    22097823.7054   22097833.4724
 -13150468.248 9  -9988609.02347  22528217.020    22528216.6414   22528226.4354
   9939571.024 9   7748684.87946  23080650.559    23080649.7694   23080660.0044
  -6662114.731 9  -4995398.42945  23894886.555    23894885.8454   23894898.9274
 -14950841.691 9 -11639254.27348  21452142.726    21452142.2314   21452150.6554
 01  3  8  0 57 30.0000000  0  8 30 23  6 26 18 10 22 17             0.000000030
  12105690.845 9   9435047.83046  23248366.370    23248366.6504   23248378.0964
 -16115452.143 9 -12545471.20148  21667066.267    21667065.8534   21667075.2644
 -12185592.845 9  -9468959.50249  20261491.361    20261491.2614   20261498.4594
 -17127277.646 9 -13335464.20247  22088578.828    22088578.9754   22088588.7314
 -13241279.501 9 -10059370.85047  22510936.076    22510935.7144   22510945.4624
  10036474.450 9   7824193.97346  23099090.744    23099089.8834   23099100.1214
  -6705022.880 9  -5028833.24145  23886721.268    23886720.5384   23886733.5964
 -14983235.538 9 -11664496.18648  21445978.334    21445977.8684   21445986.2864
 01  3  8  0 58  0.0000000  0  8 30 23  6 26 18 10 22 17             0.000000030
  12204734.294 9   9512224.36946  23267213.822    23267214.0634   23267225.5944
 -16180238.362 9 -12595953.85448  21654737.778    21654737.3684   21654746.7414
 -12176995.874 9  -9462260.55549  20263127.301    20263127.1894   20263134.3844
 -17175368.424 9 -13372937.42047  22079427.405    22079427.5304   22079437.2224
 -13331797.545 9 -10129904.21547  22493710.939    22493710.5794   22493720.2764
  10133543.499 9   7899832.12946  23117562.448    23117561.6754   23117571.8324
  -6747437.443 9  -5061883.44945  23878649.987    23878649.2254   23878662.3754
 -15015476.159 9 -11689618.70548  21439843.102    21439842.6364   21439851.0604
 01  3  8  0 58 30.0000000  0  8 30 23  6 26 18 10 22 17             0.000000029
  12303881.729 9   9589481.94846  23286081.067    23286081.3114   23286092.9114
 -16244631.241 9 -12646130.00748  21642484.127    21642483.7204   21642493.0554
 -12167933.840 9  -9455199.22249  20264851.767    20264851.6554   20264858.8394
 -17222967.113 9 -13410027.18547  22070369.555    22070369.6824   22070379.3524
 -13422021.384 9 -10200208.32747  22476541.762    22476541.4254   22476551.0844
  10230774.959 9   7975596.84446  23136065.031    23136064.2864   23136074.4004
  -6789358.135 9  -5094548.82545  23870672.645    23870671.9384   23870684.9554
 -15047564.311 9 -11714622.41148  21433736.901    21433736.4334   21433744.8504
 01  3  8  0 59  0.0000000  0  8 30 23  6 26 18 10 22 17             0.000000029
  12403131.021 9   9666818.88346  23304967.701    23304967.9264   23304979.5854
 -16308629.226 9 -12695998.45848  21630305.642    21630305.2414   21630314.5344
 -12158405.295 9  -9447774.38049  20266664.969    20266664.8604   20266672.0454
 -17270070.396 9 -13446730.92047  22061405.968    22061406.1064   22061415.7474
 -13511948.607 9 -10270281.31447  22459429.035    22459428.6614   22459438.3364
  10328166.958 9   8051486.63246  23154598.166    23154597.4154   23154607.5654
  -6830783.629 8  -5126828.34845  23862789.491    23862788.8054   23862801.9094
 -15079499.576 9 -11739506.99348  21427659.784    21427659.3104   21427667.6864
 01  3  8  0 59 30.0000000  0  8 30 23  6 26 18 10 22 17             0.000000029
  12502479.180 9   9744232.86846  23323873.217    23323873.4784   23323885.0564
 -16372230.938 9 -12745558.12148  21618202.545    21618202.1404   21618211.3934
 -12148409.069 9  -9439985.10249  20268567.198    20268567.0934   20268574.2664
 -17316675.466 9 -13483046.43647  22052537.240    22052537.3674   22052547.0064
 -13601577.301 9 -10340121.67547  22442373.150    22442372.7794   22442382.4024
  10425717.279 9   8127499.78846  23173161.387    23173160.6654   23173170.8614
  -6871712.387 8  -5158720.79345  23855000.897    23855000.2274   23855013.3294
 -15111281.779 9 -11764272.29648  21421611.801    21421611.3274   21421619.6924
 01  3  8  1  0  0.0000000  0  8 30 23  6 26 18 10 22 17             0.000000029
  12601922.209 9   9821720.76046  23342796.746    23342797.0084   23342808.5784
 -16435436.622 9 -12794809.19148  21606174.802    21606174.3974   21606183.6134
 -12137945.686 9  -9431831.80849  20270558.327    20270558.2054   20270565.3604
 -17362780.906 9 -13518972.62747  22043763.556    22043763.7104   22043773.2844
 -13690907.010 9 -10409729.06247  22425374.150    22425373.7474   22425383.3624
  10523421.990 9   8203633.26546  23191754.057    23191753.2934   23191763.4804
  -6912144.128 8  -5190225.95645  23847306.917    23847306.1644   23847319.3024
 -15142912.395 9 -11788919.47948  21415592.668    21415592.2044   21415600.5234
 01  3  8  1  0 30.0000000  0  8 30 23  6 26 18 10 22 17             0.000000029
  12701457.500 9   9899280.55946  23361737.811    23361738.0454   23361749.7044
 -16498245.103 9 -12843750.75648  21594222.663    21594222.2614   21594231.4514
 -12127013.824 9  -9423313.47349  20272638.578    20272638.4554   20272645.6224
 -17408383.747 9 -13554507.18847  22035085.470    22035085.6384   22035095.2344
 -13779935.432 9 -10479101.68847  22408432.456    22408432.0964   22408441.6464
  10621279.245 9   8279885.60746  23210375.723    23210374.9914   23210385.1974
  -6952077.480 8  -5221342.75445  23839707.781    23839707.0944   23839720.1934
 -15174391.120 9 -11813448.31048  21409602.437    21409601.9714   21409610.2804
 01  3  8  1  1  0.0000000  0  8 30 23  6 26 18 10 22 17             0.000000029
  12801082.651 9   9976910.37746  23380695.987    23380696.2314   23380707.9304
 -16560654.965 9 -12892381.70348  21582346.405    21582346.0034   21582355.1524
 -12115612.231 9  -9414429.09949  20274808.224    20274808.0934   20274815.2834
 -17453480.984 9 -13589647.77047  22026503.657    22026503.8394   22026513.4024
 -13868660.635 9 -10548238.03247  22391548.437    22391548.0944   22391557.6144
  10719286.735 9   8356255.02746  23229025.965    23229025.2704   23229035.4104
  -6991511.559 8  -5252070.52245  23832203.681    23832203.0194   23832216.0684
 -15205717.755 9 -11837858.61948  21403641.111    21403640.6484   21403648.9534
 01  3  8  1  1 30.0000000  0  8 30 23  6 26 18 10 22 17             0.000000029
  12900794.558 9  10054607.79546  23399670.625    23399670.9044   23399682.6314
 -16622665.317 9 -12940701.35048  21570546.145    21570545.7324   21570554.8764
 -12103740.153 9  -9405178.12149  20277067.370    20277067.2394   20277074.4304
 -17498070.302 9 -13624392.58147  22018018.536    22018018.6634   22018028.2384
 -13957081.102 9 -10617136.91947  22374722.446    22374722.0834   22374731.5794
  10817442.112 9   8432739.67246  23247704.334    23247703.6304   23247713.8184
  -7030445.446 8  -5282408.52945  23824794.688    23824794.0484   23824807.0334
 -15236892.677 9 -11862150.71648  21397708.661    21397708.2154   21397716.5094
 01  3  8  1  2  0.0000000  0  8 30 23  6 26 18 10 22 17             0.000000029
  13000590.417 9  10132370.61846  23418661.321    23418661.6184   23418673.3324
 -16684275.173 9 -12988708.92948  21558822.076    21558821.6784   21558830.7864
 -12091396.882 9  -9395559.98349  20279416.219    20279416.0824   20279423.2774
 -17542149.108 9 -13658739.59647  22009630.564    22009630.6604   22009640.2444
 -14045194.913 9 -10685796.87147  22357954.794    22357954.4404   22357963.8834
  10915742.795 9   8509337.53546  23266410.360    23266409.5994   23266419.8524
  -7068877.836 8  -5312355.75845  23817481.163    23817480.5114   23817493.5914
 -15267915.873 9 -11886324.59048  21391805.119    21391804.6524   21391812.9494
 01  3  8  1  2 30.0000000  0  8 30 23  6 26 18 10 22 17             0.000000029
  13100466.682 9  10210196.08946  23437667.246    23437667.5504   23437679.2614
 -16745484.252 9 -13036404.21348  21547174.331    21547173.9224   21547183.0064
 -12078582.373 9  -9385574.64949  20281854.746    20281854.6044   20281861.7944
 -17585715.439 9 -13692687.28347  22001340.102    22001340.2194   22001349.8054
 -14133001.154 9 -10754217.14647  22341245.645    22341245.3384   22341254.6794
  11014185.541 9   8586046.10546  23285143.432    23285142.6824   23285152.9454
  -7106808.215 8  -5341911.81645  23810263.223    23810262.5784   23810275.5774
 -15298788.375 9 -11910381.03648  21385930.259    21385929.8094   21385938.0714
 01  3  8  1  3  0.0000000  0  8 30 23  6 26 18 10 22 17             0.000000029
  13200420.571 9  10288082.06746  23456687.949    23456688.2334   23456700.0284
 -16806290.988 9 -13083785.98548  21535603.073    21535602.6734   21535611.7584
 -12065295.212 9  -9375221.01149  20284383.234    20284383.0844   20284390.2624
 -17628766.338 9 -13726233.31947  21993147.718    21993147.8314   21993157.3814
 -14220497.682 9 -10822396.07747  22324595.496    22324595.1554   22324604.4664
  11112768.644 9   8662864.04446  23303903.215    23303902.4844   23303912.7584
  -7144235.258 8  -5371075.64745  23803141.092    23803140.4194   23803153.4014
 -15329509.570 9 -11934319.57548  21380084.204    21380083.7364   21380091.9814
 01  3  8  1  3 30.0000000  0  8 30 23  6 26 18 10 22 17             0.000000028
  13300448.520 9  10366025.73846  23475722.773    23475723.0654   23475734.9734
 -16866695.455 9 -13130854.29648  21524108.410    21524108.0004   21524117.0794
 -12051535.431 9  -9364499.10249  20287001.597    20287001.4714   20287008.6354
 -17671300.309 9 -13759376.57347  21985053.681    21985053.8344   21985063.2694
 -14307683.761 9 -10890333.11247  22308004.420    22308004.1004   22308013.3614
  11211489.083 9   8739788.99746  23322689.167    23322688.3894   23322698.6704
  -7181159.399 8  -5399847.62245  23796114.540    23796113.9434   23796126.8144
 -15360080.337 9 -11958140.90248  21374266.729    21374266.2744   21374274.4994
 01  3  8  1  4  0.0000000  0  8 30 23  6 26 18 10 22 17             0.000000028
  13400549.184 9  10444026.06646  23494771.407    23494771.7484   23494783.7014
 -16926695.655 9 -13177607.59448  21512690.660    21512690.2654   21512699.3194
 -12037301.302 9  -9353407.56349  20289710.264    20289710.1564   20289717.3334
 -17713313.501 9 -13792114.01447  21977058.730    21977058.8994   21977068.3204
 -14394556.422 9 -10958025.93047  22291472.978    22291472.6454   22291481.8634
  11310345.475 9   8816819.89046  23341500.921    23341500.1164   23341510.5484
  -7217578.308 8  -5428225.90045  23789184.171    23789183.5014   23789196.3764
 -15390499.830 9 -11981844.34548  21368478.042    21368477.5814   21368485.7954
 01  3  8  1  4 30.0000000  0  8 30 23  6 26 18 10 22 17             0.000000028
  13500718.735 9  10522080.07246  23513833.238    23513833.5614   23513845.4894
 -16986291.150 9 -13224045.54048  21501349.937    21501349.5454   21501358.5604
 -12022592.558 9  -9341946.20249  20292509.213    20292509.1184   20292516.2794
 -17754804.177 9 -13824444.30547  21969163.200    21969163.3554   21969172.7984
 -14481114.578 9 -11025473.65947  22275001.399    22275001.0284   22275010.2284
  11409334.789 9   8893954.36746  23360338.006    23360337.1554   23360347.5134
  -7253491.192 8  -5456209.87745  23782350.040    23782349.2524   23782362.3014
 -15420768.668 9 -12005430.39948  21362718.053    21362717.5684   21362725.8044
 01  3  8  1  5  0.0000000  0  8 30 23  6 26 18 10 22 17             0.000000028
  13600953.772 9  10600185.10746  23532907.481    23532907.7964   23532919.7894
 -17045481.874 9 -13270168.08048  21490086.260    21490085.8534   21490094.8634
 -12007409.122 9  -9330114.94649  20295398.502    20295398.4284   20295405.5814
 -17795770.627 9 -13856366.10347  21961367.467    21961367.6224   21961377.0814
 -14567357.373 9 -11092675.65947  22258589.835    22258589.4394   22258598.6364
  11508453.827 9   8971189.92246  23379199.759    23379198.9174   23379209.3434
  -7288897.975 8  -5483799.46845  23775612.252    23775611.3674   23775624.5504
 -15450887.731 9 -12028899.74448  21356986.539    21356986.0564   21356994.2864
 01  3  8  1  5 30.0000000  0  8 30 23  6 26 18 10 22 17             0.000000028
  13701252.223 9  10678339.54646  23551993.774    23551994.0634   23552006.1294
 -17104266.006 9 -13315973.80448  21478899.937    21478899.5074   21478908.5024
 -11991749.368 9  -9317912.54549  20298378.446    20298378.3654   20298385.5194
 -17836209.348 9 -13887876.69647  21953672.179    21953672.3294   21953681.7044
 -14653281.868 9 -11159629.64147  22242238.811    22242238.4394   22242247.5554
  11607701.288 9   9048525.54146  23398085.954    23398085.1724   23398095.5484
  -7323797.094 8  -5510993.49945  23768971.040    23768970.2644   23768983.3814
 -15480855.932 9 -12052251.54448  21351283.706    21351283.2344   21351291.4554
 01  3  8  1  6  0.0000000  0  8 30 23  6 26 18 10 22 17             0.000000028
  13801610.121 9  10756540.31246  23571091.411    23571091.7034   23571103.7734
 -17162643.807 9 -13361462.89948  21467790.929    21467790.5284   21467799.5114
 -11975613.800 9  -9305339.36849  20301448.989    20301448.8994   20301456.0404
 -17876119.125 9 -13918975.11947  21946077.545    21946077.6874   21946086.9534
 -14738887.895 9 -11226335.46447  22225948.402    22225948.0364   22225957.1024
  11707073.614 9   9125958.46946  23416995.993    23416995.1024   23417005.5314
  -7358189.217 8  -5537792.45145  23762426.378    23762425.7554   23762438.7584
 -15510674.560 9 -12075486.78248  21345609.395    21345608.9224   21345617.1394
 01  3  8  1  6 30.0000000  0  8 30 23  6 26 18 10 22 17             0.000000028
  13902025.482 9  10834785.86446  23590199.891    23590200.1744   23590212.2914
 -17220613.628 9 -13406634.09248  21456759.573    21456759.1454   21456768.1304
 -11959000.798 9  -9292394.16949  20304610.341    20304610.2314   20304617.3784
 -17915496.723 9 -13949658.85047  21938584.145    21938584.2844   21938593.4674
 -14824172.863 9 -11292791.10547  22209719.095    22209718.7024   22209727.7234
  11806569.477 9   9203487.65046  23435929.510    23435928.6344   23435938.9954
  -7392072.207 8  -5564194.67845  23755978.635    23755977.7994   23755990.9214
 -15540342.883 9 -12098604.90748  21339963.680    21339963.1914   21339971.3904
 01  3  8  1  7  0.0000000  0  8 30 23  6 26 18 10 22 17             0.000000028
  14002494.884 9  10913073.51146  23609318.784    23609319.0684   23609331.1764
 -17278175.104 9 -13451487.08948  21445805.863    21445805.4484   21445814.4394
 -11941910.271 9  -9279076.86849  20307862.561    20307862.4494   20307869.5784
 -17954340.358 9 -13979926.50047  21931192.329    21931192.4924   21931201.7004
 -14909135.897 9 -11358995.88647  22193551.014    22193550.6554   22193559.6254
  11906185.769 9   9281110.68946  23454885.948    23454885.1014   23454895.4304
  -7425445.537 9  -5590199.76445  23749627.882    23749627.1254   23749640.0174
 -15569861.572 9 -12121606.42848  21334346.398    21334345.9304   21334354.1134
 01  3  8  1  7 30.0000000  0  8 30 23  6 26 18 10 22 17             0.000000028
  14103015.648 9  10991401.19346  23628447.398    23628447.7164   23628459.8284
 -17335327.568 9 -13496021.37848  21434930.047    21434929.6274   21434938.5914
 -11924341.734 9  -9265387.10049  20311205.751    20311205.6054   20311212.7384
 -17992647.746 9 -14009776.30647  21923902.544    21923902.7184   21923911.9704
 -14993775.247 9 -11424948.45747  22177444.548    22177444.1754   22177453.1004
  12005920.346 9   9358825.88046  23473864.858    23473864.0524   23473874.4074
  -7458308.606 9  -5615807.26645  23743374.207    23743373.4254   23743386.2394
 -15599230.648 9 -12144491.37548  21328757.627    21328757.1494   21328765.3224
 01  3  8  1  8  0.0000000  0  8 30 23  6 26 18 10 22 17             0.000000028
  14203585.072 9  11069766.78846  23647585.274    23647585.5684   23647597.7574
 -17392069.863 9 -13540236.06048  21424132.288    21424131.8624   21424140.7824
 -11906294.279 9  -9251324.14349  20314640.091    20314639.9474   20314647.0754
 -18030416.255 9 -14039206.20247  21916715.355    21916715.5244   21916724.7734
 -15078088.925 9 -11490647.25847  22161400.066    22161399.7024   22161408.5654
  12105770.884 9   9436631.43246  23492865.801    23492864.9884   23492875.3284
  -7490660.825 9  -5641016.69145  23737217.710    23737216.9274   23737229.5374
 -15628449.835 9 -12167259.52448  21323197.353    21323196.8984   21323205.0464
 01  3  8  1  8 30.0000000  0  8 30 23  6 26 18 10 22 17             0.000000028
  14304199.930 9  11148167.78546  23666731.790    23666732.0024   23666744.4194
 -17448401.754 9 -13584130.93948  21413412.595    21413412.1934   21413421.0484
 -11887767.682 9  -9236887.83349  20318165.549    20318165.4074   20318172.5444
 -18067644.165 9 -14068214.85947  21909631.170    21909631.2884   21909640.4074
 -15162075.803 9 -11556091.40847  22145417.723    22145417.4074   22145426.2024
  12205734.678 9   9514525.23746  23511888.381    23511887.5684   23511897.9424
  -7522501.934 9  -5665827.84245  23731158.512    23731157.7514   23731170.3934
 -15657519.629 9 -12189911.25948  21317665.502    21317665.0284   21317673.1954
 01  3  8  1  9  0.0000000  0  8 30 23  6 26 18 10 22 17             0.000000028
  14404857.564 9  11226602.09046  23685886.437    23685886.7024   23685899.1474
 -17504322.201 9 -13627705.21848  21402771.235    21402770.8304   21402779.6444
 -11868760.990 9  -9222077.42449  20321782.390    20321782.2534   20321789.4054
 -18104328.824 9 -14096800.20547  21902650.267    21902650.3914   21902659.4294
 -15245734.052 9 -11621279.49247  22129497.964    22129497.6384   22129506.4244
  12305809.601 9   9592505.65146  23530932.005    23530931.2554   23530941.6594
  -7553830.453 9  -5690239.58245  23725196.839    23725196.0294   23725208.6714
 -15686440.023 9 -12212446.58048  21312162.072    21312161.6084   21312169.7744
 01  3  8  1  9 30.0000000  0  8 30 23  6 26 18 10 22 17             0.000000028
  14505554.479 9  11305067.01646  23705048.599    23705048.8564   23705061.3024
 -17559831.286 9 -13670958.95348  21392208.114    21392207.7034   21392216.4954
 -11849274.429 9  -9206893.09149  20325490.538    20325490.4364   20325497.5734
 -18140468.957 9 -14124961.24347  21895772.876    21895773.0224   21895782.0454
 -15329063.022 9 -11686210.99647  22113640.871    22113640.5664   22113649.3144
  12405992.970 9   9670570.55846  23549996.356    23549995.5974   23550006.0814
  -7584646.406 9  -5714251.91645  23719332.676    23719331.8584   23719344.4654
 -15715211.706 9 -12234866.02748  21306686.978    21306686.5184   21306694.6724
 01  3  8  1 10  0.0000000  0  8 30 23  6 26 18 10 22 17             0.000000027
  14606288.341 9  11383560.74946  23724217.731    23724217.9964   23724230.4884
 -17614927.804 9 -13713891.20548  21381723.560    21381723.1514   21381731.8984
 -11829307.106 9  -9191334.12949  20329290.159    20329290.0654   20329297.2334
 -18176061.598 9 -14152695.66247  21888999.727    21888999.8414   21889008.9114
 -15412060.571 9 -11750884.25947  22097846.832    22097846.5204   22097855.1974
  12506282.795 9   9748718.43646  23569080.924    23569080.1964   23569090.7134
  -7614948.865 9  -5737864.12245  23713566.265    23713565.4804   23713578.0834
 -15743834.188 9 -12257169.21248  21301240.267    21301239.8094   21301247.9324
 01  3  8  1 10 30.0000000  0  8 30 23  6 26 18 10 22 17             0.000000027
  14707055.986 9  11462080.77246  23743393.255    23743393.5604   23743406.2384
 -17669611.361 9 -13756501.67448  21371317.529    21371317.1154   21371325.8524
 -11808858.851 9  -9175400.41949  20333181.345    20333181.2624   20333188.4184
 -18211104.975 9 -14180002.07747  21882331.081    21882331.2274   21882340.3214
 -15494725.564 9 -11815298.38947  22082116.107    22082115.7994   22082124.4254
  12606676.510 9   9826947.25446  23588185.235    23588184.4604   23588195.1124
  -7644737.890 9  -5761076.24546  23707897.550    23707896.8054   23707909.3034
 -15772307.592 9 -12279356.23648  21295821.917    21295821.4594   21295829.5664
 01  3  8  1 11  0.0000000  0  8 30 23  6 26 18 10 22 17             0.000000027
  14807855.682 9  11540625.77446  23762574.944    23762575.2714   23762587.9784
 -17723880.159 9 -13798788.95948  21360990.448    21360990.0244   21360998.7564
 -11787927.912 9  -9159090.59649  20337164.357    20337164.2744   20337171.4214
 -18245595.890 9 -14206878.01047  21875767.636    21875767.7414   21875776.8064
 -15577055.372 9 -11879451.34047  22066449.153    22066448.8464   22066457.4114
  12707172.900 9   9905256.08446  23607309.086    23607308.2914   23607319.0024
  -7674011.396 9  -5783886.67446  23702326.966    23702326.1214   23702338.6744
 -15800631.135 9 -12301426.48648  21290432.089    21290431.6214   21290439.7074
 01  3  8  1 11 30.0000000  0  8 30 23  6 26 18 10 22 17             0.000000027
  14908682.922 9  11619192.24046  23781761.923    23781762.1684   23781774.9394
 -17777735.293 9 -13840753.90448  21350742.095    21350741.6894   21350750.3644
 -11766515.366 9  -9142405.49349  20341239.052    20341238.9334   20341246.0934
 -18279533.870 9 -14233323.08347  21869309.360    21869309.4724   21869318.5434
 -15659050.114 9 -11943343.20647  22050845.961    22050845.6084   22050854.1524
  12807767.868 9   9983641.71446  23626451.679    23626450.9284   23626461.5914
  -7702770.198 9  -5806296.03146  23696854.279    23696853.4104   23696865.9554
 -15828806.403 9 -12323381.19348  21285070.491    21285070.0134   21285078.1104
 01  3  8  1 12  0.0000000  0  8 30 23  6 26 18 10 22 17             0.000000027
  15009535.336 9  11697778.31146  23800953.637    23800953.9124   23800966.6734
 -17831175.767 9 -13882395.73948  21340572.641    21340572.2194   21340580.8804
 -11744620.547 9  -9125344.59849  20345405.515    20345405.4094   20345412.5424
 -18312916.422 9 -14259335.35347  21862956.879    21862956.9894   21862965.9244
 -15740708.101 9 -12006972.66447  22035306.817    22035306.4854   22035315.0014
  12908459.478 9  10062102.66046  23645612.696    23645611.9434   23645622.5934
  -7731013.450 9  -5828303.66746  23691479.721    23691478.9114   23691491.3984
 -15856833.065 9 -12345220.10548  21279737.140    21279736.6654   21279744.7544
 01  3  8  1 12 30.0000000  0  8 30 23  6 26 18 10 22 17             0.000000026
  15110410.124 9  11776381.82946  23820149.616    23820149.8634   23820162.7234
 -17884200.940 9 -13923713.96148  21330482.215    21330481.7854   21330490.4384
 -11722242.924 9  -9107907.48749  20349663.855    20349663.7314   20349670.8654
 -18345741.483 9 -14284913.20747  21856710.354    21856710.4754   21856719.4204
 -15822027.702 9 -12070338.44747  22019832.117    22019831.7884   22019840.2804
  13009245.705 9  10140637.31846  23664791.704    23664790.8964   23664801.6504
  -7758740.900 9  -5849909.37746  23686203.290    23686202.5344   23686214.9314
 -15884711.174 9 -12366943.25548  21274432.105    21274431.6284   21274439.6884
 01  3  8  1 13  0.0000000  0  8 30 23  6 26 18 10 22 17             0.000000026
  15211304.659 9  11855000.72146  23839349.425    23839349.6414   23839362.5374
 -17936809.999 9 -13964707.94248  21320470.955    21320470.5464   21320479.1724
 -11699381.947 9  -9090093.73949  20354014.132    20354014.0394   20354021.1494
 -18378006.633 9 -14310054.77747  21850570.376    21850570.5354   21850579.4414
 -15903007.091 9 -12133439.14247  22004422.142    22004421.8164   22004430.2914
  13110124.373 9  10219244.04646  23683988.293    23683987.5564   23683998.2094
  -7785951.943 9  -5871112.69746  23681025.183    23681024.4384   23681036.8414
 -15912440.554 9 -12388550.51648  21269155.334    21269154.8714   21269162.9064
 01  3  8  1 13 30.0000000  0  8 30 23  6 26 18 10 22 17             0.000000027
  15312217.223 9  11933633.66946  23858552.577    23858552.8574   23858565.8014
 -17989001.203 9 -14005376.33348  21310539.239    21310538.8314   21310547.4294
 -11676036.078 9  -9071902.16548  20358456.710    20358456.6344   20358463.7414
 -18409708.986 9 -14334757.80747  21844537.474    21844537.6614   21844546.5404
 -15983644.032 9 -12196273.00047  21989077.323    21989076.9894   21989085.4594
  13211094.279 9  10297921.82446  23703202.260    23703201.5364   23703212.1174
  -7812644.719 9  -5891912.18146  23675945.648    23675944.8754   23675957.3024
 -15940020.333 9 -12410041.21648  21263907.040    21263906.5944   21263914.6274
 01  3  8  1 14  0.0000000  0  8 30 23  6 26 18 10 22 17             0.000000026
  15413142.297 9  12012276.36946  23877758.159    23877758.5114   23877771.4134
 -18040776.677 9 -14045720.76148  21300686.626    21300686.2124   21300694.8044
 -11652207.690 9  -9053334.58048  20362991.084    20362991.0054   20362998.1274
 -18440849.221 9 -14359022.81247  21838611.670    21838611.8444   21838620.6504
 -16063939.859 9 -12258841.05247  21973797.443    21973797.1074   21973805.5424
  13312150.683 9  10376667.05046  23722432.663    23722431.9524   23722442.5004
  -7838821.226 9  -5912309.37646  23670964.309    23670963.5634   23670976.0674
 -15967453.014 9 -12431417.27648  21258686.769    21258686.3184   21258694.3174
 01  3  8  1 14 30.0000000  0  8 30 23  6 26 18 10 22 17             0.000000026
  15514079.332 9  12090928.37646  23896966.038    23896966.3844   23896979.3444
 -18092133.554 9 -14085739.02648  21290913.677    21290913.2784   21290921.8264
 -11627893.910 9  -9034388.78448  20367617.836    20367617.7724   20367624.8994
 -18471422.879 9 -14382846.35047  21832793.662    21832793.8414   21832802.6054
 -16143890.488 9 -12321140.12147  21958583.248    21958582.9204   21958591.2954
  13413293.593 9  10455479.64246  23741679.463    23741678.7974   23741689.4594
  -7864478.779 9  -5932302.19846  23666081.748    23666081.0034   23666093.4904
 -15994736.383 9 -12452677.00348  21253494.868    21253494.4024   21253502.3864
 01  3  8  1 15  0.0000000  0  8 30 23  6 26 18 10 22 17             0.000000026
  15615024.170 9  12169586.45246  23916175.376    23916175.6464   23916188.7324
 -18143072.881 9 -14125431.92048  21281220.173    21281219.7584   21281228.2914
 -11603095.898 9  -9015065.65448  20372336.755    20372336.6454   20372343.7904
 -18501429.606 9 -14406228.11447  21827083.477    21827083.6854   21827092.4394
 -16223496.340 9 -12383170.53447  21943434.615    21943434.3074   21943442.6504
  13514519.282 8  10534356.76245  23760942.049    23760941.3134   23760952.0724
  -7889618.960 9  -5951891.87446  23661297.651    23661296.9354   23661309.4024
 -16021872.122 9 -12473821.68448  21248331.097    21248330.6374   21248338.6164
 01  3  8  1 15 30.0000000  0  8 30 23  6 26 18 10 22 17             0.000000026
  15715974.515 9  12248248.83946  23935385.748    23935386.0474   23935399.0914
 -18193593.497 9 -14164798.55348  21271606.343    21271605.9444   21271614.4374
 -11577812.851 9  -8995364.58048  20377147.949    20377147.8444   20377154.9874
 -18530866.788 9 -14429166.08147  21821481.694    21821481.8234   21821490.5744
 -16302754.930 9 -12444930.36347  21928352.142    21928351.8284   21928360.1144
  13615826.294 8  10613297.25945  23780220.148    23780219.3674   23780230.1824
  -7914240.577 9  -5971077.47646  23656612.251    23656611.5394   23656623.9534
 -16048859.348 9 -12494850.64848  21243195.556    21243195.0924   21243203.0714
 01  3  8  1 16  0.0000000  0  8 30 23  6 26 18 10 22 17             0.000000026
  15816927.090 9  12326912.97446  23954596.605    23954596.8074   23954609.9264
 -18243695.557 9 -14203839.03448  21262072.176    21262071.7744   21262080.2284
 -11552045.173 9  -8975285.87348  20382051.410    20382051.2894   20382058.4164
 -18559733.357 9 -14451659.42347  21815988.474    21815988.6264   21815997.3644
 -16381665.726 9 -12506419.17747  21913335.850    21913335.4944   21913343.7554
  13717211.189 8  10692298.41245  23799513.037    23799512.3204   23799523.2384
  -7938343.459 9  -5989858.86546  23652025.572    23652024.8644   23652037.2224
 -16075698.789 9 -12515764.45548  21238088.113    21238087.6484   21238095.6344
 01  3  8  1 16 30.0000000  0  8 30 23  6 26 18 10 22 17             0.000000026
  15917880.230 9  12405577.52046  23973807.516    23973807.7484   23973820.8694
 -18293377.459 9 -14242552.11848  21252617.950    21252617.5494   21252625.9984
 -11525791.329 9  -8954828.32848  20387047.328    20387047.2114   20387054.3514
 -18588026.078 9 -14473705.61247  21810604.500    21810604.6234   21810613.2924
 -16460226.384 9 -12567635.15947  21898386.156    21898385.7934   21898394.0164
  13818673.332 9  10771359.78545  23818820.746    23818820.0944   23818830.9304
  -7961926.071 9  -6008234.85446  23647537.844    23647537.1514   23647549.5284
 -16102389.228 9 -12536562.14748  21233009.060    21233008.5944   21233016.5924
 01  3  8  1 17  0.0000000  0  8 30 23  6 26 18 10 22 17             0.000000026
  16018829.655 9  12484239.18846  23993017.713    23993017.9294   23993031.1424
 -18342640.158 9 -14280938.55648  21243243.485    21243243.0994   21243251.5204
 -11499052.380 9  -8933992.78548  20392135.562    20392135.4584   20392142.5934
 -18615744.712 9 -14495304.46247  21805329.702    21805329.8744   21805338.5064
 -16538436.958 9 -12628578.34647  21883503.100    21883502.7374   21883510.9294
  13920209.155 9  10850478.55545  23838142.382    23838141.6784   23838152.5384
  -7984989.851 9  -6026206.56046  23643148.883    23643148.2594   23643160.5634
 -16128932.133 9 -12557244.88648  21227958.080    21227957.6314   21227965.6034
 01  3  8  1 17 30.0000000  0  8 30 23  6 26 18 10 22 17             0.000000026
  16119772.955 9  12562896.05946  24012226.738    24012226.9204   24012240.1344
 -18391482.984 9 -14318997.81848  21233948.995    21233948.5834   21233956.9914
 -11471827.732 9  -8912778.78148  20397316.225    20397316.1424   20397323.2874
 -18642886.804 9 -14516454.05747  21800164.668    21800164.8204   21800173.4534
 -16616295.332 9 -12689247.09247  21868687.058    21868686.7134   21868694.8494
  14021816.739 9  10929653.31045  23857477.760    23857477.1724   23857487.7354
  -8007534.321 9  -6043773.62346  23638858.766    23638858.1394   23638870.3444
 -16155327.061 9 -12577812.31948  21222935.229    21222934.7684   21222942.7504
 01  3  8  1 18  0.0000000  0  8 30 23  6 26 18 10 22 17             0.000000025
  16220708.181 9  12641546.66745  24031434.182    24031434.3344   24031447.6544
 -18439904.809 9 -14356729.02348  21224734.550    21224734.1434   21224742.5234
 -11444116.605 9  -8891185.69148  20402589.481    20402589.3814   20402596.5234
 -18669450.210 9 -14537152.72147  21795109.768    21795109.9294   21795118.5144
 -16693799.857 9 -12749640.11247  21853938.360    21853938.0044   21853946.1324
  14123494.584 9  11008882.73845  23876826.467    23876825.8284   23876836.5264
  -8029558.353 9  -6060935.13446  23634667.704    23634667.0314   23634679.2724
 -16181573.391 9 -12598263.95448  21217940.670    21217940.2364   21217948.1894
 01  3  8  1 18 30.0000000  0  8 30 23  6 26 18 10 22 17             0.000000025
  16321632.135 8  12720188.48145  24050639.512    24050639.7584   24050653.1384
 -18487905.870 9 -14394132.37248  21215600.147    21215599.7564   21215608.1144
 -11415919.270 9  -8869213.74548  20407955.270    20407955.1674   20407962.3174
 -18695433.484 9 -14557399.35947  21790165.259    21790165.4124   21790173.9584
 -16770949.761 9 -12809756.80848  21839257.123    21839256.7774   21839264.8834
  14225239.602 8  11088164.54945  23896187.885    23896187.3044   23896197.9044
  -8051061.901 9  -6077691.06546  23630575.678    23630575.0134   23630587.2434
 -16207671.782 9 -12618600.32148  21212974.255    21212973.8344   21212981.8154
 01  3  8  1 19  0.0000000  0  8 30 23  6 26 18 10 22 17             0.000000025
  16422542.163 9  12798819.43445  24069842.140    24069842.4844   24069855.9424
 -18535485.341 9 -14431207.19848  21206546.028    21206545.6344   21206553.9654
 -11387235.236 9  -8846862.55048  20413413.645    20413413.5384   20413420.6884
 -18720834.806 9 -14577192.51047  21785331.439    21785331.5794   21785340.1914
 -16847743.227 9 -12869595.75248  21824643.717    21824643.3944   21824651.4824
  14327050.355 9  11167497.56945  23915561.895    23915561.3014   23915571.9554
  -8072044.432 9  -6094041.01646  23626582.789    23626582.0884   23626594.3204
 -16233621.731 9 -12638821.01348  21208036.110    21208035.6734   21208043.6594
 01  3  8  1 19 30.0000000  0  9 30 21 23  6 26 18 10 22 17          0.000000040
  16523432.675 8  12877435.19045  24089041.157    24089041.4034   24089054.9624
  -2620073.922 8  -2027680.55845  24907111.604    24907111.3674   24907130.5564
 -18582645.698 9 -14467955.44248  21197571.644    21197571.2474   21197579.5744
 -11358067.224 9  -8824134.23248  20418964.125    20418964.0254   20418971.1744
 -18745655.389 9 -14596533.14447  21780608.173    21780608.3094   21780616.9344
 -16924182.291 9 -12929158.54948  21810097.739    21810097.4144   21810105.4944
  14428921.730 9  11246877.85545  23934947.422    23934946.9004   23934957.3284
  -8092509.291 9  -6109987.59346  23622688.407    23622687.7134   23622699.9464
 -16259426.361 9 -12658928.46648  21203125.641    21203125.2024   21203133.1684
 01  3  8  1 20  0.0000000  0  9 30 21 23  6 26 18 10 22 17          0.000000034
  16624297.120 8  12956030.62645  24108235.149    24108235.4264   24108249.0024
  -2710175.553 8  -2097889.07845  24889965.456    24889965.0874   24889984.2564
 -18629390.332 9 -14504379.75048  21188676.374    21188675.9854   21188684.2814
 -11328418.726 9  -8801031.50848  20424606.036    20424605.9694   20424613.1164
 -18769896.970 9 -14615422.59447  21775995.030    21775995.1624   21776003.8374
 -17000268.743 9 -12988446.57348  21795618.862    21795618.5374   21795626.6224
  14530847.928 9  11326300.84445  23954343.381    23954342.8734   23954353.3874
  -8112459.736 9  -6125533.31946  23618891.821    23618891.2024   23618903.3724
 -16285089.123 9 -12678925.37848  21198242.156    21198241.7134   21198249.6564
 01  3  8  1 20 30.0000000  0  9 30 21 23  6 26 18 10 22 17          0.000000030
  16725143.769 8  13034612.17945  24127425.757    24127425.9804   24127439.5984
  -2800124.036 8  -2167978.23745  24872848.415    24872847.9274   24872867.1124
 -18675708.257 9 -14540471.55748  21179862.304    21179861.9174   21179870.1804
 -11298279.019 9  -8777546.02748  20430341.444    20430341.3694   20430348.5444
 -18793547.207 9 -14633851.25347  21771494.449    21771494.6284   21771503.2884
 -17075991.045 9 -13047450.84948  21781209.304    21781209.0034   21781217.0354
  14632837.271 8  11405773.03545  23973751.327    23973750.6684   23973761.2874
  -8131884.469 9  -6140669.40746  23615195.360    23615194.7314   23615206.8954
 -16310599.197 9 -12698803.31048  21193387.716    21193387.2734   21193395.2004
 01  3  8  1 21  0.0000000  0  9 30 21 23  6 26 18 10 22 17          0.000000028
  16825966.867 9  13113175.40045  24146611.909    24146612.1484   24146625.8844
  -2889920.467 8  -2237948.93045  24855760.292    24855759.9964   24855779.0204
 -18721601.927 9 -14576232.77348  21171128.967    21171128.5834   21171136.8304
 -11267650.733 9  -8753679.83248  20436169.824    20436169.7344   20436176.9104
 -18816607.369 9 -14651820.11047  21767106.207    21767106.3864   21767114.9864
 -17151350.642 9 -13106172.48748  21766868.772    21766868.4414   21766876.4574
  14734885.151 9  11485290.86845  23993170.432    23993169.7554   23993180.4734
  -8150786.096 9  -6155397.88146  23611598.460    23611597.7714   23611610.0174
 -16335959.335 9 -12718564.40548  21188561.811    21188561.3644   21188569.2874
 01  3  8  1 21 30.0000000  0  9 30 21 23  6 26 18 10 22 17          0.000000027
  16926763.363 9  13191717.86945  24165793.023    24165793.1704   24165807.0624
  -2979564.590 8  -2307800.93045  24838701.215    24838700.9454   24838719.7934
 -18767071.284 9 -14611663.35748  21162476.337    21162475.9734   21162484.2144
 -11236534.248 9  -8729433.21848  20442091.073    20442090.9854   20442098.1684
 -18839076.323 9 -14669328.28447  21762830.467    21762830.6264   21762839.1744
 -17226346.707 9 -13164610.85348  21752597.396    21752597.0804   21752605.0534
  14836988.940 9  11564852.23745  24012600.146    24012599.5044   24012610.2184
  -8169165.153 9  -6169719.15146  23608101.016    23608100.3334   23608112.5184
 -16361170.122 9 -12738209.12548  21183764.324    21183763.8864   21183771.7884
 01  3  8  1 22  0.0000000  0  9 30 21 23  6 26 18 10 22 17          0.000000026
  17027529.649 9  13270236.83045  24184968.417    24184968.5654   24184982.5574
  -3069055.557 8  -2377533.59845  24821671.246    24821670.9664   24821689.7004
 -18812116.907 9 -14646763.76448  21153904.393    21153904.0174   21153912.2584
 -11204930.212 9  -8704806.70148  20448105.119    20448105.0414   20448112.2214
 -18860953.332 9 -14686375.20847  21758667.334    21758667.4984   21758676.0114
 -17300978.834 9 -13222765.63948  21738395.254    21738394.9434   21738402.8744
  14939145.763 9  11644454.93545  24032039.958    24032039.4054   24032049.9794
  -8187022.719 9  -6183634.07446  23604702.772    23604702.0354   23604714.2334
 -16386232.333 9 -12757738.07248  21178995.085    21178994.6474   21179002.5274
 01  3  8  1 22 30.0000000  0  9 30 21 23  6 26 18 10 22 17          0.000000025
  17128262.472 9  13348729.68945  24204137.407    24204137.6134   24204151.6094
  -3158393.365 8  -2447146.89645  24804670.355    24804669.9964   24804688.9384
 -18856739.312 9 -14681534.39148  21145412.950    21145412.5764   21145420.8094
 -11172839.244 9  -8679800.75748  20454211.794    20454211.7344   20454218.9184
 -18882237.431 9 -14702960.13247  21754617.051    21754617.2024   21754625.6814
 -17375246.442 9 -13280636.37948  21724262.489    21724262.1774   21724270.0914
  15041352.578 9  11724096.60246  24051489.350    24051488.7114   24051499.4334
  -8204359.356 9  -6197143.07446  23601403.672    23601402.9694   23601415.0994
 -16411146.401 9 -12777151.58548  21174254.059    21174253.6194   21174261.5074
 01  3  8  1 23  0.0000000  0  9 30 21 23  6 26 18 10 22 17          0.000000023
  17228958.103 9  13427193.57645  24223299.376    24223299.5984   24223313.6494
  -3247577.499 8  -2516640.45745  24787698.673    24787698.3354   24787717.5104
 -18900939.223 9 -14715975.80448  21137001.927    21137001.5484   21137009.7644
 -11140262.155 9  -8654416.02048  20460411.037    20460410.9924   20460418.1344
 -18902928.220 9 -14719082.74147  21750679.684    21750679.7884   21750688.2224
 -17449149.402 9 -13338222.98048  21710199.115    21710198.7924   21710206.6884
  15143606.510 9  11803774.96046  24070947.689    24070946.9704   24070957.7764
  -8221175.362 9  -6210246.39546  23598203.650    23598202.9744   23598215.0974
 -16435913.348 9 -12796450.46148  21169541.003    21169540.5524   21169548.4544
 01  3  8  1 23 30.0000000  0  9 30 21 23  6 26 18 10 22 17          0.000000025
  17329616.205 9  13505628.21545  24242454.201    24242454.4374   24242468.4114
  -3336604.189 8  -2586011.31445  24770756.998    24770756.7634   24770775.6314
 -18944714.108 9 -14750086.02348  21128671.810    21128671.4354   21128679.6184
 -11107196.695 9  -8628650.72748  20466703.181    20466703.1164   20466710.2964
 -18923021.749 9 -14734739.94547  21746855.927    21746856.0554   21746864.4134
 -17522684.076 9 -13395522.60448  21696205.801    21696205.5004   21696213.3814
  15245907.681 9  11883490.14246  24090414.988    24090414.2634   24090425.0724
  -8237468.629 9  -6222942.38646  23595103.097    23595102.4604   23595114.4844
 -16460530.814 9 -12815632.85748  21164856.413    21164855.9954   21164863.8494
 01  3  8  1 24  0.0000000  0  9 30 21 23  6 26 18 10 22 17          0.000000024
  17430232.227 9  13584030.06045  24261601.009    24261601.2334   24261615.2564
  -3425473.700 8  -2655259.67845  24753845.184    24753845.2204   24753863.8554
 -18988065.526 9 -14783866.26948  21120422.263    21120421.8764   21120430.0314
 -11073644.580 9  -8602506.22348  20473087.892    20473087.8364   20473095.0324
 -18942518.278 9 -14749931.96047  21743145.803    21743145.9244   21743154.2504
 -17595851.140 9 -13452535.77948  21682282.473    21682282.1394   21682290.0164
  15348252.412 9  11963239.25646  24109890.574    24109889.8504   24109900.7174
  -8253241.060 9  -6235232.52946  23592101.678    23592100.9984   23592112.9954
 -16485000.394 9 -12834700.01548  21160200.009    21160199.5594   21160207.3994
 01  3  8  1 24 30.0000000  0  9 30 21 23  6 26 18 10 22 17          0.000000024
  17530804.698 9  13662397.97445  24280739.497    24280739.8034   24280753.7744
  -3514184.172 8  -2724384.12045  24736963.665    24736963.6084   24736982.2874
 -19030992.250 9 -14817315.58048  21112253.512    21112253.1224   21112261.2894
 -11039604.797 9  -8575981.71448  20479565.441    20479565.3824   20479572.6064
 -18961415.314 9 -14764656.82647  21739549.752    21739549.8544   21739558.1784
 -17668648.429 9 -13509260.81048  21668429.518    21668429.2094   21668437.0224
  15450639.737 9  12043021.58646  24129374.237    24129373.5424   24129384.3244
  -8268491.892 9  -6247116.23246  23589199.479    23589198.8584   23589210.7924
 -16509320.965 9 -12853651.06048  21155571.905    21155571.4634   21155579.2784
 01  3  8  1 25  0.0000000  0  9 30 21 23  6 26 18 10 22 17          0.000000023
  17631331.310 9  13740730.15545  24299869.297    24299869.6604   24299883.6734
  -3602734.192 8  -2793383.54145  24720112.729    24720112.5034   24720131.0674
 -19073493.484 9 -14850433.34548  21104165.718    21104165.3304   21104173.4834
 -11005076.912 9  -8549076.87348  20486135.915    20486135.8734   20486143.0614
 -18979711.056 9 -14778913.17047  21736068.063    21736068.2134   21736076.5004
 -17741074.250 9 -13565696.39048  21654647.273    21654646.9304   21654654.7374
  15553067.886 9  12122835.70546  24148865.657    24148864.9594   24148875.8014
  -8283220.308 9  -6258592.86346  23586396.683    23586396.0384   23586408.0444
 -16533491.992 9 -12872485.58548  21150972.277    21150971.8374   21150979.6444
 01  3  8  1 25 30.0000000  0  9 30 21 23  6 26 18 10 22 17          0.000000023
  17731807.259 9  13819022.86345  24318989.373    24318989.7444   24319003.8504
  -3691124.069 8  -2862258.16945  24703292.395    24703292.1574   24703310.4864
 -19115571.201 9 -14883221.10248  21096158.520    21096158.1444   21096166.2934
 -10970063.169 9  -8521793.44448  20492798.790    20492798.7514   20492805.9404
 -18997406.218 9 -14792701.52047  21732700.709    21732700.8444   21732709.1064
 -17813129.556 9 -13621843.26048  21640935.543    21640935.1934   21640942.9624
  15655532.786 9  12202678.46146  24168364.153    24168363.4104   24168374.2854
  -8297428.258 9  -6269663.93546  23583692.909    23583692.2504   23583704.2654
 -16557515.583 9 -12891205.22748  21146400.708    21146400.2724   21146408.0664
 01  3  8  1 26  0.0000000  0  9 30 21 23  6 26 18 10 22 17          0.000000022
  17832230.906 9  13897274.80145  24338099.545    24338099.8444   24338114.0524
  -3779351.800 8  -2931006.44345  24686502.828    24686502.5014   24686520.6954
 -19157224.125 9 -14915677.84248  21088232.166    21088231.8014   21088239.9174
 -10934562.533 9  -8494130.61148  20499554.345    20499554.2844   20499561.4784
 -19014498.429 9 -14806020.04147  21729448.085    21729448.2564   21729456.4704
 -17884812.171 9 -13677699.71648  21627294.681    21627294.3464   21627302.0904
  15758033.453 8  12282549.09445  24187869.354    24187868.6974   24187879.5404
  -8311114.903 9  -6280328.79146  23581088.392    23581087.7634   23581099.7094
 -16581390.478 9 -12909808.99248  21141857.417    21141856.9874   21141864.7674
 01  3  8  1 26 30.0000000  0  9 30 21 23  6 26 18 10 22 17          0.000000022
  17932599.559 9  13975483.88245  24357199.244    24357199.5614   24357213.9824
  -3867416.447 8  -2999627.66045  24669744.260    24669743.9824   24669761.9474
 -19198452.534 9 -14947803.79548  21080386.611    21080386.2334   21080394.3304
 -10898575.495 9  -8466088.76748  20506402.453    20506402.3734   20506409.5834
 -19030986.650 9 -14818867.92347  21726310.428    21726310.5794   21726318.7544
 -17956121.181 9 -13733265.05648  21613724.943    21613724.6204   21613732.3374
  15860567.485 8  12362445.72345  24207380.960    24207380.1804   24207391.0464
  -8324281.115 9  -6290588.11646  23578582.914    23578582.3274   23578594.1964
 -16605116.663 9 -12928296.88748  21137342.439    21137342.0134   21137349.7854
 01  3  8  1 27  0.0000000  0  9 30 21 23  6 26 18 10 22 17          0.000000021
  18032911.280 9  14053648.59645  24376288.102    24376288.4774   24376302.8574
  -3955316.177 8  -3068120.38645  24653017.033    24653016.7824   24653034.5484
 -19239255.548 9 -14979598.28248  21072622.002    21072621.6184   21072629.6734
 -10862101.242 9  -8437667.28048  20513343.268    20513343.2184   20513350.4104
 -19046868.543 9 -14831243.34247  21723288.119    21723288.2614   21723296.4274
 -18027054.777 9 -13788537.87148  21600226.614    21600226.3054   21600234.0004
  15963133.789 8  12442367.48645  24226898.528    24226897.8384   24226908.8364
  -8336926.116 9  -6300441.30246  23576176.600    23576175.9234   23576187.8854
 -16628693.295 9 -12946668.25148  21132855.932    21132855.5094   21132863.2564
 01  3  8  1 27 30.0000000  0  9 30 21 23  6 26 18 10 22 17          0.000000021
  18133163.326 8  14131766.82345  24395365.633    24395365.9394   24395380.5294
  -4043050.211 8  -3136484.00545  24636321.375    24636321.1014   24636338.8494
 -19279633.473 9 -15011061.52448  21064938.277    21064937.9074   21064945.9254
 -10825140.307 9  -8408866.55748  20520376.722    20520376.6694   20520383.8584
 -19062143.537 9 -14843145.86147  21720381.325    21720381.5134   21720389.6234
 -18097612.231 9 -13843517.58948  21586799.870    21586799.5604   21586807.2514
  16065730.016 8  12522312.57245  24246421.922    24246421.2314   24246432.2854
  -8349049.893 9  -6309888.34346  23573869.412    23573868.7504   23573880.7324
 -16652120.753 9 -12964923.37148  21128397.810    21128397.3954   21128405.1284
 01  3  8  1 28  0.0000000  0  9 30 21 23  6 26 18 10 22 17          0.000000021
  18233351.469 8  14209835.25445  24414430.999    24414431.4114   24414445.8504
  -4130618.378 9  -3204718.40445  24619657.254    24619657.0174   24619674.5594
 -19319587.198 9 -15042194.21348  21057335.262    21057334.8914   21057342.9044
 -10787694.010 9  -8379687.61848  20527502.536    20527502.4664   20527509.6544
 -19076811.254 9 -14854575.17047  21717590.119    21717590.2854   21717598.3514
 -18167793.648 9 -13898204.28248  21573444.715    21573444.4154   21573452.0774
  16168353.030 8  12602278.52345  24265950.391    24265949.6234   24265960.7164
  -8360653.802 9  -6318930.28946  23571661.229    23571660.5504   23571672.5494
 -16675400.088 9 -12983063.06048  21123967.850    21123967.4524   21123975.1374
 01  3  8  1 28 30.0000000  0  9 30 21 23  6 26 18 10 22 17          0.000000020
  18333473.763 8  14287852.34945  24433483.830    24433484.0514   24433498.7224
  -4218019.029 9  -3272822.28345  24603025.026    24603024.7414   24603042.2314
 -19359116.104 9 -15072995.87748  21049813.118    21049812.7384   21049820.7424
 -10749761.788 9  -8350130.04148  20534720.767    20534720.7094   20534727.8924
 -19090870.058 9 -14865530.00447  21714914.768    21714914.9084   21714922.9644
 -18237597.304 9 -13952596.62348  21560161.404    21560161.0914   21560168.7524
  16271001.600 8  12682264.40945  24285483.795    24285483.0294   24285494.2504
  -8371737.809 9  -6327567.12646  23569552.010    23569551.2504   23569563.3094
 -16698530.403 9 -13001086.63348  21119566.278    21119565.8594   21119573.5624
 01  3  8  1 29  0.0000000  0  9 30 21 23  6 26 18 10 22 17          0.000000020
  18433527.677 8  14365816.17745  24452523.636    24452523.8804   24452538.5964
  -4305250.857 9  -3340794.63345  24586424.969    24586424.7134   24586441.9614
 -19398220.278 9 -15103466.59148  21042371.777    21042371.3994   21042379.3684
 -10711343.989 9  -8320194.09848  20542031.445    20542031.3884   20542038.5694
 -19104318.722 9 -14876009.40947  21712355.482    21712355.6494   21712363.7204
 -18307022.071 9 -14006693.73048  21546950.209    21546949.8974   21546957.5544
  16373673.711 8  12762268.65145  24305021.671    24305021.0254   24305032.1004
  -8382302.395 9  -6335799.21046  23567541.613    23567540.9014   23567552.8754
 -16721511.750 9 -13018994.13648  21115193.020    21115192.6164   21115200.3094
 01  3  8  1 29 30.0000000  0  9 30 21 23  6 26 18 10 22 17          0.000000020
  18533511.017 8  14443725.01145  24471550.092    24471550.2874   24471565.1244
  -4392312.015 9  -3408634.01545  24569857.425    24569857.1834   24569874.2994
 -19436899.070 9 -15133605.84048  21035011.399    21035011.0254   21035018.9734
 -10672440.273 9  -8289879.52148  20549434.554    20549434.4824   20549441.6904
 -19117155.707 9 -14886012.18847  21709912.606    21709912.7904   21709920.8874
 -18376066.609 9 -14060494.55748  21533811.387    21533811.0734   21533818.6784
  16476367.753 8  12842289.96645  24324563.640    24324563.0954   24324574.0614
  -8392347.006 9  -6343626.12146  23565630.174    23565629.4744   23565641.4024
 -16744343.390 9 -13036784.98448  21110848.262    21110847.8544   21110855.5324
 01  3  8  1 30  0.0000000  0  9 30 21 23  6 26 18 10 22 17          0.000000020
  18633420.582 8  14521576.37045  24490562.463    24490562.7154   24490577.4224
  -4479202.124 9  -3476340.12645  24553322.369    24553322.1694   24553339.1274
 -19475153.271 9 -15163414.22948  21027731.782    21027731.4154   21027739.3564
 -10633051.522 9  -8259186.98648  20556930.017    20556929.9444   20556937.1454
 -19129380.605 9 -14895538.00347  21707586.169    21707586.3714   21707594.5174
 -18444730.690 9 -14113998.91848  21520744.954    21520744.6694   21520752.2434
  16579081.219 8  12922326.42745  24344109.396    24344108.7644   24344119.7534
  -8401872.315 9  -6351048.37346  23563817.522    23563816.8204   23563828.7784
 -16767025.908 9 -13054459.62148  21106531.878    21106531.4924   21106539.1584
 01  3  8  1 30 30.0000000  0  9 30 21 23  6 26 18 10 22 17          0.000000020
  18733253.862 8  14599368.26645  24509560.306    24509560.5644   24509575.3154
  -4565920.224 9  -3543912.20345  24536820.144    24536819.8744   24536836.6664
 -19512982.729 9 -15192891.65449  21020533.016    21020532.6384   21020540.5654
 -10593177.980 9  -8228116.69348  20564517.693    20564517.6214   20564524.8154
 -19140992.115 9 -14904585.85647  21705376.520    21705376.7214   21705384.8874
 -18513013.089 9 -14167205.86448  21507751.140    21507750.8444   21507758.4084
  16681812.062 8  13002376.40145  24363658.399    24363657.7314   24363668.8964
  -8410878.573 9  -6358066.18346  23562103.654    23562102.8564   23562114.8754
 -16789559.157 9 -13072017.95048  21102243.919    21102243.5114   21102251.1714
 01  3  8  1 31  0.0000000  0  9 30 21 23  6 26 18 10 22 17          0.000000020
  18833008.980 8  14677099.25645  24528543.241    24528543.4924   24528558.4084
  -4652464.257 9  -3611348.66845  24520351.025    24520350.6854   24520367.3724
 -19550386.431 9 -15222037.32749  21013415.257    21013414.8864   21013422.7984
 -10552819.035 9  -8196668.17148  20572197.742    20572197.6644   20572204.8574
 -19151988.228 9 -14913154.18647  21703283.936    21703284.1394   21703292.3384
 -18580911.878 9 -14220113.90848  21494830.340    21494830.0394   21494837.5554
  16784559.220 8  13082439.12445  24383210.490    24383209.8954   24383221.0444
  -8419365.633 9  -6364679.41946  23560488.575    23560487.7844   23560499.7864
 -16811942.063 9 -13089459.13148  21097984.547    21097984.1404   21097991.7964
 01  3  8  1 31 30.0000000  0  9 30 21 23  6 26 18 10 22 17          0.000000020
  18932682.053 8  14754766.31945  24547510.565    24547510.8514   24547525.8584
  -4738834.626 9  -3678649.82545  24503914.895    24503914.5544   24503931.0384
 -19587366.113 9 -15250852.59249  21006378.207    21006377.8374   21006385.7344
 -10511976.479 9  -8164842.80448  20579969.838    20579969.7434   20579976.9224
 -19162369.591 9 -14921243.48647  21701308.417    21701308.5974   21701316.7364
 -18648427.755 9 -14272723.56848  21481982.413    21481982.1034   21481989.5824
  16887319.378 8  13162511.97945  24402765.206    24402764.6074   24402775.6864
  -8427335.482 9  -6370889.62946  23558971.833    23558971.1044   23558983.1764
 -16834176.010 9 -13106784.23548  21093753.535    21093753.1294   21093760.7844
 01  3  8  1 32  0.0000000  0  9 30 21 23  6 26 18 10 22 17          0.000000020
  19032271.501 8  14832368.20745  24566461.993    24566462.4124   24566477.3424
  -4825029.652 8  -3745814.33645  24487512.197    24487511.7694   24487528.1564
 -19623920.710 9 -15279336.62749  20999422.069    20999421.7034   20999429.5754
 -10470649.375 9  -8132639.87048  20587834.148    20587834.0694   20587841.2214
 -19172133.885 9 -14928851.95447  21699450.317    21699450.5234   21699458.6144
 -18715558.515 9 -14325033.14848  21469207.791    21469207.4874   21469214.9164
  16990091.683 9  13242594.28245  24422322.097    24422321.5094   24422332.5784
  -8434786.990 9  -6376695.94046  23557553.826    23557553.1964   23557565.0694
 -16856259.666 9 -13123992.22848  21089551.081    21089550.6884   21089558.3354
 01  3  8  1 32 30.0000000  0  9 30 21 23  6 26 18 10 22 17          0.000000019
  19131773.817 8  14909902.20145  24585396.876    24585397.2644   24585412.2984
  -4911048.469 8  -3812841.57245  24471143.004    24471142.5804   24471158.6564
 -19660051.199 9 -15307490.18249  20992546.589    20992546.2134   20992554.0564
 -10428839.143 9  -8100060.46748  20595790.355    20595790.2714   20595797.4184
 -19181281.334 9 -14935979.75547  21697709.559    21697709.7584   21697717.7934
 -18782304.109 9 -14377042.59548  21456506.443    21456506.1504   21456513.5204
  17092873.299 9  13322683.88845  24441880.864    24441880.3294   24441891.1854
  -8441721.132 9  -6382099.10446  23556234.252    23556233.6294   23556245.4634
 -16878193.808 9 -13141083.71648  21085377.120    21085376.7274   21085384.3714
 01  3  8  1 33  0.0000000  0  9 30 21 23  6 26 18 10 22 17          0.000000019
  19231186.755 8  14987366.54545  24604314.739    24604315.0474   24604330.2044
  -4996890.022 8  -3879730.66245  24454807.613    24454807.2604   24454823.0104
 -19695757.366 9 -15335313.09949  20985751.870    20985751.5074   20985759.3254
 -10386545.708 9  -8067104.54348  20603838.510    20603838.4304   20603845.5804
 -19189810.565 9 -14942625.83247  21696086.447    21696086.6624   21696094.6814
 -18848663.612 9 -14428751.19648  21443878.576    21443878.2924   21443885.6234
  17195662.323 9  13402779.25845  24461441.038    24461440.3284   24461451.4564
  -8448138.445 9  -6387099.55046  23555013.085    23555012.4344   23555024.2414
 -16899977.910 9 -13158058.29248  21081231.705    21081231.3074   21081238.9454
 01  3  8  1 33 30.0000000  0  9 30 21 23  6 26 18 10 22 17          0.000000019
  19330508.888 8  15064760.12945  24623215.303    24623215.5424   24623231.0104
  -5082552.234 8  -3946480.01445  24438506.292    24438505.7864   24438521.6634
 -19731038.271 9 -15362804.64349  20979038.080    20979037.7054   20979045.5144
 -10343768.615 9  -8033771.74648  20611978.696    20611978.6444   20611985.8014
 -19197719.725 9 -14948788.73847  21694581.369    21694581.5544   21694589.5194
 -18914634.946 9 -14480157.33248  21431324.546    21431324.2534   21431331.5494
  17298457.981 9  13482879.81345  24481002.417    24481001.8054   24481012.8264
  -8454038.734 9  -6391697.12646  23553890.283    23553889.6224   23553901.3074
 -16921610.769 9 -13174915.01848  21077115.062    21077114.6674   21077122.2834
 01  3  8  1 34  0.0000000  0  9 30 21 23  6 26 18 10 22 17          0.000000019
  19429736.735 8  15142080.24645  24642097.953    24642098.2314   24642113.5844
  -5168034.986 8  -4013089.53645  24422239.049    24422238.5674   24422254.3774
 -19765895.133 9 -15389965.76649  20972404.997    20972404.6274   20972412.4214
 -10300509.088 9  -8000063.02848  20620210.695    20620210.6454   20620217.8094
 -19205008.900 9 -14954468.53147  21693194.195    21693194.3944   21693202.3344
 -18980218.036 9 -14531260.93448  21418844.432    21418844.1334   21418851.4114
  17401257.504 9  13562983.40345  24500564.538    24500563.8234   24500574.7464
  -8459423.398 9  -6395892.90446  23552865.532    23552864.8204   23552876.5574
 -16943093.356 9 -13191654.64848  21073027.042    21073026.6374   21073034.2484
 01  3  8  1 34 30.0000000  0  9 30 21 23  6 26 18 10 22 17          0.000000019
  19528868.356 8  15219325.36845  24660962.263    24660962.5014   24660977.7954
  -5253336.115 8  -4079557.52445  24406006.407    24406005.8454   24406021.7174
 -19800327.033 9 -15416795.75149  20965852.760    20965852.3934   20965860.1604
 -10256766.564 9  -7965977.95148  20628534.653    20628534.5834   20628541.7534
 -19211676.183 9 -14959663.73847  21691925.442    21691925.6134   21691933.5174
 -19045411.332 9 -14582060.80848  21406438.494    21406438.1914   21406445.4534
  17504060.220 9  13643089.49245  24520127.168    24520126.4094   24520137.4834
  -8464291.219 9  -6399685.95246  23551939.149    23551938.4724   23551950.2294
 -16964424.517 9 -13208276.28948  21068967.828    21068967.4074   21068975.0164
 01  3  8  1 35  0.0000000  0  9 30 21 23  6 26 18 10 22 17          0.000000018
  19627899.617 8  15296492.28145  24679807.459    24679807.7244   24679823.1314
  -5338456.717 8  -4145884.82045  24389808.108    24389807.7184   24389823.3234
 -19834336.067 9 -15443296.22749  20959381.008    20959380.6334   20959388.3974
 -10212543.455 9  -7931518.38848  20636950.008    20636949.9574   20636957.1164
 -19217722.835 9 -14964375.34047  21690774.738    21690774.9204   21690782.7834
 -19110215.670 9 -14632557.59448  21394106.551    21394106.2594   21394113.4744
  17606862.190 9  13723194.95445  24539689.727    24539689.0964   24539700.1224
  -8468644.761 9  -6403078.26346  23551110.670    23551109.9964   23551121.7144
 -16985605.685 9 -13224781.04548  21064937.151    21064936.7384   21064944.3494
 01  3  8  1 35 30.0000000  0  9 30 21 23  6 26 18 10 22 17          0.000000019
  19726829.942 8  15373580.53445  24698633.425    24698633.5814   24698649.3024
  -5423393.839 8  -4212069.16645  24373644.671    24373644.2884   24373659.7634
 -19867920.466 9 -15469465.82049  20952990.052    20952989.6774   20952997.4544
 -10167838.320 9  -7896683.22248  20645457.137    20645457.0874   20645464.2504
 -19223145.971 9 -14968601.08947  21689742.692    21689742.8544   21689750.7094
 -19174628.297 9 -14682749.15348  21381849.160    21381848.8644   21381856.0434
  17709663.734 9  13803300.07245  24559252.270    24559251.6644   24559262.5744
  -8472482.977 9  -6406069.03246  23550380.247    23550379.5514   23550391.2094
 -17006634.952 9 -13241167.44348  21060935.362    21060934.9584   21060942.5414
 01  3  8  1 36  0.0000000  0  9 30 21 23  6 26 18 10 22 17          0.000000019
  19825655.908 8  15450587.46745  24717439.708    24717439.9624   24717455.4884
  -5508146.932 8  -4278110.08445  24357516.332    24357515.8044   24357531.5144
 -19901081.444 9 -15495305.47849  20946679.646    20946679.2764   20946687.0454
 -10122652.311 9  -7861473.35048  20654055.739    20654055.7154   20654062.8584
 -19227945.813 9 -14972341.14847  21688829.211    21688829.3764   21688837.2034
 -19238649.192 9 -14732635.47248  21369666.300    21369666.0084   21369673.1744
  17812461.615 8  13883402.35345  24578814.103    24578813.3724   24578824.3634
  -8475807.601 9  -6408659.58846  23549747.537    23549746.8004   23549758.5634
 -17027513.150 9 -13257436.12548  21056962.366    21056961.9494   21056969.5014
 01  3  8  1 36 30.0000000  0  9 30 21 23  6 26 18 10 22 17          0.000000019
  19924374.346 9  15527510.62245  24736225.468    24736225.8174   24736241.1844
  -5592715.770 8  -4344007.45045  24341423.098    24341422.6744   24341438.2704
 -19933819.523 9 -15520815.59949  20940449.752    20940449.3794   20940457.1394
 -10076986.478 9  -7825889.58848  20662745.650    20662745.6094   20662752.7854
 -19232122.045 9 -14975595.28647  21688034.420    21688034.6174   21688042.3794
 -19302278.199 9 -14782216.42148  21357558.051    21357557.7514   21357564.8894
  17915253.753 8  13963500.14845  24598374.787    24598374.0104   24598384.8584
  -8478619.397 9  -6410850.54346  23549212.438    23549211.7004   23549223.4244
 -17048240.332 9 -13273587.13448  21053018.099    21053017.6694   21053025.2164
 01  3  8  1 37  0.0000000  0  9 30 21 23  6 26 18 10 22 17          0.000000019
  20022983.778 8  15604348.86245  24754990.481    24754990.7954   24755005.9764
  -5677098.314 8  -4409759.64545  24325365.297    24325364.8214   24325380.4844
 -19966133.876 9 -15545995.54749  20934300.464    20934300.0964   20934307.8364
 -10030840.408 9  -7789931.62048  20671526.966    20671526.9304   20671534.1134
 -19235673.016 9 -14978362.20147  21687358.703    21687358.8544   21687366.5604
 -19365513.408 9 -14831490.50948  21345524.694    21345524.3814   21345531.5094
  18018039.266 8  14043592.76845  24617934.122    24617933.4094   24617944.4304
  -8480917.483 9  -6412641.20746  23548775.123    23548774.3434   23548786.0714
 -17068815.315 9 -13289619.54548  21049102.752    21049102.3404   21049109.8644
 01  3  8  1 37 30.0000000  0  9 30 21 23  6 26 18 10 22 17          0.000000019
  20121480.816 8  15681099.51845  24773734.075    24773734.3904   24773749.4774
  -5761294.220 8  -4475366.41745  24309343.039    24309342.6034   24309358.0314
 -19998025.714 9 -15570846.26049  20928231.620    20928231.2474   20928238.9544
  -9984215.477 9  -7753600.50748  20680399.392    20680399.3274   20680406.5104
 -19238598.968 9 -14980642.08747  21686801.872    21686802.0194   21686809.7334
 -19428354.882 9 -14880457.79548  21333566.293    21333566.0004   21333573.0954
  18120815.521 8  14123678.18845  24637491.789    24637491.0504   24637502.0754
  -8482703.625 9  -6414032.95646  23548435.134    23548434.3084   23548446.0824
 -17089238.778 9 -13305533.88848  21045216.276    21045215.8504   21045223.3654
 01  3  8  1 38  0.0000000  0  9 30 21 23  6 26 18 10 22 17          0.000000018
  20219863.099 8  15757760.74945  24792455.805    24792456.2194   24792471.0384
  -5845303.201 9  -4540827.54745  24293356.419    24293355.9214   24293371.3284
 -20029495.361 9 -15595367.99349  20922243.098    20922242.7134   20922250.4094
  -9937112.389 9  -7716896.80348  20689362.838    20689362.7624   20689369.9404
 -19240899.339 9 -14982434.50947  21686364.065    21686364.2034   21686371.9404
 -19490801.804 9 -14929117.63248  21321682.994    21321682.6864   21321689.7354
  18223580.896 7  14203755.09445  24657047.250    24657046.4334   24657057.5304
  -8483978.947 9  -6415026.66346  23548192.381    23548191.6064   23548203.3054
 -17109510.401 9 -13321329.91048  21041358.666    21041358.2414   21041365.7374
 01  3  8  1 38 30.0000000  0  9 30 21 23  6 26 18 10 22 17          0.000000018
  20318130.264 8  15834332.26145  24811155.600    24811156.0544   24811170.6544
  -5929121.838 9  -4606140.35845  24277405.947    24277405.5224   24277420.8454
 -20060540.881 9 -15619559.24549  20916335.292    20916334.9134   20916342.5634
  -9889529.464 9  -7679819.20748  20698417.563    20698417.5044   20698424.6794
 -19242571.275 9 -14983737.25147  21686045.811    21686045.9834   21686053.7104
 -19552851.385 9 -14977467.86248  21309875.295    21309875.0014   21309882.0174
  18326335.466 7  14283823.58045  24676600.588    24676599.8164   24676611.1664
  -8484741.918 9  -6415621.13746  23548047.078    23548046.2974   23548058.0884
 -17129627.714 9 -13337005.69948  21037530.445    21037530.0214   21037537.5264
 01  3  8  1 39  0.0000000  0  9 30 21 23  6 26 18 10 22 17          0.000000019
  20416277.044 8  15910809.94845  24829832.531    24829832.9844   24829847.9964
  -6012751.658 9  -4671306.04345  24261491.374    24261491.0104   24261506.0504
 -20091165.345 9 -15643422.39649  20910507.601    20910507.2274   20910514.8544
  -9841470.024 9  -7642370.29648  20707562.987    20707562.9224   20707570.0944
 -19243616.947 9 -14984551.99047  21685846.764    21685846.9314   21685854.6494
 -19614505.595 9 -15025510.00548  21298142.794    21298142.5034   21298149.5024
  18429074.829 7  14363880.23745  24696151.240    24696150.2614   24696161.6354
  -8484995.580 9  -6415818.74346  23547998.819    23547998.0004   23548009.7714
 -17149593.323 9 -13352563.27148  21033731.074    21033730.6524   21033738.1254
 01  3  8  1 39 30.0000000  0  8 21 23  6 26 18 10 22 17             0.000000024
  -6096183.911 9  -4736317.80346  24245614.472    24245614.0824   24245629.1434
 -20121361.173 9 -15666951.54749  20904761.451    20904761.0754   20904768.6814
  -9792926.769 9  -7604544.38548  20716800.437    20716800.3784   20716807.5884
 -19244028.003 9 -14984872.21947  21685768.498    21685768.6654   21685776.3874
 -19675755.927 9 -15073237.44148  21286487.188    21286486.8924   21286493.8694
  18531805.183 8  14443929.84045  24715699.975    24715698.9784   24715710.4394
  -8484732.673 9  -6415613.84046  23548048.801    23548048.0554   23548059.7004
 -17169399.118 9 -13367996.31248  21029962.137    21029961.7114   21029969.1874
 01  3  8  1 40  0.0000000  0  8 21 23  6 26 18 10 22 17             0.000000027
  -6179426.851 9  -4801182.04746  24229773.541    24229773.1884   24229788.0214
 -20151137.894 9 -15690154.12249  20899095.098    20899094.7184   20899102.3104
  -9743909.482 9  -7566349.10348  20726128.119    20726128.0804   20726135.2504
 -19243813.177 9 -14984704.75947  21685809.262    21685809.4374   21685817.2114
 -19736610.891 9 -15120656.79748  21274906.794    21274906.4994   21274913.4384
  18634515.229 8  14523963.65745  24735245.055    24735243.9074   24735255.5124
  -8483963.366 9  -6415014.32946  23548195.096    23548194.4244   23548206.0594
 -17189054.159 9 -13383311.88148  21026221.871    21026221.4504   21026228.9134
 01  3  8  1 40 30.0000000  0  7 21 23  6 26 18 22 17                0.000000019
  -6262478.867 9  -4865897.52846  24213968.956    24213968.5894   24213983.3964
 -20180495.089 9 -15713029.80249  20893508.536    20893508.1754   20893515.7534
  -9694418.076 9  -7527784.37848  20735546.060    20735546.0004   20735553.1744
 -19242971.109 9 -14984048.54247  21685969.434    21685969.6464   21685977.3964
 -19797068.718 9 -15167766.70848  21263401.955    21263401.6634   21263408.5804
  -8482688.148 9  -6414020.61046  23548437.720    23548437.0764   23548448.6774
 -17208557.317 9 -13398509.10948  21022510.507    21022510.0894   21022517.5274
 01  3  8  1 41  0.0000000  0  7 21 23  6 26 18 22 17                0.000000023
  -6345333.656 9  -4930459.33246  24198201.908    24198201.5754   24198216.2944
 -20209427.585 9 -15735574.53949  20888002.799    20888002.4374   20888009.9934
  -9644447.874 9  -7488846.55648  20745055.055    20745054.9974   20745062.1504
 -19241495.868 9 -14982898.93947  21686250.119    21686250.3114   21686258.0364
 -19857123.581 9 -15214562.61248  21251973.829    21251973.5354   21251980.4274
  -8480901.930 9  -6412628.69846  23548777.582    23548776.9414   23548788.5674
 -17227902.885 9 -13413583.53148  21018829.103    21018828.6984   21018836.1354
 01  3  8  1 41 30.0000000  0  7 21 23  6 26 18 22 17                0.000000024
  -6427997.567 9  -4994872.41746  24182471.188    24182470.8744   24182485.5104
 -20237943.076 9 -15757794.33949  20882576.458    20882576.0944   20882583.6304
  -9594006.977 9  -7449541.96348  20754653.639    20754653.5924   20754660.7514
 -19239394.609 9 -14981261.52247  21686649.901    21686650.1154   21686657.8564
 -19916782.132 9 -15261049.69848  21240621.106    21240620.8144   21240627.6994
  -8478612.594 9  -6410844.76846  23549213.239    23549212.5294   23549224.1624
 -17247098.152 9 -13428540.83548  21015176.333    21015175.9274   21015183.3604
 01  3  8  1 42  0.0000000  0  7 21 23  6 26 18 22 17                0.000000026
  -6510466.690 9  -5059133.72846  24166777.528    24166777.2294   24166791.7034
 -20266038.980 9 -15779687.18849  20877229.901    20877229.5554   20877237.0794
  -9543093.142 9  -7409868.84748  20764342.232    20764342.1754   20764349.3564
 -19236663.734 9 -14979133.50647  21687169.541    21687169.7254   21687177.4684
 -19976040.784 9 -15307225.18148  21229344.469    21229344.1814   21229351.0514
  -8475818.027 9  -6408667.12746  23549744.975    23549744.2314   23549755.9344
 -17266139.663 9 -13443378.33048  21011552.789    21011552.4054   21011559.8184
 01  3  8  1 42 30.0000000  0  7 21 23  6 26 18 22 17                0.000000026
  -6592740.187 9  -5123242.61446  24151121.061    24151120.7584   24151135.2394
 -20293716.157 9 -15801253.75949  20871963.080    20871962.7214   20871970.2344
  -9491707.324 9  -7369827.95348  20774120.617    20774120.5764   20774127.7334
 -19233303.383 9 -14976514.98147  21687808.946    21687809.1234   21687816.8824
 -20034899.179 9 -15353088.78048  21218144.026    21218143.7354   21218150.5804
  -8472519.796 9  -6406097.04746  23550372.581    23550371.8374   23550383.4844
 -17285027.578 9 -13458096.14348  21007958.521    21007958.1334   21007965.5464
 01  3  8  1 43  0.0000000  0  7 21 23  6 26 18 22 17                0.000000026
  -6674818.033 9  -5187199.03646  24135501.923    24135501.6504   24135515.9474
 -20320975.359 9 -15822494.63449  20866775.787    20866775.4324   20866782.9234
  -9439850.614 9  -7329420.13348  20783988.649    20783988.5744   20783995.7654
 -19229313.522 9 -14973405.93347  21688568.110    21688568.3164   21688576.0484
 -20093356.953 9 -15398640.20248  21207019.818    21207019.5164   21207026.3444
  -8468719.455 9  -6403135.70346  23551095.704    23551095.0064   23551106.6624
 -17303761.863 9 -13472694.24648  21004393.482    21004393.0814   21004400.4714
 01  3  8  1 43 30.0000000  0  7 21 23  6 26 18 22 17                0.000000026
  -6756696.708 9  -5251000.28945  24119920.664    24119920.4374   24119934.6244
 -20347814.389 9 -15843408.10149  20861668.431    20861668.0784   20861675.5354
  -9387520.997 9  -7288643.81548  20793946.624    20793946.5704   20793953.7644
 -19224691.223 9 -14969804.06647  21689447.692    21689447.8874   21689455.6234
 -20151410.995 9 -15443877.02748  21195972.406    21195972.1244   21195978.9264
  -8464414.714 9  -6399781.33246  23551914.856    23551914.1294   23551925.7304
 -17322339.608 9 -13487170.36648  21000858.219    21000857.8094   21000865.1844
 01  3  8  1 44  0.0000000  0  7 21 23  6 26 18 22 17                0.000000026
  -6838377.886 8  -5314647.65145  24104376.973    24104376.7984   24104390.9174
 -20374236.451 9 -15863996.65549  20856640.458    20856640.0894   20856647.5324
  -9334722.310 9  -7247501.98548  20803993.863    20803993.8054   20804001.0094
 -19219439.111 9 -14965711.44047  21690447.090    21690447.2564   21690454.9484
 -20209063.255 9 -15488800.77348  21185001.470    21185001.1694   21185007.9804
  -8459609.111 9  -6396036.67446  23552829.247    23552828.5664   23552840.1324
 -17340763.494 9 -13501526.59648  20997352.258    20997351.8364   20997359.2054
 01  3  8  1 44 30.0000000  0  7 21 23  6 26 18 22 17                0.000000026
  -6919858.626 8  -5378138.82845  24088871.474    24088871.1824   24088885.2424
 -20400240.000 9 -15884259.09649  20851692.090    20851691.7244   20851699.1644
  -9281453.325 9  -7205993.68948  20814130.628    20814130.5774   20814137.7774
 -19213554.798 9 -14961126.19247  21691566.781    21691566.9614   21691574.6194
 -20266311.361 9 -15533409.60148  21174107.466    21174107.1614   21174113.9264
  -8454301.758 9  -6391901.04346  23553839.161    23553838.5174   23553850.0634
 -17359031.182 9 -13515761.11548  20993875.985    20993875.5624   20993882.9234
 01  3  8  1 45  0.0000000  0  7 21 23  6 26 18 22 17                0.000000026
  -7001139.327 8  -5441474.12745  24073404.048    24073403.7504   24073417.5904
 -20425826.698 9 -15904196.71949  20846823.021    20846822.6554   20846830.0864
  -9227716.020 9  -7164120.46948  20824356.500    20824356.4484   20824363.6404
 -19207039.435 9 -14956049.21547  21692806.583    21692806.7534   21692814.4114
 -20323155.772 9 -15577703.86148  21163290.257    21163289.9494   21163296.7234
  -8448495.327 9  -6387376.50546  23554944.096    23554943.4424   23554954.8914
 -17377143.494 9 -13529874.56348  20990429.287    20990428.8784   20990436.2204
 01  3  8  1 45 30.0000000  0  7 21 23  6 26 18 22 17                0.000000027
  -7082217.808 9  -5504651.86145  24057975.188    24057974.7414   24057988.4724
 -20450996.066 9 -15923809.15249  20842033.416    20842033.0414   20842040.4514
  -9173510.111 9  -7121882.10348  20834671.555    20834671.5074   20834678.6974
 -19199891.600 9 -14950479.40647  21694166.704    21694166.8814   21694174.5034
 -20379594.920 9 -15621682.33248  21152550.157    21152549.8554   21152556.6034
  -8442189.481 9  -6382462.82646  23556144.061    23556143.3714   23556154.8714
 -17395098.929 9 -13543865.77048  20987012.449    20987012.0344   20987019.3744
 01  3  8  1 46  0.0000000  0  7 21 23  6 26 18 22 17                0.000000026
  -7163095.277 9  -5567672.96945  24042584.474    24042584.0264   24042597.4964
 -20475750.255 9 -15943098.05349  20837322.809    20837322.4324   20837329.8424
  -9118837.981 9  -7079280.43848  20845075.326    20845075.2854   20845082.4604
 -19192112.946 9 -14944418.03947  21695646.868    21695647.0564   21695654.6674
 -20435630.148 9 -15665346.04948  21141886.927    21141886.6274   21141893.3714
  -8435386.467 9  -6377161.73946  23557438.594    23557437.9454   23557449.4074
 -17412898.925 9 -13557735.84848  20983625.221    20983624.7894   20983632.1254
 01  3  8  1 46 30.0000000  0  7 21 23  6 26 18 22 17                0.000000026
  -7243768.429 8  -5630534.87345  24027232.595    24027232.2444   24027245.6964
 -20500087.095 9 -15962061.76349  20832691.605    20832691.2184   20832698.6204
  -9063697.895 9  -7036314.14548  20855568.147    20855568.0914   20855575.2844
 -19183700.589 9 -14937862.89547  21697247.576    21697247.7584   21697255.4084
 -20491258.124 9 -15708692.44248  21131301.202    21131300.9154   21131307.6364
  -8428084.811 9  -6371472.11046  23558828.006    23558827.3734   23558838.8574
 -17430540.499 9 -13571482.48948  20980268.097    20980267.6734   20980274.9694
 01  3  8  1 47  0.0000000  0  7 21 23  6 26 18 22 17                0.000000026
  -7324237.877 9  -5693238.05145  24011919.586    24011919.2054   24011932.5784
 -20524008.796 9 -15980701.98549  20828139.411    20828139.0304   20828146.4144
  -9008092.435 9  -6992985.21648  20866149.493    20866149.4354   20866156.6374
 -19174656.155 9 -14930815.22747  21698968.603    21698968.8174   21698976.4634
 -20546480.028 9 -15751722.41048  21120792.772    21120792.4704   21120799.1584
  -8420287.398 9  -6365396.16246  23560311.746    23560311.1064   23560322.6224
 -17448024.896 9 -13585106.65448  20976940.909    20976940.4764   20976947.7624
 01  3  8  1 47 30.0000000  0  7 21 23  6 26 18 22 17                0.000000025
  -7404502.526 9  -5755781.63845  23996645.490    23996645.1194   23996658.4454
 -20547515.828 9 -15999019.08749  20823666.117    20823665.7364   20823673.1044
  -8952022.450 9  -6949294.32048  20876819.234    20876819.1994   20876826.4014
 -19164979.705 9 -14923275.06947  21700809.913    21700810.1224   21700817.7224
 -20601295.231 9 -15794435.46648  21110361.708    21110361.4114   21110368.0824
  -8411995.545 9  -6358934.94446  23561889.567    23561888.9344   23561900.4384
 -17465351.748 9 -13598608.05648  20973643.683    20973643.2394   20973650.5384
 01  3  8  1 48  0.0000000  0  7 21 23  6 26 18 22 17                0.000000025
  -7484561.678 9  -5818165.09245  23981410.519    23981410.2664   23981423.4204
 -20570608.588 9 -16017013.38149  20819271.636    20819271.2594   20819278.6124
  -8895488.725 9  -6905242.06948  20887577.257    20887577.2014   20887584.4144
 -19154670.828 9 -14915242.11947  21702771.602    21702771.8144   21702779.3754
 -20655703.180 9 -15836831.18648  21100008.166    21100007.8594   21100014.5094
  -8403209.945 9  -6352088.98246  23563561.406    23563560.8364   23563572.2114
 -17482520.503 9 -13611986.26748  20970376.520    20970376.1014   20970383.4084
 01  3  8  1 48 30.0000000  0  7 21 23  6 26 18 22 17                0.000000025
  -7564414.422 9  -5880387.71446  23966214.715    23966214.5164   23966227.6504
 -20593287.153 9 -16034684.93249  20814956.014    20814955.6464   20814962.9884
  -8838491.739 9  -6860828.84048  20898423.398    20898423.3534   20898430.5744
 -19143729.232 9 -14906716.14447  21704853.703    21704853.9034   21704861.4074
 -20709702.999 9 -15878908.88348  21089732.255    21089731.9634   21089738.5924
  -8393930.825 9  -6344858.47646  23565327.115    23565326.5844   23565337.9544
 -17499530.358 9 -13625240.66048  20967139.605    20967139.1824   20967146.4644
 01  3  8  1 49  0.0000000  0  7 21 23  6 26 18 22 17                0.000000025
  -7644059.740 9  -5942448.72246  23951058.506    23951058.3284   23951071.3214
 -20615552.816 9 -16052034.74049  20810718.926    20810718.5594   20810725.8814
  -8781033.130 9  -6816055.90548  20909357.422    20909357.3734   20909364.5884
 -19132155.379 9 -14897697.49847  21707056.084    21707056.2884   21707063.7904
 -20763294.705 9 -15920668.56948  21079534.029    21079533.7334   21079540.3454
  -8384160.057 9  -6337244.84946  23567186.384    23567185.8074   23567197.2054
 -17516381.602 9 -13638371.45748  20963932.905    20963932.4724   20963939.7424
 01  3  8  1 49 30.0000000  0  7 21 23  6 26 18 22 17                0.000000025
  -7723496.832 9  -6004347.46346  23935942.007    23935941.7324   23935954.6384
 -20637405.790 9 -16069062.96349  20806560.407    20806560.0484   20806567.3654
  -8723113.528 9  -6770923.74548  20920379.153    20920379.1134   20920386.3344
 -19119949.016 9 -14888185.98947  21709378.825    21709379.0404   21709386.5444
 -20816477.273 9 -15962109.44248  21069413.645    21069413.3694   21069419.9774
  -8373898.792 9  -6329249.02446  23569138.996    23569138.3854   23569149.8354
 -17533073.420 9 -13651378.01648  20960756.535    20960756.1114   20960763.3864
 01  3  8  1 50  0.0000000  0  7 21 23  6 26 18 22 17                0.000000025
  -7802725.603 9  -6066083.87246  23920865.078    23920864.7814   23920877.6634
 -20658847.128 9 -16085770.44149  20802480.175    20802479.8134   20802487.1284
  -8664734.320 9  -6725433.45948  20931488.364    20931488.3224   20931495.5274
 -19107110.795 9 -14878182.12447  21711821.840    21711822.0584   21711829.4974
 -20869251.154 9 -16003231.86848  21059371.042    21059370.7714   21059377.3514
  -8363148.923 9  -6320872.46746  23571184.600    23571183.9494   23571195.4854
 -17549605.823 9 -13664260.36548  20957610.472    20957610.0584   20957617.3214
 01  3  8  1 50 30.0000000  0  7 21 23  6 26 18 22 17                0.000000025
  -7881745.373 9  -6127657.43146  23905827.879    23905827.6504   23905840.3414
 -20679877.596 9 -16102157.75249  20798478.154    20798477.8034   20798485.1004
  -8605896.636 9  -6679585.91048  20942684.774    20942684.7414   20942691.9624
 -19093640.955 9 -14867686.08147  21714385.021    21714385.2244   21714392.6704
 -20921616.114 9 -16044035.64248  21049406.278    21049405.9904   21049412.5724
  -8351911.124 9  -6312115.71346  23573323.088    23573322.4084   23573333.8884
 -17565978.830 9 -13677018.50148  20954494.732    20954494.3164   20954501.5944
 01  3  8  1 51  0.0000000  0  7 21 23  6 26 18 22 17                0.000000024
  -7960554.815 9  -6189067.10946  23890830.705    23890830.4834   23890843.1714
 -20700497.126 9 -16118224.86349  20794554.323    20794553.9804   20794561.2654
  -8546600.843 9  -6633381.40548  20953968.392    20953968.3404   20953975.5644
 -19079538.844 9 -14856697.36847  21717068.544    21717068.7264   21717076.1214
 -20973570.927 9 -16084519.83048  21039519.534    21039519.2444   21039525.7914
  -8340185.898 9  -6302979.14146  23575554.264    23575553.5944   23575565.0124
 -17582191.223 9 -13689651.49548  20951409.595    20951409.1714   20951416.4414
 01  3  8  1 51 30.0000000  0  7 21 23  6 26 18 22 17                0.000000024
  -8039152.702 9  -6250311.93146  23875873.881    23875873.5474   23875886.2054
 -20720705.800 9 -16133971.81949  20790708.690    20790708.3424   20790715.6194
  -8486847.539 9  -6586820.39448  20965339.047    20965338.9984   20965346.2324
 -19064804.332 9 -14845215.87047  21719872.370    21719872.5554   21719879.9294
 -21025114.683 9 -16124683.71448  21029711.031    21029710.7444   21029717.2614
  -8327974.195 9  -6293463.49846  23577878.074    23577877.4354   23577888.8584
 -17598242.083 9 -13702158.61248  20948355.180    20948354.7664   20948362.0414
 01  3  8  1 52  0.0000000  0  7 21 23  6 26 18 22 17                0.000000024
  -8117539.398 9  -6311392.18546  23860957.160    23860956.8544   23860969.4604
 -20740505.775 9 -16149400.31749  20786940.838    20786940.5004   20786947.7494
  -8426639.051 9  -6539904.70448  20976796.349    20976796.3364   20976803.5694
 -19049438.780 9 -14833242.66047  21722796.281    21722796.5114   21722803.8954
 -21076248.237 9 -16164527.95848  21019980.583    21019980.2804   21019986.7694
  -8315278.999 9  -6283571.10546  23580293.888    23580293.2134   23580304.7114
 -17614132.530 9 -13714540.73648  20945331.279    20945330.8594   20945338.1304
 01  3  8  1 52 30.0000000  0  7 21 23  6 26 18 22 17                0.000000024
  -8195712.049 9  -6372305.67746  23846081.066    23846080.8234   23846093.3854
 -20759895.914 9 -16164509.45849  20783250.992    20783250.6354   20783257.8964
  -8365974.458 9  -6492633.60748  20988340.403    20988340.3944   20988347.6464
 -19033440.525 9 -14820776.44147  21725840.597    21725840.8334   21725848.1954
 -21126969.339 9 -16204050.81648  21010328.599    21010328.3034   21010334.7724
  -8302099.350 9  -6273301.22646  23582801.858    23582801.2074   23582812.6684
 -17629860.055 9 -13726795.91248  20942338.389    20942337.9714   20942345.2324
 01  3  8  1 53  0.0000000  0  7 21 23  6 26 18 22 17                0.000000024
  -8273672.716 9  -6433053.98046  23831245.416    23831245.2234   23831257.6694
 -20778879.374 9 -16179301.70149  20779638.499    20779638.1364   20779645.3874
  -8304857.484 9  -6445009.99948  20999970.598    20999970.5734   20999977.8384
 -19016812.541 9 -14807819.50747  21729004.741    21729004.9734   21729012.3434
 -21177280.387 9 -16243254.14148  21000754.657    21000754.3614   21000760.8114
  -8288438.885 9  -6262656.67946  23585401.356    23585400.6174   23585412.1464
 -17645426.933 9 -13738925.89648  20939376.063    20939375.6524   20939382.8994
 01  3  8  1 53 30.0000000  0  7 21 23  6 26 18 22 17                0.000000024
  -8351418.822 9  -6493635.09246  23816450.673    23816450.3254   23816462.7804
 -20797455.045 9 -16193776.19349  20776103.609    20776103.2634   20776110.4724
  -8243287.641 9  -6397033.51448  21011686.939    21011686.9224   21011694.1714
 -18999553.359 9 -14794370.74447  21732289.012    21732289.2194   21732296.5744
 -21227179.231 9 -16282136.27648  20991259.150    20991258.8544   20991265.3034
  -8274297.168 9  -6251637.14146  23588092.373    23588091.5844   23588103.1994
 -17660830.944 9 -13750928.98648  20936444.769    20936444.3514   20936451.5764
 01  3  8  1 54  0.0000000  0  7 21 23  6 26 18 22 17                0.000000024
  -8428950.430 9  -6554049.06246  23801696.641    23801696.3294   23801708.7624
 -20815623.937 9 -16207933.71449  20772646.168    20772645.7974   20772652.9964
  -8181266.368 9  -6348705.26448  21023489.217    21023489.1914   21023496.4254
 -18981663.685 9 -14780430.69347  21735693.256    21735693.4734   21735700.7954
 -21276665.786 9 -16320697.14848  20981842.104    20981841.8034   20981848.2284
  -8259676.219 9  -6240244.16646  23590874.640    23590873.9084   23590885.4364
 -17676071.951 9 -13762805.05348  20933544.472    20933544.0694   20933551.2644
 01  3  8  1 54 30.0000000  0  7 21 23  6 26 18 22 17                0.000000023
  -8506267.594 9  -6614295.95646  23786983.366    23786983.1354   23786995.4754
 -20833387.881 9 -16221775.68649  20769265.749    20769265.3874   20769272.5714
  -8118795.599 9  -6300026.74748  21035376.984    21035376.9724   21035384.2274
 -18963144.691 9 -14766000.24747  21739217.243    21739217.4734   21739224.8294
 -21325740.939 9 -16358937.44248  20972503.341    20972503.0484   20972509.4674
  -8244578.575 9  -6228479.74246  23593747.658    23593746.8894   23593758.3754
 -17691150.405 9 -13774554.45648  20930675.086    20930674.6864   20930681.8534
 01  3  8  1 55  0.0000000  0  7 21 23  6 26 18 22 17                0.000000023
  -8583368.021 9  -6674373.94646  23772311.537    23772311.2224   23772323.5434
 -20850746.219 9 -16235301.60449  20765962.512    20765962.1644   20765969.3224
  -8055875.190 9  -6250997.86548  21047350.386    21047350.3434   21047357.6064
 -18943995.457 9 -14751078.71647  21742861.193    21742861.4014   21742868.7644
 -21374402.839 9 -16396855.72148  20963243.207    20963242.9294   20963249.3224
  -8229003.815 9  -6216343.54146  23596711.376    23596710.5974   23596722.1364
 -17706064.561 9 -13786175.83748  20927837.015    20927836.6004   20927843.7554
 01  3  8  1 55 30.0000000  0  7 21 23  6 26 18 22 17                0.000000024
  -8660251.405 9  -6734282.82746  23757680.874    23757680.5604   23757692.8064
 -20867699.398 9 -16248511.81949  20762736.413    20762736.0574   20762743.2014
  -7992506.129 9  -6201619.39248  21059409.100    21059409.0654   21059416.3624
 -18924216.192 9 -14735666.25147  21746625.027    21746625.2654   21746632.5884
 -21422651.238 9 -16434451.79948  20954061.783    20954061.5054   20954067.8834
  -8212952.875 9  -6203836.29346  23599765.771    23599765.0234   23599776.4514
 -17720813.663 9 -13797668.61048  20925030.322    20925029.9134   20925037.0594
 01  3  8  1 56  0.0000000  0  7 21 23  6 26 18 22 17                0.000000024
  -8736918.045 9  -6794022.81046  23743091.468    23743091.2014   23743103.3404
 -20884249.602 9 -16261408.02349  20759586.944    20759586.5784   20759593.7274
  -7928691.109 9  -6151893.41348  21071552.696    21071552.6684   21071559.9694
 -18903808.588 9 -14719764.17247  21750508.427    21750508.6664   21750515.9354
 -21470486.895 9 -16471726.25648  20944958.896    20944958.6274   20944964.9744
  -8196428.542 9  -6190960.17446  23602910.272    23602909.5854   23602920.8464
 -17735398.510 9 -13809033.38748  20922254.868    20922254.4554   20922261.6044
 01  3  8  1 56 30.0000000  0  7 21 23  6 26 18 22 17                0.000000024
  -8813366.908 9  -6853593.11546  23728543.605    23728543.3024   23728555.3844
 -20900397.426 9 -16273990.68149  20756514.078    20756513.7254   20756520.8524
  -7864431.064 9  -6101820.66048  21083780.960    21083780.9424   21083788.2434
 -18882773.049 9 -14703372.78547  21754511.350    21754511.5554   21754518.8444
 -21517909.591 9 -16508678.92548  20935934.593    20935934.3244   20935940.6534
  -8179432.578 9  -6177716.55246  23606144.517    23606143.8364   23606155.0754
 -17749818.586 9 -13820269.76948  20919510.790    20919510.3744   20919517.5124
 01  3  8  1 57  0.0000000  0  7 21 23  6 26 18 22 17                0.000000023
  -8889596.489 9  -6912992.55046  23714037.417    23714037.0944   23714049.0614
 -20916142.817 9 -16286259.76149  20753517.793    20753517.4394   20753524.5484
  -7799726.331 9  -6051401.40148  21096093.856    21096093.8284   21096101.1454
 -18861108.975 9 -14686491.63747  21758633.819    21758634.0214   21758641.2954
 -21564918.055 9 -16545308.81848  20926989.102    20926988.8474   20926995.1194
  -8161965.581 9  -6164105.88446  23609468.358    23609467.6564   23609478.8814
 -17764072.436 9 -13831376.62848  20916798.341    20916797.9224   20916805.0354
 01  3  8  1 57 30.0000000  0  7 21 23  6 26 18 22 17                0.000000023
  -8965607.169 9  -6972221.40546  23699572.832    23699572.5384   23699584.4314
 -20931487.241 9 -16298216.39949  20750597.782    20750597.4404   20750604.5294
  -7734578.912 9  -6000637.18948  21108490.996    21108490.9764   21108498.2944
 -18838817.867 9 -14669121.89347  21762875.614    21762875.8254   21762883.0484
 -21611512.970 9 -16581616.46648  20918122.327    20918122.0564   20918128.3234
  -8144029.249 9  -6150129.50346  23612881.521    23612880.8024   23612892.0234
 -17778160.442 9 -13842354.26048  20914117.478    20914117.0484   20914124.1494
 01  3  8  1 58  0.0000000  0  7 21 23  6 26 18 22 17                0.000000023
  -9041397.621 9  -7031278.66346  23685150.202    23685149.9334   23685161.7764
 -20946430.901 9 -16309860.75449  20747754.027    20747753.6994   20747760.7734
  -7668989.379 9  -5949528.47148  21120972.293    21120972.2654   21120979.5794
 -18815899.714 9 -14651263.53647  21767236.733    21767236.9564   21767244.1784
 -21657693.351 9 -16617601.09648  20909334.432    20909334.1594   20909340.4314
  -8125624.431 9  -6135788.06846  23616383.860    23616383.2184   23616394.3924
 -17792081.486 9 -13853201.78448  20911468.338    20911467.9224   20911475.0264
 01  3  8  1 58 30.0000000  0  7 21 23  6 26 18 22 17                0.000000023
  -9116967.597 9  -7090164.12446  23670769.531    23670769.2684   23670781.0754
 -20960975.275 9 -16321193.98149  20744986.296    20744985.9654   20744993.0194
  -7602959.452 9  -5898076.59448  21133537.378    21133537.3374   21133544.6894
 -18792355.378 9 -14632917.24847  21771717.016    21771717.2544   21771724.4644
 -21703459.646 9 -16653263.06948  20900625.314    20900625.0394   20900631.3204
  -8106753.346 9  -6121083.32646  23619974.916    23619974.2524   23619985.4824
 -17805835.506 9 -13863919.16548  20908851.003    20908850.5944   20908857.6744
 01  3  8  1 59  0.0000000  0  7 21 23  6 26 18 22 17                0.000000023
  -9192316.580 9  -7148877.38546  23656430.960    23656430.6344   23656442.3914
 -20975121.262 9 -16332216.77949  20742294.376    20742294.0294   20742301.0694
  -7536490.446 9  -5846282.58248  21146186.012    21146185.9904   21146193.3264
 -18768185.630 9 -14614083.63147  21776316.368    21776316.6004   21776323.7684
 -21748811.849 9 -16688602.37548  20891995.038    20891994.7534   20892001.0134
  -8087418.029 9  -6106016.83646  23623654.226    23623653.5354   23623664.9224
 -17819421.927 9 -13874505.94748  20906265.560    20906265.1544   20906272.2394
 01  3  8  1 59 30.0000000  0  7 21 23  6 26 18 22 17                0.000000023
  -9267443.788 9  -7207417.82746  23642134.502    23642134.2314   23642145.9754
 -20988869.672 9 -16342929.76849  20739678.075    20739677.7404   20739684.7634
  -7469583.538 9  -5794147.33948  21158917.993    21158917.9564   21158925.2994
 -18743390.991 9 -14594763.07947  21781034.590    21781034.8334   21781042.0174
 -21793749.584 9 -16723618.71148  20883443.612    20883443.3234   20883449.5614
  -8067619.430 9  -6090589.34346  23627421.734    23627420.9974   23627432.4414
 -17832840.350 9 -13884961.82148  20903712.082    20903711.6824   20903718.7414
 01  3  8  2  0  0.0000000  0  7 21 23  6 26 18 22 17                0.000000023
  -9342348.160 9  -7265784.63746  23627880.526    23627880.1894   23627891.9074
 -21002220.696 9 -16353333.11449  20737137.414    20737137.0794   20737144.0914
  -7402239.553 9  -5741671.53248  21171733.094    21171733.0744   21171740.4264
 -18717971.591 9 -14574955.71447  21785871.717    21785871.9554   21785879.1294
 -21838272.132 9 -16758311.53548  20874971.162    20874970.8684   20874977.0814
  -8047358.298 9  -6074801.43946  23631277.310    23631276.6484   23631287.9734
 -17846089.713 9 -13895285.97048  20901190.811    20901190.3874   20901197.4454
 01  3  8  2  0 30.0000000  0  7 21 23  6 26 18 22 17                0.000000023
  -9417030.307 9  -7323978.27946  23613668.771    23613668.4484   23613680.0414
 -21015176.199 9 -16363428.25849  20734672.024    20734671.7154   20734678.6954
  -7334460.985 9  -5688857.07048  21184630.942    21184630.9154   21184638.2624
 -18691929.218 9 -14554662.90847  21790827.352    21790827.5944   21790834.7724
 -21882380.313 9 -16792681.47048  20866577.622    20866577.3394   20866583.4964
  -8026637.264 9  -6058655.16346  23635220.382    23635219.7084   23635231.0524
 -17859170.444 9 -13905478.69648  20898701.594    20898701.1804   20898708.2354
 01  3  8  2  1  0.0000000  0  7 21 23  6 26 18 22 17                0.000000023
  -9491488.852 9  -7381997.68446  23599499.644    23599499.2874   23599510.9134
 -21027736.451 9 -16373215.41849  20732281.874    20732281.5404   20732288.4954
  -7266248.493 9  -5635704.49948  21197611.352    21197611.3494   21197618.6874
 -18665263.776 9 -14533884.59647  21795901.572    21795901.8314   21795909.0094
 -21926073.433 9 -16826727.98848  20858263.023    20858262.7354   20858268.8904
  -8005457.763 9  -6042151.64646  23639250.731    23639250.0284   23639261.3604
 -17872081.506 9 -13915539.22748  20896244.655    20896244.2514   20896251.3024
 01  3  8  2  1 30.0000000  0  7 21 23  6 26 18 22 17                0.000000023
  -9565722.848 9  -7439842.12146  23585373.166    23585372.7864   23585384.3554
 -21039901.900 9 -16382694.93049  20729966.826    20729966.5034   20729973.4244
  -7197602.923 9  -5582214.45048  21210674.220    21210674.1964   21210681.5384
 -18637975.624 9 -14512621.05047  21801094.272    21801094.5274   21801101.6914
 -21969350.972 9 -16860450.66548  20850027.511    20850027.2274   20850033.3854
  -7983821.049 9  -6025291.86046  23643368.021    23643367.3274   23643378.7664
 -17884821.861 9 -13925466.72748  20893820.207    20893819.8094   20893826.8274
 01  3  8  2  2  0.0000000  0  7 21 23  6 26 18 22 17                0.000000023
  -9639732.457 9  -7497511.72046  23571289.488    23571289.0964   23571300.5664
 -21051674.267 9 -16391868.15749  20727726.572    20727726.2444   20727733.1524
  -7128526.472 9  -5528388.66248  21223819.068    21223819.0364   21223826.3574
 -18610066.444 9 -14490873.59247  21806405.211    21806405.4704   21806412.5824
 -22012213.563 9 -16893850.02148  20841870.959    20841870.6834   20841876.8084
  -7961729.074 9  -6008077.32746  23647571.966    23647571.3174   23647582.6504
 -17897391.650 9 -13935261.33048  20891428.244    20891427.8354   20891434.8644
 01  3  8  2  2 30.0000000  0  7 21 23  6 26 18 22 17                0.000000023
  -9713517.311 9  -7555006.17446  23557248.516    23557248.1274   23557259.5304
 -21063054.727 9 -16400735.99549  20725560.936    20725560.6134   20725567.4844
  -7059020.839 9  -5474228.44148  21237045.528    21237045.5094   21237052.8214
 -18581537.230 9 -14468642.99047  21811834.088    21811834.3614   21811841.4154
 -22054661.442 9 -16926926.22048  20833793.344    20833793.0654   20833799.1684
  -7939183.558 9  -5990509.38446  23651862.234    23651861.5674   23651872.8394
 -17909790.466 9 -13944922.70148  20889068.782    20889068.3694   20889075.3914
 01  3  8  2  3  0.0000000  0  7 21 23  6 26 18 22 17                0.000000023
  -9787076.325 9  -7612324.64946  23543250.513    23543250.1774   23543261.4214
 -21074043.874 9 -16409298.90749  20723469.744    20723469.4114   20723476.2674
  -6989087.156 9  -5419734.66848  21250353.506    21250353.4664   21250360.7864
 -18552388.514 9 -14445929.66047  21817380.878    21817381.1324   21817388.1984
 -22096694.175 9 -16959678.92248  20825794.743    20825794.4634   20825800.5574
  -7916186.139 9  -5972589.30546  23656238.436    23656237.7874   23656249.0954
 -17922017.466 9 -13954450.18148  20886742.026    20886741.6204   20886748.6324
 01  3  8  2  3 30.0000000  0  7 21 23  6 26 18 22 17                0.000000023
  -9860408.920 9  -7669466.70246  23529295.605    23529295.2784   23529306.4874
 -21084641.959 9 -16417557.10049  20721452.940    20721452.6074   20721459.4524
  -6918726.044 9  -5364907.84448  21263742.787    21263742.7674   21263750.0674
 -18522620.533 9 -14422733.77947  21823045.491    21823045.7404   21823052.8184
 -22138310.927 9 -16992107.48848  20817875.284    20817875.0054   20817881.0674
  -7892738.247 9  -5954318.21346  23660700.426    23660699.7994   23660711.0444
 -17934071.502 9 -13963842.88748  20884448.178    20884447.7784   20884454.7664
 01  3  8  2  4  0.0000000  0  7 21 23  6 26 18 22 17                0.000000022
  -9933515.307 9  -7726432.48146  23515383.742    23515383.4394   23515394.5624
 -21094851.199 9 -16425512.30849  20719510.133    20719509.7924   20719516.6454
  -6847940.189 9  -5309750.05948  21277212.912    21277212.8824   21277220.1874
 -18492235.279 9 -14399056.91847  21828827.565    21828827.8074   21828834.9024
 -22179513.128 9 -17024213.03648  20810034.693    20810034.4234   20810040.4694
  -7868842.505 9  -5935698.16246  23665247.615    23665246.9304   23665258.2584
 -17945953.094 9 -13973101.23248  20882187.147    20882186.7334   20882193.7304
 01  3  8  2  4 30.0000000  0  7 21 23  6 26 18 22 17                0.000000022
 -10006394.443 9  -7783221.18846  23501515.068    23501514.8004   23501525.9054
 -21104671.775 9 -16433164.64849  20717641.309    20717640.9764   20717647.8044
  -6776730.469 9  -5254261.97948  21290763.660    21290763.6414   21290770.9464
 -18461232.881 9 -14374899.15847  21834727.041    21834727.2834   21834734.4004
 -22220299.815 9 -17055994.79248  20802273.182    20802272.9264   20802278.9474
  -7844499.524 9  -5916729.59046  23669879.907    23669879.2044   23669890.5354
 -17957660.838 9 -13982224.09948  20879959.202    20879958.7954   20879965.7804
 01  3  8  2  5  0.0000000  0  7 21 23  6 26 18 22 17                0.000000022
 -10079044.558 9  -7839831.44946  23487690.028    23487689.7514   23487700.8344
 -21114103.828 9 -16440514.25749  20715846.442    20715846.0984   20715852.9174
  -6705097.542 9  -5198444.13548  21304395.001    21304394.9644   21304402.2614
 -18429613.465 9 -14350260.61547  21840743.994    21840744.2174   21840751.3384
 -22260670.179 9 -17087452.15948  20794590.899    20794590.6354   20794596.6444
  -7819710.000 9  -5897413.07246  23674597.138    23674596.4484   23674607.8544
 -17969193.397 9 -13991210.46948  20877764.586    20877764.1954   20877771.1814
 01  3  8  2  5 30.0000000  0  7 21 23  6 26 18 22 17                0.000000022
 -10151467.458 9  -7896264.64646  23473908.249    23473907.9524   23473919.0074
 -21123150.635 9 -16447563.66149  20714124.817    20714124.4704   20714131.2764
  -6633045.211 9  -5142299.47348  21318106.106    21318106.0524   21318113.3774
 -18397380.457 9 -14325143.94947  21846877.688    21846877.8914   21846885.0314
 -22300626.435 9 -17118586.82848  20786987.428    20786987.1584   20786993.1564
  -7794478.630 9  -5877752.25746  23679398.493    23679397.7944   23679409.1624
 -17980552.648 9 -14000061.78348  20875602.960    20875602.5714   20875609.5434
 01  3  8  2  6  0.0000000  0  7 21 23  6 26 18 22 17                0.000000022
 -10223661.386 9  -7952519.44146  23460170.017    23460169.7034   23460180.7164
 -21131811.536 9 -16454312.36149  20712476.667    20712476.3214   20712483.1084
  -6560573.121 9  -5085827.72548  21331897.087    21331897.0254   21331904.3854
 -18364532.916 9 -14299548.41247  21853128.321    21853128.5344   21853135.6304
 -22340167.017 9 -17149397.59848  20779463.034    20779462.7684   20779468.7474
  -7768805.582 9  -5857747.26446  23684283.955    23684283.2324   23684294.7064
 -17991736.223 9 -14008776.20548  20873474.751    20873474.3754   20873481.3254
 01  3  8  2  6 30.0000000  0  7 21 23  6 26 18 22 17                0.000000022
 -10295624.610 9  -8008594.45946  23446475.680    23446475.3234   23446486.4064
 -21140086.960 9 -16460760.69749  20710901.891    20710901.5414   20710908.3274
  -6487682.338 9  -5029029.73548  21345767.759    21345767.7034   21345775.0324
 -18331071.483 9 -14273474.53147  21859495.784    21859495.9964   21859503.0974
 -22379291.396 9 -17179884.06348  20772017.870    20772017.6124   20772023.5754
  -7742691.794 9  -5837398.85446  23689253.238    23689252.5624   23689263.9104
 -18002743.018 9 -14017352.88948  20871380.186    20871379.8144   20871386.7324
 01  3  8  2  7  0.0000000  0  7 21 23  6 26 18 22 17                0.000000023
 -10367359.490 9  -8064491.56446  23432824.853    23432824.4544   23432835.3774
 -21147979.819 9 -16466910.93249  20709399.904    20709399.5414   20709406.3014
  -6414376.356 9  -4971908.21548  21359717.425    21359717.3954   21359724.7464
 -18296999.117 9 -14246924.60347  21865979.528    21865979.7374   21865986.8314
 -22418001.627 9 -17210047.81548  20764651.505    20764651.2414   20764657.1774
  -7716140.592 9  -5816709.59546  23694305.765    23694305.0644   23694316.3514
 -18013574.185 9 -14025792.72048  20869319.053    20869318.6714   20869325.5814
 01  3  8  2  7 30.0000000  0  7 21 23  6 26 18 22 17                0.000000022
 -10438864.659 9  -8120209.66946  23419217.727    23419217.3544   23419228.1704
 -21155490.606 9 -16472763.45149  20707970.575    20707970.2314   20707976.9824
  -6340655.984 9  -4914463.79148  21373745.954    21373745.9144   21373753.2524
 -18262316.266 9 -14219898.96647  21872579.433    21872579.6684   21872586.7204
 -22456297.187 9 -17239888.44848  20757364.064    20757363.7964   20757369.7134
  -7689153.388 9  -5795680.58746  23699441.256    23699440.6294   23699451.8574
 -18024228.527 9 -14034094.77148  20867291.585    20867291.1854   20867298.0944
 01  3  8  2  8  0.0000000  0  7 21 23  6 26 18 22 17                0.000000022
 -10510138.680 9  -8175747.65846  23405654.586    23405654.1934   23405665.0174
 -21162619.444 9 -16478318.33749  20706613.945    20706613.6104   20706620.3454
  -6266521.946 9  -4856697.02248  21387853.192    21387853.1574   21387860.5164
 -18227023.205 9 -14192397.83647  21879295.423    21879295.6594   21879302.7494
 -22494176.854 9 -17269405.00348  20750155.748    20750155.4764   20750161.3814
  -7661731.696 9  -5774313.01446  23704659.390    23704658.7764   23704670.0534
 -18034704.584 9 -14042257.88848  20865298.012    20865297.6154   20865304.5234
 01  3  8  2  8 30.0000000  0  7 21 23  6 26 18 22 17                0.000000022
 -10581182.158 9  -8231106.01146  23392135.299    23392134.9324   23392145.6834
 -21169368.224 9 -16483577.08049  20705329.675    20705329.3394   20705336.0574
  -6191976.680 9  -4798609.81448  21402038.685    21402038.6574   21402046.0234
 -18191121.869 9 -14164422.72947  21886127.191    21886127.4594   21886134.5234
 -22531641.974 9 -17298598.53948  20743026.301    20743026.0424   20743031.9344
  -7633878.134 9  -5752608.91846  23709959.776    23709959.1674   23709970.3854
 -18045002.571 9 -14050282.25548  20863338.337    20863337.9524   20863344.8314
 01  3  8  2  9  0.0000000  0  7 21 23  6 26 18 22 17                0.000000022
 -10651994.378 9  -8286284.16246  23378660.008    23378659.6714   23378670.3464
 -21175737.926 9 -16488540.44149  20704117.542    20704117.2084   20704123.8884
  -6117021.244 9  -4740203.00448  21416302.233    21416302.1824   21416309.5564
 -18154613.034 9 -14135974.24647  21893074.579    21893074.8304   21893081.8514
 -22568692.332 9 -17327468.88448  20735975.820    20735975.5534   20735981.4214
  -7605593.710 9  -5730569.09146  23715342.117    23715341.4614   23715352.6564
 -18055121.630 9 -14058167.20148  20861412.728    20861412.3354   20861419.2084
 01  3  8  2  9 30.0000000  0  7 21 23  6 26 18 22 17                0.000000022
 -10722574.227 9  -8341281.24146  23365228.957    23365228.6394   23365239.2094
 -21181729.030 9 -16493208.78549  20702977.431    20702977.0774   20702983.7534
  -6041656.918 9  -4681477.56948  21430643.623    21430643.5844   21430650.9664
 -18117497.433 9 -14107052.96447  21900137.352    21900137.6204   21900144.6824
 -22605327.365 9 -17356015.60248  20729004.329    20729004.0594   20729009.9094
  -7576879.623 9  -5708194.45646  23720806.226    23720805.5784   23720816.8444
 -18065060.503 9 -14065911.74348  20859521.388    20859521.0044   20859527.8684
 01  3  8  2 10  0.0000000  0  8 21 23  3  6 26 18 22 17             0.000000017
 -10792925.359 9  -8396100.11046  23351841.440    23351841.1274   23351851.5454
 -21187346.986 9 -16497586.36349  20701908.335    20701907.9874   20701914.6444
  -2105332.737 8  -1619289.66845  24649338.438    24649338.3284   24649350.0124
  -5965889.735 9  -4622438.22348  21445061.633    21445061.5734   21445068.9944
 -18079780.632 9 -14077663.20547  21907314.595    21907314.8524   21907321.8714
 -22641551.458 9 -17384242.10048  20722111.066    20722110.7914   20722116.6404
  -7547742.677 9  -5685490.32146  23726350.801    23726350.1804   23726361.4034
 -18074822.841 9 -14073518.72348  20857663.626    20857663.2404   20857670.1124
 01  3  8  2 10 30.0000000  0  8 21 23  3  6 26 18 22 17             0.000000013
 -10863046.150 9  -8450739.49146  23338497.745    23338497.4154   23338507.7764
 -21192591.617 9 -16501673.04849  20700910.266    20700909.9284   20700916.5654
  -2206944.499 8  -1698467.48445  24630002.236    24630002.0254   24630013.7344
  -5889720.062 9  -4563085.25648  21459556.214    21459556.1884   21459563.6144
 -18041462.637 9 -14047804.99247  21914606.207    21914606.4744   21914613.4564
 -22677363.696 9 -17412147.68448  20715296.195    20715295.9294   20715301.7554
  -7518183.806 9  -5662457.41746  23731975.642    23731975.0364   23731986.2914
 -18084406.855 9 -14080986.75948  20855839.818    20855839.4534   20855846.3124
 01  3  8  2 11  0.0000000  0  8 21 23  3  6 26 18 22 17             0.000000010
 -10932932.125 9  -8505195.90846  23325198.745    23325198.4214   23325208.7114
 -21197459.995 9 -16505466.54349  20699983.812    20699983.4704   20699990.1014
  -2308432.630 8  -1777548.96145  24610689.557    24610689.3554   24610701.0124
  -5813145.546 9  -4503416.82548  21474127.910    21474127.8704   21474135.2884
 -18002540.751 9 -14017476.21447  21922012.807    21922013.0764   21922020.0124
 -22712760.207 9 -17439729.31748  20708560.404    20708560.1424   20708565.9414
  -7488200.617 9  -5639093.87546  23737681.226    23737680.5764   23737691.8384
 -18093807.957 9 -14088312.26148  20854050.832    20854050.4614   20854057.2934
 01  3  8  2 11 30.0000000  0  8 21 23  3  6 26 18 22 17             0.000000009
 -11002582.601 9  -8559468.81046  23311944.520    23311944.1984   23311954.4994
 -21201952.374 9 -16508967.05149  20699128.904    20699128.5624   20699135.1944
  -2409794.226 9  -1856531.84045  24591400.895    24591400.8884   24591412.3064
  -5736167.064 9  -4443433.60748  21488776.418    21488776.3804   21488783.7824
 -17963015.296 9 -13986677.11747  21929534.226    21929534.4994   21929541.4194
 -22747740.484 9 -17466986.61548  20701903.837    20701903.5704   20701909.3574
  -7457793.813 9  -5615400.24946  23743467.432    23743466.8014   23743477.9914
 -18103024.379 9 -14095493.85648  20852296.971    20852296.5954   20852303.4364
 01  3  8  2 12  0.0000000  0  8 21 23  3  6 26 18 22 17             0.000000008
 -11071998.654 9  -8613559.05346  23298734.915    23298734.6024   23298744.8674
 -21206071.659 9 -16512176.83449  20698344.977    20698344.6344   20698351.2594
  -2511028.501 9  -1935415.50645  24572136.550    24572136.5154   24572147.8374
  -5658788.121 9  -4383138.34348  21503501.184    21503501.1464   21503508.5434
 -17922889.468 9 -13955410.20947  21937169.885    21937170.1334   21937177.0494
 -22782306.226 9 -17493920.89648  20695326.148    20695325.8744   20695331.6494
  -7426967.260 9  -5591379.53646  23749333.498    23749332.8494   23749344.0264
 -18112057.415 9 -14102532.54848  20850578.006    20850577.6364   20850584.4644
 01  3  8  2 12 30.0000000  0  8 21 23  3  6 26 18 22 17             0.000000007
 -11141179.506 9  -8667466.01346  23285570.039    23285569.7264   23285579.9804
 -21209818.665 9 -16515096.53649  20697631.889    20697631.5584   20697638.1724
  -2612132.635 8  -2014197.76145  24552896.981    24552896.7334   24552908.0784
  -5581009.834 9  -4322531.91048  21518301.928    21518301.8704   21518309.2864
 -17882164.273 9 -13923676.25047  21944919.619    21944919.8884   21944926.7544
 -22816457.486 9 -17520532.20748  20688827.324    20688827.0634   20688832.8284
  -7395723.015 9  -5567033.35646  23755279.034    23755278.4634   23755289.6004
 -18120906.043 9 -14109427.55648  20848894.141    20848893.7714   20848900.5874
 01  3  8  2 13  0.0000000  0  8 21 23  3  6 26 18 22 17             0.000000007
 -11210126.502 9  -8721190.75446  23272449.734    23272449.4384   23272459.6114
 -21213195.773 9 -16517728.00149  20696989.212    20696988.8734   20696995.4864
  -2713105.553 8  -2092877.76245  24533682.317    24533682.1154   24533693.3004
  -5502835.282 9  -4261616.69648  21533178.035    21533178.0114   21533185.4314
 -17840842.250 9 -13891477.24147  21952782.947    21952783.1644   21952790.0274
 -22850195.483 9 -17546821.48948  20682407.140    20682406.8684   20682412.6004
  -7364064.394 9  -5542364.28746  23761303.520    23761302.9424   23761314.0834
 -18129570.727 9 -14116179.21848  20847245.305    20847244.9034   20847251.7304
 01  3  8  2 13 30.0000000  0  8 21 23  3  6 26 18 22 17             0.000000007
 -11278838.103 9  -8774732.07546  23259374.199    23259373.9014   23259384.0014
 -21216203.198 9 -16520071.40249  20696416.895    20696416.5394   20696423.1614
  -2813943.981 8  -2171452.97245  24514493.256    24514493.1204   24514504.2654
  -5424265.436 9  -4200393.45748  21548129.352    21548129.3314   21548136.7804
 -17798923.779 9 -13858813.46647  21960759.728    21960759.9224   21960766.8294
 -22883519.692 9 -17572788.34148  20676065.735    20676065.4684   20676071.1494
  -7331992.110 9  -5517372.88946  23767406.651    23767406.0474   23767417.1384
 -18138049.806 9 -14122786.25848  20845631.740    20845631.3504   20845638.1604
 01  3  8  2 14  0.0000000  0  8 21 23  3  6 26 18 22 17             0.000000006
 -11347314.337 9  -8828089.99946  23246343.472    23246343.1424   23246353.2404
 -21218842.912 9 -16522128.28149  20695914.559    20695914.2174   20695920.8014
  -2914646.300 8  -2249922.09745  24495330.072    24495329.9174   24495341.0864
  -5345302.877 9  -4138864.21048  21563155.472    21563155.4584   21563162.8744
 -17756411.285 9 -13825686.81747  21968849.511    21968849.7224   21968856.6414
 -22916431.163 9 -17598433.58248  20669802.836    20669802.5744   20669808.2314
  -7299508.859 9  -5492061.24846  23773588.021    23773587.3984   23773598.4774
 -18146343.682 9 -14129248.98548  20844053.442    20844053.0424   20844059.8464
 01  3  8  2 14 30.0000000  0  8 21 23  3  6 26 18 22 17             0.000000006
 -11415554.711 9  -8881264.13446  23233357.596    23233357.2814   23233367.3614
 -21221115.448 9 -16523899.04449  20695482.071    20695481.7364   20695488.2804
  -3015209.684 8  -2328282.97945  24476193.346    24476193.1954   24476204.1594
  -5265948.577 9  -4077029.71148  21578256.137    21578256.1244   21578263.5464
 -17713305.472 9 -13792097.83547  21977052.231    21977052.4834   21977059.3954
 -22948929.492 9 -17623756.89448  20663618.553    20663618.2954   20663623.9284
  -7266616.164 9  -5466430.56246  23779847.322    23779846.6554   23779857.7434
 -18154450.913 9 -14135566.26948  20842510.669    20842510.2804   20842517.0754
 01  3  8  2 15  0.0000000  0  8 21 23  3  6 26 18 22 17             0.000000006
 -11483559.820 9  -8934254.95646  23220416.527    23220416.1904   23220426.2354
 -21223022.981 9 -16525385.39149  20695119.083    20695118.7184   20695125.2604
  -3115632.638 8  -2406534.43045  24457083.392    24457083.0944   24457094.1484
  -5186205.326 9  -4014892.12648  21593430.790    21593430.7694   21593438.2164
 -17669608.881 9 -13758048.50947  21985367.429    21985367.6374   21985374.5064
 -22981015.968 9 -17648759.28548  20657512.652    20657512.3824   20657518.0114
  -7233317.612 9  -5440483.62346  23786183.785    23786183.0984   23786194.2594
 -18162371.738 9 -14141738.30048  20841003.368    20841002.9644   20841009.7554
 01  3  8  2 15 30.0000000  0  8 21 23  3  6 26 18 22 17             0.000000006
 -11551328.769 9  -8987061.73746  23207520.427    23207520.0584   23207530.0264
 -21224565.710 9 -16526587.47049  20694825.444    20694825.1014   20694831.6454
  -3215911.678 8  -2484673.73445  24438000.728    24438000.4944   24438011.6074
  -5106073.752 9  -3952451.95748  21608679.345    21608679.3424   21608686.7794
 -17625322.019 9 -13723539.22647  21993794.899    21993795.1334   21993802.0014
 -23012689.926 9 -17673440.23148  20651485.260    20651484.9944   20651490.6034
  -7199614.155 9  -5414221.17646  23792597.385    23792596.7284   23792607.8174
 -18170104.359 9 -14147763.67448  20839531.879    20839531.4534   20839538.2334
 01  3  8  2 16  0.0000000  0  8 21 23  3  6 26 18 22 17             0.000000006
 -11618861.502 9  -9039684.48546  23194669.241    23194668.8354   23194678.7664
 -21225745.871 9 -16527507.03749  20694600.790    20694600.4464   20694606.9954
  -3316044.987 8  -2562699.49545  24418945.795    24418945.5964   24418956.8014
  -5025556.638 9  -3889711.37147  21624001.269    21624001.2464   21624008.6424
 -17580447.052 9 -13688571.68547  22002334.377    22002334.6114   22002341.4004
 -23043952.339 9 -17697800.49948  20645536.159    20645535.9034   20645541.4904
  -7165508.087 9  -5387645.00546  23799087.536    23799086.9154   23799097.9254
 -18177649.073 9 -14153642.63348  20838096.145    20838095.7474   20838102.5024
 01  3  8  2 16 30.0000000  0  8 21 23  3  6 26 18 22 17             0.000000006
 -11686157.477 9  -9092122.72346  23181863.089    23181862.7414   23181872.5854
 -21226564.337 9 -16528144.75549  20694445.040    20694444.6844   20694451.2294
  -3416030.266 8  -2640609.89745  24399919.049    24399918.6784   24399929.9994
  -4944655.664 9  -3826671.66847  21639396.208    21639396.1884   21639403.5924
 -17534985.562 9 -13653147.10147  22010985.420    22010985.6024   22010992.3784
 -23074803.486 9 -17721840.29148  20639665.352    20639665.0874   20639670.6714
  -7131001.514 9  -5360756.75146  23805653.902    23805653.2594   23805664.2404
 -18185005.075 9 -14159374.53648  20836696.297    20836695.9064   20836702.6474
 01  3  8  2 17  0.0000000  0  8 21 23  3  6 26 18 22 17             0.000000006
 -11753215.753 9  -9144375.76246  23169102.239    23169101.8154   23169111.6774
 -21227021.296 9 -16528500.79049  20694358.050    20694357.6944   20694364.2204
  -3515864.031 8  -2718402.23845  24380921.112    24380920.6304   24380932.0094
  -4863371.583 9  -3763333.45447  21654864.036    21654864.0294   21654871.4404
 -17488938.104 9 -13617265.94347  22019747.882    22019748.1164   22019754.8504
 -23105242.707 9 -17745559.11148  20633872.871    20633872.6374   20633878.2134
  -7096095.751 9  -5333557.44746  23812296.230    23812295.6514   23812306.5854
 -18192170.621 9 -14164958.03948  20835332.692    20835332.3304   20835339.0434
 01  3  8  2 17 30.0000000  0  8 21 23  3  6 26 18 22 17             0.000000005
 -11820037.180 9  -9196444.23646  23156386.414    23156386.0284   23156395.8234
 -21227119.341 9 -16528577.14649  20694339.348    20694338.9974   20694345.5074
  -3615545.352 8  -2796075.78745  24361952.113    24361951.7934   24361963.0604
  -4781707.570 9  -3699699.17747  21670404.222    21670404.2114   21670411.5984
 -17442307.460 9 -13580930.34447  22028621.380    22028621.5734   22028628.3104
 -23135271.591 9 -17768958.18548  20628158.519    20628158.2734   20628163.8534
  -7060794.666 9  -5306050.08846  23819013.824    23819013.1314   23819024.1684
 -18199146.102 9 -14170393.43848  20834005.257    20834004.8994   20834011.5994
 01  3  8  2 18  0.0000000  0  8 21 23  3  6 26 18 22 17             0.000000005
 -11886620.608 9  -9248327.26646  23143715.846    23143715.4894   23143725.3014
 -21226858.734 9 -16528374.03349  20694388.921    20694388.5634   20694395.0524
  -3715070.555 8  -2873627.67545  24343012.886    24343012.5834   24343023.8124
  -4699664.476 9  -3635769.52147  21686016.511    21686016.5034   21686023.9334
 -17395094.304 9 -13544140.84047  22037605.690    22037605.9034   22037612.6664
 -23164889.455 9 -17792036.98548  20622522.385    20622522.1354   20622527.6994
  -7025098.931 9  -5278235.21446  23825806.477    23825805.7684   23825816.8444
 -18205930.017 9 -14175679.56148  20832714.310    20832713.9324   20832720.6414
 01  3  8  2 18 30.0000000  0  8 21 23  3  6 26 18 22 17             0.000000005
 -11952966.344 9  -9300025.07746  23131090.481    23131090.1404   23131099.9024
 -21226241.358 9 -16527892.92049  20694506.367    20694506.0224   20694512.4914
  -3814437.978 8  -2951056.63945  24324103.778    24324103.4734   24324114.5914
  -4617244.965 9  -3571546.54547  21701700.449    21701700.4264   21701707.8534
 -17347300.945 9 -13506899.23247  22046700.468    22046700.6674   22046707.4684
 -23194097.470 9 -17814796.42048  20616964.257    20616963.9834   20616969.5554
  -6989011.293 9  -5250114.95846  23832673.669    23832673.0144   23832684.1904
 -18212522.201 9 -14180816.28448  20831459.797    20831459.4214   20831466.1394
 01  3  8  2 19  0.0000000  0  8 21 23  3  6 26 18 22 17             0.000000006
 -12019073.834 9  -9351537.25546  23118510.559    23118510.1994   23118519.8894
 -21225268.225 9 -16527134.59149  20694691.482    20694691.1434   20694697.6144
  -3913644.994 8  -3028360.62945  24305225.205    24305224.9734   24305236.0024
  -4534450.491 9  -3507031.40247  21717455.702    21717455.6884   21717463.1424
 -17298928.826 9 -13469206.64347  22055905.285    22055905.5044   22055912.3354
 -23222895.622 9 -17837236.48149  20611484.098    20611483.8374   20611489.4134
  -6952533.549 9  -5221690.72946  23839615.152    23839614.5084   23839625.6154
 -18218921.547 9 -14185802.74448  20830242.016    20830241.6244   20830248.3424
 01  3  8  2 19 30.0000000  0  8 21 23  3  6 26 18 22 17             0.000000005
 -12084943.602 9  -9402864.19347  23105975.897    23105975.4974   23105985.1434
 -21223941.258 9 -16526100.55049  20694943.972    20694943.6384   20694950.0854
  -4012689.483 8  -3105537.96245  24286377.493    24286377.3114   24286388.3614
  -4451283.413 9  -3442225.91547  21733281.866    21733281.8424   21733289.3484
 -17249980.153 9 -13431064.79747  22065219.881    22065220.1064   22065226.9324
 -23251284.841 9 -17859357.89649  20606081.792    20606081.5274   20606087.0724
  -6915668.952 9  -5192965.05846  23846630.207    23846629.5524   23846640.6764
 -18225127.816 9 -14190638.75848  20829060.961    20829060.5714   20829067.2854
 01  3  8  2 20  0.0000000  0  8 21 23  3  6 26 18 22 17             0.000000006
 -12150574.151 9  -9454004.72747  23093486.688    23093486.2834   23093495.9154
 -21222260.937 9 -16524791.16249  20695263.715    20695263.3574   20695269.8274
  -4111568.143 9  -3182586.09046  24267561.423    24267561.2274   24267572.1534
  -4367744.940 9  -3377131.02747  21749178.756    21749178.7174   21749186.1854
 -17200455.899 9 -13392474.43947  22074644.026    22074644.2324   22074651.0434
 -23279264.784 9 -17881160.39149  20600757.315    20600757.0534   20600762.5934
  -6878419.090 9  -5163939.19046  23853718.631    23853717.9954   23853729.0724
 -18231139.427 9 -14195323.09148  20827916.965    20827916.5634   20827923.2794
 01  3  8  2 20 30.0000000  0  8 21 23  3  6 26 18 22 17             0.000000005
 -12215967.098 9  -9504960.10947  23081042.661    23081042.2974   23081051.8954
 -21220229.556 9 -16523208.22449  20695650.210    20695649.8704   20695656.3224
  -4210280.032 9  -3259504.24346  24248777.076    24248776.9114   24248787.6704
  -4283838.037 9  -3311749.05047  21765145.738    21765145.7234   21765153.1864
 -17150358.860 9 -13353437.75547  22084177.188    22084177.4024   22084184.1664
 -23306837.098 9 -17902645.25449  20595510.426    20595510.1654   20595515.6824
  -6840786.857 9  -5134615.35546  23860879.755    23860879.1374   23860890.2094
 -18236956.931 9 -14199856.16848  20826809.897    20826809.5004   20826816.2074
 01  3  8  2 21  0.0000000  0  8 21 23  3  6 26 18 22 17             0.000000005
 -12281120.892 9  -9555729.14447  23068644.192    23068643.8314   23068653.3694
 -21217847.167 9 -16521351.77349  20696103.564    20696103.2064   20696109.6474
  -4308821.047 9  -3336289.25146  24230025.268    24230025.0534   24230035.7744
  -4199563.274 9  -3246080.43347  21781182.689    21781182.6914   21781190.1514
 -17099689.523 9 -13313955.13647  22093819.173    22093819.4174   22093826.1834
 -23334000.720 9 -17923811.65649  20590341.312    20590341.0644   20590346.5634
  -6802772.728 9  -5104993.94646  23868113.602    23868112.9594   23868124.0114
 -18242578.219 9 -14204236.35348  20825740.164    20825739.7604   20825746.4544
 01  3  8  2 21 30.0000000  0  8 21 23  3  6 26 18 22 17             0.000000005
 -12346035.286 9  -9606311.63347  23056291.284    23056290.9134   23056300.4134
 -21215115.402 9 -16519223.08849  20696623.366    20696622.9964   20696629.4254
  -4407189.196 9  -3412939.54746  24211306.327    24211306.1024   24211316.7574
  -4114923.018 9  -3180127.01347  21797289.212    21797289.2014   21797296.6384
 -17048449.828 9 -13274028.07547  22103569.711    22103569.9974   22103576.6834
 -23360756.480 9 -17944660.24549  20585249.852    20585249.6094   20585255.0764
  -6764379.738 9  -5075077.32346  23875419.525    23875418.8724   23875429.9904
 -18248002.882 9 -14208463.32748  20824707.865    20824707.4654   20824714.1424
 01  3  8  2 22  0.0000000  0  8 21 23  3  6 26 18 22 17             0.000000006
 -12410710.430 9  -9656707.69847  23043983.871    23043983.4934   23043992.9974
 -21212035.716 9 -16516823.29349  20697209.384    20697209.0304   20697215.4234
  -4505382.391 9  -3489453.51846  24192620.652    24192620.4784   24192631.0404
  -4029919.559 9  -3113890.58747  21813464.894    21813464.8634   21813472.2634
 -16996641.992 9 -13233658.31147  22113428.416    22113428.7124   22113435.3874
 -23387105.343 9 -17965191.77549  20580235.789    20580235.5404   20580241.0234
  -6725610.776 9  -5044867.72446  23882797.007    23882796.3444   23882807.4554
 -18253230.650 9 -14212536.87948  20823713.007    20823712.6044   20823719.2944
 01  3  8  2 22 30.0000000  0  8 21 23  3  6 26 18 22 17             0.000000005
 -12475146.568 9  -9706917.51847  23031721.969    23031721.6014   23031730.9764
 -21208610.125 9 -16514153.95549  20697861.228    20697860.8794   20697867.2524
  -4603398.776 9  -3565829.70646  24173968.608    24173968.4504   24173978.9744
  -3944555.331 9  -3047373.03347  21829709.150    21829709.1074   21829716.5794
 -16944268.412 9 -13192847.70147  22123394.803    22123395.0424   22123401.7674
 -23413048.120 9 -17985406.86949  20575298.978    20575298.7274   20575304.1964
  -6686468.573 9  -5014367.30146  23890245.515    23890244.7884   23890255.9574
 -18258261.210 9 -14216456.75948  20822755.682    20822755.2774   20822761.9504
 01  3  8  2 23  0.0000000  0  8 21 23  3  6 26 18 22 17             0.000000006
 -12539342.307 9  -9756940.01547  23019505.834    23019505.4584   23019514.8444
 -21204838.381 9 -16511214.89849  20698578.948    20698578.6024   20698584.9604
  -4701234.173 9  -3642064.87145  24155351.019    24155350.8994   24155361.2824
  -3858830.622 9  -2980574.59547  21846022.029    21846022.0044   21846029.4754
 -16891329.424 9 -13151596.52047  22133468.695    22133468.9784   22133475.6784
 -23438583.813 9 -18005304.76249  20570439.650    20570439.3914   20570444.8504
  -6646953.424 9  -4983576.27046  23897764.957    23897764.2524   23897775.4474
 -18263092.340 9 -14220221.24448  20821836.328    20821835.9334   20821842.5944
 01  3  8  2 23 30.0000000  0  8 21 23  3  6 26 18 22 17             0.000000006
 -12603298.749 9  -9806776.04347  23007335.180    23007334.8344   23007344.1464
 -21200723.383 9 -16508008.36549  20699361.959    20699361.6204   20699367.9814
  -4798887.590 9  -3718158.24345  24136768.071    24136767.9234   24136778.2144
  -3772748.931 9  -2913497.98847  21862402.829    21862402.8244   21862410.2934
 -16837828.284 9 -13109907.30047  22143649.590    22143649.8304   22143656.6124
 -23463714.475 9 -18024887.04349  20565657.407    20565657.1624   20565662.6074
  -6607069.050 9  -4952497.52246  23905354.734    23905354.0774   23905365.1904
 -18267724.560 9 -14223830.73248  20820954.823    20820954.4134   20820961.0794
 01  3  8  2 24  0.0000000  0  8 21 23  3  6 26 18 22 17             0.000000006
 -12667014.582 9  -9856424.58647  22995210.303    22995209.9884   22995219.2584
 -21196265.238 9 -16504534.44949  20700210.256    20700209.9234   20700216.2824
  -4896355.461 9  -3794107.02745  24118220.335    24118220.1444   24118230.4924
  -3686311.326 9  -2846144.04147  21878851.435    21878851.4264   21878858.9194
 -16783765.839 9 -13067780.67747  22153937.297    22153937.5284   22153944.3154
 -23488439.319 9 -18044153.10649  20560952.392    20560952.1494   20560957.5864
  -6566817.187 9  -4921132.43546  23913014.444    23913013.7464   23913024.8624
 -18272155.894 9 -14227283.68548  20820111.534    20820111.1374   20820117.7914
 01  3  8  2 24 30.0000000  0  8 21 23  3  6 26 18 22 17             0.000000006
 -12730490.768 9  -9905886.38347  22983131.073    22983130.7404   22983139.9844
 -21191466.573 9 -16500795.18549  20701123.386    20701123.0514   20701129.4054
  -4993636.408 9  -3869910.15245  24099708.214    24099708.0104   24099718.2974
  -3599521.217 9  -2778515.41147  21895367.061    21895367.0334   21895374.5484
 -16729145.188 9 -13025219.11347  22164331.199    22164331.4534   22164338.2474
 -23512760.213 9 -18063104.39749  20556324.237    20556323.9834   20556329.4154
  -6526201.522 9  -4889483.85446  23920743.301    23920742.5754   23920753.7664
 -18276386.783 9 -14230580.44348  20819306.392    20819306.0044   20819312.6274
 01  3  8  2 25  0.0000000  0  8 21 23  3  6 26 18 22 17             0.000000006
 -12793726.174 9  -9955160.57147  22971097.667    22971097.3514   22971106.5434
 -21186327.284 9 -16496790.50949  20702101.317    20702100.9844   20702107.3104
  -5090726.414 9  -3945564.51845  24081232.441    24081232.2214   24081242.3954
  -3512378.953 9  -2710612.39147  21911949.692    21911949.6634   21911957.2354
 -16673966.822 9 -12982222.96247  22174831.265    22174831.5244   22174838.3234
 -23536675.941 9 -18081739.97749  20551773.155    20551772.8944   20551778.3264
  -6485222.453 9  -4857552.12046  23928541.381    23928540.6664   23928551.7854
 -18280415.098 9 -14233719.35748  20818539.829    20818539.4354   20818546.0284
 01  3  8  2 25 30.0000000  0  8 21 23  3  6 26 18 22 17             0.000000006
 -12856721.969 9 -10004248.04747  22959109.849    22959109.4994   22959118.7214
 -21180850.205 9 -16492522.62249  20703143.535    20703143.2024   20703149.5174
  -5187624.662 8  -4021069.44045  24062793.113    24062792.9154   24062802.9744
  -3424888.100 9  -2642437.73647  21928598.657    21928598.6374   21928606.2614
 -16618234.107 9 -12938794.85247  22185436.842    22185437.0814   22185443.8924
 -23560188.721 9 -18100061.57749  20547298.780    20547298.5214   20547303.9284
  -6443883.557 9  -4825339.98446  23936407.914    23936407.2704   23936418.2844
 -18284241.464 9 -14236700.91048  20817811.644    20817811.2494   20817817.8434
 01  3  8  2 26  0.0000000  0  8 21 23  3  6 26 18 22 17             0.000000006
 -12919477.366 9 -10053148.19647  22947167.779    22947167.3974   22947176.6134
 -21175035.797 9 -16487991.87749  20704249.951    20704249.6064   20704255.9254
  -5284327.823 9  -4096422.38245  24044390.947    24044390.8064   24044400.8184
  -3337049.783 9  -2573992.33347  21945313.721    21945313.6864   21945321.3014
 -16561948.117 9 -12894935.61947  22196147.712    22196147.9574   22196154.7134
 -23583298.335 9 -18118069.02149  20542901.129    20542900.8664   20542906.2594
  -6402186.502 9  -4792848.77146  23944342.586    23944341.9974   23944352.9724
 -18287863.986 9 -14239523.61548  20817122.296    20817121.9064   20817128.4844
 01  3  8  2 26 30.0000000  0  9 14 21 23  3  6 26 18 22 17          0.000000007
  -2603284.279 9  -1998320.87945  24631253.141    24631253.0294   24631266.3834
 -12981997.418 9 -10101864.96247  22935270.487    22935270.1334   22935279.2794
 -21168891.034 9 -16483203.70849  20705419.241    20705418.8974   20705425.2214
  -5380839.241 8  -4171625.91445  24026025.243    24026025.0404   24026035.1354
  -3248871.547 9  -2505282.05047  21962093.507    21962093.4794   21962101.0874
 -16505116.545 9 -12850651.25047  22206962.388    22206962.6104   22206969.3434
 -23606010.783 9 -18135766.98149  20538579.069    20538578.8184   20538584.1664
  -6360139.711 9  -4760085.04446  23952343.729    23952343.1984   23952354.2484
 -18291287.641 9 -14242191.36448  20816470.748    20816470.3674   20816476.9234
 01  3  8  2 27  0.0000000  0  9 14 21 23  3  6 26 18 22 17          0.000000004
  -2716093.843 9  -2086223.90145  24609785.792    24609785.8204   24609798.5964
 -13044274.454 9 -10150392.36747  22923419.465    22923419.0974   22923428.1734
 -21162409.347 9 -16478153.00649  20706652.636    20706652.3034   20706658.6044
  -5477148.141 8  -4246671.63245  24007698.076    24007697.9774   24007707.9444
  -3160347.689 9  -2436302.45147  21978939.085    21978939.0374   21978946.6734
 -16447733.433 9 -12805937.11547  22217881.991    22217882.2104   22217888.9864
 -23628319.047 9 -18153149.99549  20534333.921    20534333.6574   20534339.0024
  -6317737.611 9  -4727044.43546  23960412.584    23960411.9524   23960423.0594
 -18294503.760 9 -14244697.39548  20815858.695    20815858.3014   20815864.8794
 01  3  8  2 27 30.0000000  0  9 14 21 23  3  6 26 18 22 17          0.000000003
  -2828916.715 8  -2174137.28345  24588315.885    24588316.0634   24588328.4904
 -13106309.490 9 -10198731.19847  22911614.457    22911614.0804   22911623.1414
 -21155593.189 9 -16472841.67249  20707949.673    20707949.3254   20707955.6274
  -5573253.275 8  -4321558.59145  23989409.748    23989409.6184   23989419.4854
  -3071481.408 9  -2367056.03647  21995849.762    21995849.7304   21995857.3854
 -16389802.023 9 -12760795.72647  22228905.945    22228906.1394   22228912.8724
 -23650224.663 9 -18170219.24949  20530165.384    20530165.1234   20530170.4644
  -6274983.296 9  -4693729.38546  23968548.493    23968547.8104   23968558.9694
 -18297512.709 9 -14247041.98548  20815286.091    20815285.6984   20815292.2814
 01  3  8  2 28  0.0000000  0  9 14 21 23  3  6 26 18 22 17          0.000000002
  -2941750.118 8  -2262058.87745  24566843.973    24566844.1294   24566856.5504
 -13168101.685 9 -10246880.81247  22899855.654    22899855.3404   22899864.3214
 -21148443.819 9 -16467270.70449  20709310.134    20709309.7934   20709316.0974
  -5669151.756 8  -4396284.52445  23971160.720    23971160.6414   23971170.3254
  -2982274.444 9  -2297544.15547  22012825.338    22012825.2984   22012832.9444
 -16331323.996 9 -12715228.41347  22240033.946    22240034.1544   22240040.8534
 -23671727.966 9 -18186975.02649  20526073.373    20526073.1154   20526078.4474
  -6231878.778 9  -4660141.44546  23976751.038    23976750.3714   23976761.4264
 -18300313.295 9 -14249224.23148  20814753.101    20814752.7364   20814759.3184
 01  3  8  2 28 30.0000000  0  9 14 21 23  3  6 26 18 22 17          0.000000002
  -3054593.262 8  -2349988.05545  24545370.205    24545370.2564   24545382.6334
 -13229652.923 9 -10294842.66347  22888142.745    22888142.4494   22888151.3384
 -21140964.600 9 -16461442.69749  20710733.328    20710732.9784   20710739.2764
  -5764843.060 9  -4470849.03145  23952951.163    23952951.1074   23952960.6444
  -2892730.649 9  -2227769.80047  22029865.022    22029864.9814   22029872.6424
 -16272303.361 9 -12669238.28447  22251265.182    22251265.3994   22251272.1184
 -23692831.415 9 -18203419.21749  20522057.515    20522057.2554   20522062.5744
  -6188428.696 9  -4626284.24846  23985019.337    23985018.6474   23985029.6624
 -18302906.653 9 -14251244.98748  20814259.560    20814259.1684   20814265.7584
 01  3  8  2 29  0.0000000  0  9 14 21 23  3  6 26 18 22 17          0.000000002
  -3167442.549 8  -2437921.98345  24523895.264    24523895.1824   24523907.6534
 -13290963.071 9 -10342616.65747  22876475.684    22876475.3964   22876484.2194
 -21133155.883 9 -16455357.95249  20712219.264    20712218.9294   20712225.1944
  -5860323.687 9  -4545249.37845  23934781.720    23934781.5064   23934791.2274
  -2802851.373 9  -2157734.04147  22046968.519    22046968.4714   22046976.0524
 -16212741.328 9 -12622826.28647  22262599.479    22262599.7024   22262606.3714
 -23713534.863 9 -18219551.73149  20518117.734    20518117.4634   20518122.7654
  -6144634.946 9  -4592159.23346  23993352.998    23993352.2984   23993363.3374
 -18305290.973 9 -14253102.86948  20813805.814    20813805.4424   20813812.0314
 01  3  8  2 29 30.0000000  0  9 14 21 23  3  6 26 18 22 17          0.000000001
  -3280296.308 8  -2525859.46745  24502419.413    24502419.0994   24502432.0814
 -13352032.163 9 -10390202.81947  22864854.471    22864854.1914   22864863.0224
 -21125019.927 9 -16449018.21049  20713767.442    20713767.0974   20713773.3574
  -5955591.904 9  -4619484.19445  23916652.651    23916652.4764   23916662.1964
  -2712639.328 9  -2087438.97547  22064135.337    22064135.3174   22064142.8884
 -16152640.677 9 -12575994.59347  22274036.221    22274036.4854   22274043.1754
 -23733839.301 9 -18235373.31949  20514253.858    20514253.5984   20514258.9064
  -6100500.289 9  -4557768.60346  24001751.505    24001750.8534   24001761.8764
 -18307466.076 9 -14254797.71948  20813391.882    20813391.4994   20813398.0744
 01  3  8  2 30  0.0000000  0  9 14 21 23  3  6 26 18 22 17          0.000000001
  -3393151.954 8  -2613798.42645  24480943.301    24480942.9184   24480955.8064
 -13412860.341 9 -10437601.25547  22853279.155    22853278.8654   22853287.6384
 -21116558.308 9 -16442424.70049  20715377.603    20715377.2434   20715383.5034
  -6050645.559 9  -4693551.82146  23898564.432    23898564.2484   23898573.9524
  -2622097.135 9  -2016886.65047  22081364.964    22081364.9294   22081372.5464
 -16092003.814 9 -12528745.06247  22285575.050    22285575.2574   22285581.9684
 -23753745.913 9 -18250884.91149  20510465.723    20510465.4504   20510470.7474
  -6056027.097 9  -4523114.16246  24010214.453    24010213.8154   24010224.8684
 -18309431.597 9 -14256329.25148  20813017.846    20813017.4484   20813024.0074
 01  3  8  2 30 30.0000000  0  9 14 21 23  3  6 26 18 22 17          0.000000001
  -3506004.953 8  -2701735.35045  24459467.532    24459466.9954   24459479.8784
 -13473445.724 9 -10484810.49947  22841750.044    22841749.7264   22841758.4634
 -21107770.339 9 -16435576.89649  20717049.878    20717049.5154   20717055.7674
  -6145479.944 9  -4767448.58946  23880517.902    23880517.7024   23880527.4404
  -2531224.990 9  -1946077.21747  22098657.401    22098657.3784   22098664.9564
 -16030830.914 9 -12481077.85847  22297215.829    22297216.0794   22297222.8204
 -23773253.417 9 -18266085.51449  20506753.547    20506753.2704   20506758.5494
  -6011216.090 9  -4488196.49746  24018741.666    24018740.9824   24018752.0494
 -18311184.708 9 -14257695.27348  20812684.213    20812683.8194   20812690.3724
 01  3  8  2 31  0.0000000  0  9 14 21 23  3  6 26 18 22 17          0.000000000
  -3618855.590 8  -2789670.45345  24437992.361    24437991.9314   24438004.3014
 -13533791.500 9 -10531833.03947  22830266.513    22830266.1964   22830274.9304
 -21098660.370 9 -16428478.18049  20718783.432    20718783.0654   20718789.2994
  -6240095.529 9  -4841174.84846  23862513.052    23862512.9864   23862522.5294
  -2440027.898 9  -1875014.58147  22116011.675    22116011.6244   22116019.2484
 -15969127.016 9 -12432996.86547  22308957.650    22308957.8704   22308964.6424
 -23792365.516 9 -18280978.00949  20503116.575    20503116.3084   20503121.5804
  -5966072.906 9  -4453019.98646  24027332.071    24027331.4244   24027342.4974
 -18312727.364 9 -14258897.30048  20812390.603    20812390.2224   20812396.7584
 01  3  8  2 31 30.0000000  0  9 14 21 23  3  6 26 18 22 17          0.000000000
  -3731699.189 8  -2877600.07545  24416518.514    24416518.1664   24416530.4794
 -13593895.323 9 -10578667.05747  22818829.032    22818828.7244   22818837.3974
 -21089227.643 9 -16421127.96749  20720578.388    20720578.0334   20720584.2534
  -6334487.395 9  -4914726.78346  23844550.751    23844550.6614   23844560.2434
  -2348505.660 9  -1803698.58747  22133427.782    22133427.7874   22133435.4124
 -15906892.066 9 -12384502.08647  22320800.561    22320800.8014   22320807.5684
 -23811080.315 9 -18295560.92149  20499555.248    20499554.9844   20499560.2444
  -5920598.032 9  -4417585.01946  24035985.647    24035985.0444   24035996.0014
 -18314056.630 9 -14259933.05548  20812137.612    20812137.2274   20812143.7784
 01  3  8  2 32  0.0000000  0  9 14 21 23  3  6 26 18 22 17          0.000000001
  -3844533.127 8  -2965522.19545  24395046.610    24395046.3814   24395058.4634
 -13653757.377 9 -10625312.68047  22807437.593    22807437.3004   22807445.9104
 -21079473.956 9 -16413527.66249  20722434.435    20722434.0974   20722440.3074
  -6428653.514 9  -4988102.80146  23826631.437    23826631.2974   23826640.8634
  -2256660.771 9  -1732131.19247  22150905.306    22150905.2974   22150912.9344
 -15844128.594 9 -12335595.46847  22332744.001    22332744.2134   22332750.9984
 -23829398.992 9 -18309835.17349  20496069.294    20496069.0274   20496074.2724
  -5874793.620 9  -4381893.27046  24044701.992    24044701.3494   24044712.3854
 -18315171.968 9 -14260802.12048  20811925.336    20811924.9544   20811931.5024
 01  3  8  2 32 30.0000000  0  9 14 21 23  3  6 26 18 22 17          0.000000001
  -3957356.558 8  -3053436.16345  24373576.693    24373576.5054   24373588.4244
 -13713378.661 9 -10671770.69347  22796091.920    22796091.5854   22796100.2224
 -21069402.419 9 -16405679.67449  20724350.958    20724350.6204   20724356.8064
  -6522592.986 9  -5061302.20846  23808755.230    23808755.1024   23808764.7344
  -2164496.880 9  -1660315.22147  22168443.517    22168443.5064   22168451.1494
 -15780840.285 9 -12286279.87247  22344787.350    22344787.5454   22344794.2764
 -23847323.856 9 -18323802.54949  20492658.255    20492657.9884   20492663.2424
  -5828663.531 9  -4345947.74646  24053480.265    24053479.6534   24053490.6964
 -18316074.073 9 -14261505.02348  20811753.625    20811753.2634   20811759.8134
 01  3  8  2 33  0.0000000  0  9 14 21 23  3  6 26 18 22 17          0.000000001
  -4070165.941 8  -3141339.19745  24352109.464    24352109.3074   24352120.9994
 -13772758.961 9 -10718040.92447  22784792.118    22784791.7574   22784800.3394
 -21059013.643 9 -16397584.48749  20726327.855    20726327.5124   20726333.7004
  -6616302.486 9  -5134322.41946  23790922.792    23790922.6174   23790932.2694
  -2072015.597 9  -1588251.91947  22186042.154    22186042.1824   22186049.8264
 -15717028.776 9 -12236556.60847  22356930.193    22356930.4194   22356937.1394
 -23864854.924 9 -18337463.07349  20489322.148    20489321.8884   20489327.1364
  -5782209.947 9  -4309750.16245  24062320.074    24062319.4034   24062330.5344
 -18316761.187 9 -14262040.39548  20811622.867    20811622.4744   20811629.0174
 01  3  8  2 33 30.0000000  0  9 14 21 23  3  6 26 18 22 17          0.000000001
  -4182958.658 8  -3229229.24145  24330645.438    24330645.2254   24330657.1434
 -13831898.254 9 -10764123.35347  22773538.199    22773537.8584   22773546.4084
 -21048308.953 9 -16389243.12749  20728364.851    20728364.5024   20728370.6804
  -6709779.467 9  -5207161.44046  23773134.562    23773134.4024   23773144.0294
  -1979218.893 9  -1515942.83747  22203700.798    22203700.8284   22203708.5174
 -15652696.211 9 -12186427.30147  22369172.341    22369172.5544   22369179.1844
 -23881992.580 9 -18350817.03649  20486060.919    20486060.6464   20486065.8764
  -5735435.713 9  -4273302.72045  24071220.916    24071220.2714   24071231.3364
 -18317232.354 9 -14262407.49648  20811533.167    20811532.7864   20811539.3114
 01  3  8  2 34  0.0000000  0  9 14 21 23  3  6 26 18 22 17          0.000000001
  -4295730.693 8  -3317103.19845  24309185.355    24309185.0324   24309196.8044
 -13890795.020 9 -10810016.82247  22762330.403    22762330.0674   22762338.5724
 -21037288.385 9 -16380655.64549  20730461.958    20730461.6104   20730467.7754
  -6803020.037 9  -5279816.25546  23755391.334    23755391.2154   23755400.7494
  -1886107.665 9  -1443388.68047  22221419.309    22221419.2924   22221427.0084
 -15587843.373 9 -12135892.61347  22381513.379    22381513.6404   22381520.2584
 -23898736.319 9 -18363864.06749  20482874.677    20482874.4114   20482879.6224
  -5688341.839 8  -4236606.19145  24080182.576    24080181.9664   24080193.0044
 -18317485.581 9 -14262604.78848  20811484.938    20811484.5594   20811491.0814
 01  3  8  2 34 30.0000000  0  9 14 21 23  3  6 26 18 22 17          0.000000001
  -4408481.826 8  -3404960.85045  24287729.258    24287728.9764   24287740.4944
 -13949451.844 9 -10855723.31647  22751168.298    22751167.9454   22751176.4354
 -21025956.034 9 -16371825.20449  20732618.410    20732618.0774   20732624.2344
  -6896024.220 9  -5352286.84646  23737693.124    23737692.9684   23737702.4364
  -1792686.620 9  -1370593.09647  22239196.774    22239196.7844   22239204.4854
 -15522475.353 9 -12084956.46147  22393952.535    22393952.7394   22393959.3684
 -23915089.729 9 -18376606.93749  20479762.681    20479762.4264   20479767.6434
  -5640932.850 9  -4199664.13745  24089204.189    24089203.5624   24089214.6654
 -18317522.398 9 -14262633.43848  20811477.907    20811477.5244   20811484.0154
 01  3  8  2 35  0.0000000  0  9 14 21 23  3  6 26 18 22 17          0.000000001
  -4521207.482 8  -3492798.66045  24266278.025    24266277.8154   24266289.0434
 -14007867.057 9 -10901241.53447  22740052.146    22740051.7804   22740060.2364
 -21014311.352 9 -16362751.38649  20734834.285    20734833.9534   20734840.0954
  -6988787.448 9  -5424569.68546  23720040.728    23720040.5284   23720049.8974
  -1698955.944 9  -1297556.24647  22257033.141    22257033.1274   22257040.9304
 -15456592.223 9 -12033618.94647  22406489.650    22406489.9194   22406496.5664
 -23931051.180 9 -18389044.38349  20476725.284    20476725.0384   20476730.2234
  -5593209.336 8  -4162476.98945  24098285.618    24098284.9644   24098296.0984
 -18317339.973 9 -14262491.25148  20811512.627    20811512.2404   20811518.7074
 01  3  8  2 35 30.0000000  0 10 14 21 23 28  3  6 26 18 22 17      -0.000000004
  -4633909.883 8  -3580618.34945  24244831.152    24244831.0244   24244842.1064
 -14066045.283 9 -10946575.10147  22728981.108    22728980.7444   22728989.1774
 -21002360.907 9 -16353439.31349  20737108.346    20737108.0094   20737114.1794
  -4467928.850 8  -3474086.60145  24701727.320    24701727.0514   24701737.4354
  -7081312.104 9  -5496666.61946  23702433.703    23702433.5874   23702442.7914
  -1604922.952 9  -1224283.83347  22274927.019    22274927.0194   22274934.8124
 -15390201.364 9 -11981885.79047  22419123.375    22419123.6044   22419130.2674
 -23946626.633 9 -18401181.05549  20473761.338    20473761.0804   20473766.2644
  -5545179.229 8  -4125050.95845  24107425.455    24107424.9674   24107435.9524
 -18316942.391 9 -14262181.41348  20811588.259    20811587.8684   20811594.2944
 01  3  8  2 36  0.0000000  0 10 14 21 23 28  3  6 26 18 22 17      -0.000000006
  -4746581.550 8  -3668414.08545  24223390.216    24223390.0664   24223400.8964
 -14123981.975 9 -10991720.45847  22717956.059    22717955.6974   22717964.0824
 -20990101.233 9 -16343886.28449  20739441.246    20739440.9044   20739447.0734
  -4479267.907 8  -3482922.18345  24699569.544    24699569.2354   24699579.7844
  -7173590.731 9  -5568571.84246  23684873.533    23684873.4544   23684882.6364
  -1510585.017 9  -1150773.78647  22292878.966    22292878.9814   22292886.7214
 -15323300.473 9 -11929755.21147  22431854.224    22431854.4704   22431861.1014
 -23961811.895 9 -18413013.68149  20470871.638    20470871.3914   20470876.5484
  -5496840.496 8  -4087384.43045  24116624.027    24116623.4794   24116634.5254
 -18316323.951 9 -14261699.48148  20811705.940    20811705.5364   20811711.9434
 01  3  8  2 36 30.0000000  0 10 14 21 23 28  3  6 26 18 22 17      -0.000000008
  -4859219.070 8  -3756183.22345  24201955.771    24201955.4464   24201966.4284
 -14181676.735 9 -11036677.29647  22706977.003    22706976.6374   22706985.0034
 -20977532.786 9 -16334092.65449  20741832.909    20741832.5684   20741838.7144
  -4490112.703 8  -3491372.63645  24697505.830    24697505.3234   24697515.7924
  -7265620.064 9  -5640282.81746  23667360.775    23667360.6384   23667369.8344
  -1415943.523 9  -1077027.21547  22310888.684    22310888.6634   22310896.4074
 -15255890.800 9 -11877228.18347  22444681.831    22444682.0804   22444688.6584
 -23976607.174 9 -18424542.42349  20468056.149    20468055.8904   20468061.0334
  -5448194.505 8  -4049478.47345  24125881.046    24125880.4814   24125891.6004
 -18315482.861 9 -14261044.05648  20811865.945    20811865.5454   20811871.9474
 01  3  8  2 37  0.0000000  0 10 14 21 23 28  3  6 26 18 22 17      -0.000000008
  -4971819.435 8  -3843923.39745  24180528.338    24180528.1494   24180538.9604
 -14239128.852 9 -11081445.06847  22696044.104    22696043.7564   22696052.0884
 -20964656.745 9 -16324059.34149  20744283.106    20744282.7824   20744288.8964
  -4500463.279 8  -3499437.96545  24695536.113    24695535.5874   24695546.0524
  -7357397.162 9  -5711797.24846  23649896.063    23649895.9584   23649905.0714
  -1321000.441 9  -1003045.62747  22328955.806    22328955.7964   22328963.5244
 -15187974.316 9 -11824306.23547  22457605.919    22457606.1634   22457612.7504
 -23991012.592 9 -18435767.38049  20465314.847    20465314.5984   20465319.7094
  -5399243.123 8  -4011334.55645  24135196.175    24135195.6014   24135206.6344
 -18314418.149 9 -14260214.37548  20812068.543    20812068.1554   20812074.5394
 01  3  8  2 37 30.0000000  0 10 14 21 23 28  3  6 26 18 22 17      -0.000000009
  -5084381.446 8  -3931633.68145  24159108.183    24159108.0084   24159118.7234
 -14296340.033 9 -11126025.09447  22685157.110    22685156.7734   22685165.0284
 -20951476.313 9 -16313788.83149  20746791.267    20746790.9264   20746797.0314
  -4510321.832 8  -3507119.92345  24693660.125    24693659.5664   24693669.7764
  -7448921.288 9  -5783114.56446  23632479.423    23632479.3454   23632488.4024
  -1225759.667 9   -928832.08147  22347079.564    22347079.5294   22347087.2774
 -15119555.258 9 -11770992.65347  22470625.567    22470625.8494   22470632.4394
 -24005030.876 9 -18446690.66649  20462647.228    20462646.9744   20462652.0784
  -5349990.823 8  -3972956.16245  24144568.605    24144568.1034   24144578.9704
 -18313130.509 9 -14259210.97848  20812313.539    20812313.1364   20812319.5274
 01  3  8  2 38  0.0000000  0 10 14 21 23 28  3  6 26 18 22 17      -0.000000009
  -5196902.495 9  -4019312.06445  24137695.861    24137695.6514   24137706.3704
 -14353310.353 9 -11170417.44547  22674315.916    22674315.5784   22674323.8104
 -20937993.240 9 -16303282.50149  20749356.982    20749356.6294   20749362.7404
  -4519688.797 8  -3514418.81545  24691877.594    24691877.0794   24691887.0524
  -7540189.571 9  -5854232.51446  23615111.493    23615111.4294   23615120.4784
  -1130223.386 9   -854388.26647  22365259.544    22365259.4934   22365267.2814
 -15050635.834 9 -11717289.19747  22483740.544    22483740.7714   22483747.3234
 -24018662.563 9 -18457312.71649  20460053.188    20460052.9304   20460058.0134
  -5300440.583 8  -3934345.60745  24153997.694    24153997.0864   24154008.1214
 -18311619.014 9 -14258033.15648  20812601.142    20812600.7464   20812607.1534
 01  3  8  2 38 30.0000000  0 10 14 21 23 28  3  6 26 18 22 17      -0.000000009
  -5309378.986 9  -4106955.74945  24116292.012    24116291.7204   24116302.3494
 -14410039.149 9 -11214621.59247  22663520.666    22663520.3224   22663528.5774
 -20924207.829 9 -16292540.58449  20751980.209    20751979.8734   20751985.9694
  -4528563.539 8  -3521334.14245  24690188.726    24690188.2794   24690198.1324
  -7631198.812 9  -5925148.62646  23597792.849    23597792.6784   23597801.8684
  -1034393.154 9   -779715.40047  22383495.480    22383495.4784   22383503.1724
 -14981217.707 9 -11663197.13347  22496950.325    22496950.5654   22496957.1734
 -24031907.740 9 -18467633.58249  20457532.694    20457532.4354   20457537.4974
  -5250594.071 8  -3895504.18645  24163483.131    24163482.5894   24163493.5724
 -18309881.834 9 -14256679.47048  20812931.682    20812931.2984   20812937.6874
 01  3  8  2 39  0.0000000  0 10 14 21 23 28  3  6 26 18 22 17      -0.000000009
  -5421809.746 9  -4194563.78545  24094896.892    24094896.5214   24094907.0444
 -14466527.656 9 -11258638.50547  22652771.147    22652770.8334   22652779.0564
 -20910123.439 9 -16281565.69849  20754660.345    20754659.9984   20754666.0954
  -4536948.218 8  -3527867.60745  24688593.185    24688592.8324   24688602.4624
  -7721947.994 9  -5995862.09946  23580523.685    23580523.6244   23580532.6484
   -938272.470 9   -704816.20847  22401786.703    22401786.6864   22401794.3824
 -14911304.616 9 -11608719.39046  22510254.285    22510254.5154   22510261.2234
 -24044768.733 9 -18477655.08949  20455085.275    20455085.0094   20455090.0644
  -5200454.962 8  -3856434.77545  24173024.312    24173023.8044   24173034.6944
 -18307919.418 9 -14255150.28148  20813305.082    20813304.6894   20813311.0644
 01  3  8  2 39 30.0000000  0 10 14 21 23 28  3  6 26 18 22 17      -0.000000008
  -5534190.555 8  -4282132.89445  24073511.308    24073510.9354   24073521.3474
 -14522774.331 9 -11302466.97547  22642067.699    22642067.3834   22642075.5474
 -20895739.481 9 -16270357.38449  20757397.492    20757397.1434   20757403.2454
  -4544841.615 8  -3534018.26745  24687091.071    24687091.0314   24687100.1814
  -7812433.103 9  -6066369.80946  23563304.813    23563304.6444   23563313.7794
   -841862.231 9   -629691.39347  22420132.964    22420132.9654   22420140.7014
 -14840897.640 9 -11553856.80546  22523652.264    22523652.4904   22523659.2194
 -24057244.766 9 -18487376.62849  20452711.143    20452710.8834   20452715.9084
  -5150024.274 8  -3817138.16645  24182620.996    24182620.4204   24182631.2834
 -18305729.450 9 -14253443.78248  20813721.800    20813721.4114   20813727.7644
 01  3  8  2 40  0.0000000  0 10 14 21 23 28  3  6 26 18 22 17      -0.000000008
  -5646520.623 9  -4369662.48045  24052135.341    24052134.9544   24052145.3914
 -14578781.948 9 -11346109.17347  22631409.663    22631409.3614   22631417.5314
 -20881059.725 9 -16258918.58249  20760190.907    20760190.5694   20760196.6564
  -4552246.062 8  -3539787.90045  24685682.028    24685682.0484   24685691.2434
  -7902653.348 9  -6136671.13446  23546136.330    23546136.1104   23546145.2334
   -745166.659 9   -554344.23847  22438533.510    22438533.4874   22438541.2404
 -14770001.034 9 -11498612.69346  22537143.387    22537143.6304   22537150.3844
 -24069338.684 9 -18496800.41849  20450409.707    20450409.4364   20450414.4664
  -5099306.739 8  -3777618.02745  24192272.217    24192271.7094   24192282.6924
 -18303312.894 9 -14251560.72348  20814181.639    20814181.2424   20814187.6114
 01  3  8  2 40 30.0000000  0 10 14 21 23 28  3  6 26 18 22 17      -0.000000008
  -5758795.822 8  -4457149.32645  24030769.768    24030769.4154   24030779.7564
 -14634548.853 9 -11389563.79547  22620797.462    22620797.1884   22620805.3624
 -20866083.852 9 -16247249.02849  20763040.698    20763040.3564   20763046.4414
  -4559160.644 8  -3545175.83645  24684366.154    24684365.9994   24684375.5504
  -7992604.776 9  -6206762.99546  23529019.036    23529018.7894   23529027.8814
   -648186.440 9   -478775.27547  22456988.290    22456988.2904   22456996.0324
 -14698615.837 9 -11442987.84446  22550727.608    22550727.7864   22550734.5284
 -24081049.844 9 -18505925.94649  20448181.092    20448180.8294   20448185.8564
  -5048303.928 8  -3737875.61145  24201977.768    24201977.1804   24201988.3084
 -18300667.370 9 -14249499.23948  20814685.022    20814684.6444   20814691.0024
 01  3  8  2 41  0.0000000  0 10 14 21 23 28  3  6 26 18 22 17      -0.000000008
  -5871014.171 8  -4544591.87745  24009414.933    24009414.6394   24009424.8864
 -14690075.830 9 -11432831.45947  22610230.958    22610230.6534   22610238.8134
 -20850814.422 9 -16235350.73949  20765946.372    20765946.0354   20765952.1034
  -4565586.791 8  -3550183.17945  24683143.270    24683143.1264   24683152.6294
  -8082285.764 9  -6276644.13146  23511953.153    23511952.9444   23511962.0054
   -550924.730 9   -402986.98647  22475496.568    22475496.5774   22475504.3494
 -14626745.345 9 -11386984.84446  22564404.110    22564404.3484   22564411.0544
 -24092379.912 9 -18514754.52549  20446025.022    20446024.7624   20446029.7734
  -4997019.018 8  -3697913.35345  24211737.022    24211736.4444   24211747.4554
 -18297792.758 9 -14247259.25048  20815232.023    20815231.6254   20815237.9914
 01  3  8  2 41 30.0000000  0 10 14 21 23 28  3  6 26 18 22 17      -0.000000008
  -5983172.269 8  -4631987.48245  23988071.670    23988071.4044   23988081.6064
 -14745362.802 9 -11475912.11347  22599710.133    22599709.8264   22599717.9544
 -20835251.946 9 -16223224.10249  20768907.788    20768907.4454   20768913.4994
  -4571524.223 8  -3554809.70045  24682013.380    24682013.2694   24682022.8144
  -8171692.884 9  -6346311.86346  23494939.406    23494939.1724   23494948.1764
   -453383.121 9   -326980.58547  22494058.197    22494058.2174   22494065.9674
 -14554391.330 9 -11330605.08546  22578172.604    22578172.8364   22578179.5364
 -24103329.006 9 -18523286.24749  20443941.466    20443941.1944   20443946.2004
  -4945453.372 8  -3657732.35145  24221549.630    24221549.1404   24221560.0314
 -18294687.486 9 -14244839.52348  20815822.915    20815822.5364   20815828.8804
 01  3  8  2 42  0.0000000  0 10 14 21 23 28  3  6 26 18 22 17      -0.000000008
  -6095268.145 8  -4719334.61745  23966740.328    23966740.0214   23966750.0654
 -14800409.868 9 -11518805.82847  22589234.911    22589234.6094   22589242.7414
 -20819398.834 9 -16210870.99049  20771924.503    20771924.1664   20771930.2234
  -4576974.322 8  -3559056.48545  24680976.190    24680975.9264   24680985.5804
  -8260824.490 9  -6415764.92446  23477978.085    23477977.9254   23477986.7794
   -355564.807 9   -250758.57447  22512672.440    22512672.4514   22512680.1734
 -14481557.194 9 -11273851.19046  22592032.577    22592032.8014   22592039.3314
 -24113899.040 9 -18531522.58349  20441930.012    20441929.7374   20441934.7224
  -4893610.726 8  -3617335.51345  24231414.994    24231414.4214   24231425.3554
 -18291351.521 9 -14242240.03548  20816457.695    20816457.2974   20816463.6334
 01  3  8  2 42 30.0000000  0 10 14 21 23 28  3  6 26 18 22 17      -0.000000008
  -6207299.071 8  -4806631.15145  23945421.249    23945421.1214   23945431.2314
 -14855217.216 9 -11561512.74647  22578805.354    22578805.0594   22578813.1344
 -20803256.806 9 -16198292.75349  20774996.208    20774995.8704   20775001.8984
  -4581937.599 8  -3562923.93545  24680031.619    24680031.4304   24680041.1244
  -8349677.870 9  -6485001.17846  23461069.676    23461069.5304   23461078.3344
   -257472.149 9   -174322.79447  22531338.889    22531338.9284   22531346.5924
 -14408245.272 9 -11216724.99746  22605983.267    22605983.4834   22605990.1174
 -24124090.723 9 -18539464.10849  20439990.563    20439990.2794   20439995.2634
  -4841494.057 8  -3576725.14645  24241332.507    24241331.8354   24241342.7484
 -18287783.832 9 -14239459.98448  20817136.578    20817136.1874   20817142.5024
 01  3  8  2 43  0.0000000  0 10 14 21 23 28  3  6 26 18 22 17      -0.000000007
  -6319261.272 8  -4893874.12945  23924115.267    23924115.0814   23924125.2034
 -14909784.497 9 -11604032.59847  22568421.430    22568421.1374   22568429.2074
 -20786825.961 9 -16185489.46249  20778122.866    20778122.5254   20778128.5464
  -4586413.677 8  -3566411.74245  24679179.855    24679179.4994   24679189.1474
  -8438249.353 9  -6554017.78746  23444215.004    23444214.8884   23444223.5524
   -159106.448 9    -97674.24947  22550057.337    22550057.3504   22550065.0134
 -14334456.923 9 -11159227.55446  22620024.692    22620024.8934   22620031.5284
 -24133903.797 9 -18547110.61349  20438123.175    20438122.8924   20438127.8564
  -4789105.014 8  -3535902.53345  24251301.824    24251301.1644   24251312.1624
 -18283982.361 9 -14236497.76848  20817859.973    20817859.5764   20817865.8814
 01  3  8  2 43 30.0000000  0 10 14 21 23 28  3  6 26 18 22 17      -0.000000007
  -6431153.349 8  -4981062.48145  23902822.657    23902822.5314   23902832.4104
 -14964113.299 9 -11646366.62247  22558082.931    22558082.6354   22558090.6854
 -20770109.004 9 -16172463.22749  20781303.952    20781303.6134   20781309.6224
  -4590404.485 8  -3569521.41345  24678420.421    24678420.2574   24678429.3764
  -8526537.630 9  -6622813.71746  23427414.193    23427414.0304   23427422.6314
    -60471.141 9    -20815.63547  22568827.023    22568827.0364   22568834.7224
 -14260196.136 9 -11101361.99046  22634156.012    22634156.2594   22634162.8944
 -24143340.508 9 -18554463.84549  20436327.376    20436327.0954   20436332.0474
  -4736447.055 8  -3494870.37745  24261322.288    24261321.7264   24261332.6764
 -18279947.431 9 -14233353.63048  20818627.756    20818627.3544   20818633.6364
 01  3  8  2 44  0.0000000  0 10 14 21 23 28  3  6 26 18 22 17      -0.000000007
  -6542971.966 9  -5068193.61245  23881544.086    23881543.9714   23881553.6074
 -15018202.834 9 -11688514.21647  22547789.963    22547789.6704   22547797.6904
 -20753107.267 9 -16159215.08849  20784539.264    20784538.9234   20784544.9184
  -4593910.046 8  -3572252.98145  24677753.321    24677753.0274   24677762.2734
  -8614539.811 9  -6691386.71346  23410667.844    23410667.6824   23410676.2974
     38431.974 9     56251.66647  22587647.697    22587647.6664   22587655.4114
 -14185464.817 9 -11043129.78246  22648376.931    22648377.1554   22648383.7544
 -24152401.167 9 -18561524.05449  20434603.170    20434602.8894   20434607.8404
  -4683522.377 8  -3453630.38645  24271393.500    24271392.7954   24271403.8204
 -18275677.714 9 -14230026.54548  20819440.209    20819439.8124   20819446.0984
 01  3  8  2 44 30.0000000  0 10 14 21 23 28  3  6 26 18 22 17      -0.000000006
  -6654714.336 9  -5155265.31645  23860280.051    23860279.9224   23860289.6534
 -15072052.944 9 -11730475.24247  22537542.557    22537542.2544   22537550.2314
 -20735822.091 9 -16145746.08949  20787828.489    20787828.1564   20787834.1444
  -4596930.927 8  -3574606.86845  24677178.438    24677178.1444   24677187.5784
  -8702253.236 9  -6759734.72046  23393976.498    23393976.3574   23393984.8294
    137600.589 9    133525.84847  22606518.883    22606518.8524   22606526.6064
 -14110265.523 9 -10984532.90046  22662686.882    22662687.1084   22662693.7484
 -24161086.703 9 -18568291.96349  20432950.314    20432950.0434   20432954.9804
  -4630333.400 9  -3412184.46245  24281515.010    24281514.3084   24281525.4424
 -18271172.146 9 -14226515.68248  20820297.598    20820297.1984   20820303.4694
 01  3  8  2 45  0.0000000  0 10 14 21 23 28  3  6 26 18 22 17      -0.000000006
  -6766378.139 9  -5242275.82445  23839031.032    23839030.8034   23839040.3864
 -15125664.456 9 -11772250.33947  22527340.580    22527340.2574   22527348.2094
 -20718255.310 9 -16132057.65049  20791171.303    20791170.9824   20791176.9584
  -4599468.408 8  -3576584.08445  24676695.526    24676695.0414   24676704.8574
  -8789675.727 9  -6827856.02046  23377340.455    23377340.3354   23377348.7104
    237032.078 9    211004.88847  22625440.131    22625440.0544   22625447.8874
 -14034601.328 9 -10925573.76646  22677085.284    22677085.5204   22677092.1694
 -24169398.477 9 -18574768.62149  20431368.622    20431368.3484   20431373.2644
  -4576883.935 9  -3370535.53645  24291686.169    24291685.3564   24291696.5064
 -18266430.292 9 -14222820.69348  20821199.912    20821199.5144   20821205.7724
 01  3  8  2 45 30.0000000  0 10 14 21 23 28  3  6 26 18 22 17      -0.000000006
  -6877959.702 9  -5329222.23845  23817797.625    23817797.3734   23817806.9234
 -15179036.455 9 -11813838.80947  22517184.115    22517183.8084   22517191.7454
 -20700407.827 9 -16118150.48649  20794567.543    20794567.2214   20794573.1964
  -4601522.246 8  -3578184.43045  24676304.708    24676304.0804   24676314.1104
  -8876803.896 9  -6895747.97646  23360760.414    23360760.2724   23360768.7264
    336724.958 9    288687.57747  22644411.056    22644411.0304   22644418.9124
 -13958473.803 9 -10866253.60046  22691571.873    22691572.1124   22691578.7284
 -24177336.503 9 -18580954.05249  20429857.995    20429857.7344   20429862.6324
  -4523175.566 9  -3328684.88645  24301906.577    24301905.7414   24301916.9204
 -18261450.253 9 -14218940.11548  20822147.535    20822147.1474   20822153.3884
 01  3  8  2 46  0.0000000  0 10 14 21 23 28  3  6 26 18 22 17      -0.000000006
  -6989458.299 9  -5416103.99145  23796579.986    23796579.6514   23796589.1934
 -15232171.456 9 -11855242.60847  22507072.776    22507072.4884   22507080.3754
 -20682283.084 9 -16104027.27249  20798016.538    20798016.2134   20798022.1784
  -4603095.145 8  -3579410.01545  24676005.404    24676004.8054   24676014.7014
  -8963637.310 9  -6963410.25846  23344236.463    23344236.3314   23344244.8094
    436674.746 9    366570.47446  22663430.923    22663430.8834   22663438.8244
 -13881887.561 9 -10806575.98946  22706145.747    22706145.9324   22706152.5844
 -24184903.786 9 -18586850.59349  20428417.950    20428417.6814   20428422.5714
  -4469212.596 9  -3286635.81445  24312175.432    24312174.4924   24312185.8574
 -18256232.955 9 -14214874.65648  20823140.334    20823139.9604   20823146.2024
 01  3  8  2 46 30.0000000  0 10 14 21 23 28  3  6 26 18 22 17      -0.000000005
  -7100868.792 9  -5502917.09946  23775379.101    23775378.7794   23775388.1884
 -15285067.231 9 -11896459.99847  22497007.003    22497006.7074   22497014.5564
 -20663879.793 9 -16089687.01049  20801518.527    20801518.1994   20801524.1744
  -4604185.321 8  -3580259.45145  24675797.847    24675797.5224   24675807.1434
  -9050170.907 9  -7030838.90446  23327769.545    23327769.4414   23327777.9204
    536881.566 9    444653.65046  22682499.684    22682499.6034   22682507.5724
 -13804842.761 9 -10746541.06946  22720806.882    22720807.0534   22720813.6874
 -24192098.730 9 -18592456.99749  20427048.753    20427048.4894   20427053.3684
  -4414995.057 9  -3244388.40745  24322492.715    24322491.7394   24322503.1714
 -18250775.101 9 -14210621.75148  20824178.868    20824178.5114   20824184.7494
 01  3  8  2 47  0.0000000  0 10 14 21 23 28  3  6 26 18 22 17      -0.000000005
  -7212190.164 9  -5589660.77046  23754195.138    23754194.7934   23754204.1774
 -15337725.490 9 -11937492.30847  22486986.401    22486986.1144   22486993.8984
 -20645201.481 9 -16075132.44349  20805072.853    20805072.5284   20805078.4994
  -4604795.453 8  -3580734.82845  24675681.692    24675681.2234   24675691.0964
  -9136403.754 9  -7098033.20746  23311359.925    23311359.7924   23311368.2234
    637341.248 9    522933.85646  22701616.545    22701616.4594   22701624.4984
 -13727343.886 9 -10686152.32046  22735554.363    22735554.5634   22735561.1834
 -24198924.122 9 -18597775.43849  20425749.896    20425749.6184   20425754.5074
  -4360527.823 9  -3201946.42745  24332857.499    24332856.6444   24332867.8924
 -18245077.580 9 -14206182.09148  20825263.048    20825262.6814   20825268.9124
 01  3  8  2 47 30.0000000  0 10 14 21 23 28  3  6 26 18 22 17      -0.000000005
  -7323418.565 9  -5676331.99146  23733028.886    23733028.4674   23733037.8324
 -15390145.804 9 -11978339.21347  22477011.075    22477010.7704   22477018.5624
 -20626248.677 9 -16060363.99349  20808679.445    20808679.1114   20808685.0914
  -4604925.332 8  -3580836.00145  24675656.953    24675656.4984   24675666.2104
  -9222332.301 9  -7164990.38446  23295008.173    23295008.0524   23295016.5084
    738052.329 9    601409.96846  22720781.306    22720781.2304   22720789.2414
 -13649392.373 9 -10625410.86946  22750387.970    22750388.2544   22750394.8884
 -24205379.902 9 -18602805.87649  20424521.367    20424521.1084   20424525.9704
  -4305812.878 9  -3159311.42145  24343269.395    24343268.5764   24343279.8064
 -18239138.273 9 -14201554.03048  20826393.240    20826392.8884   20826399.0954
 01  3  8  2 48  0.0000000  0 10 14 21 23 28  3  6 26 18 22 17      -0.000000005
  -7434552.529 9  -5762929.60546  23711880.581    23711880.0784   23711889.5214
 -15442329.166 9 -12019001.46647  22467080.843    22467080.5344   22467088.3264
 -20607023.701 9 -16045383.45049  20812337.834    20812337.4994   20812343.4574
  -4604576.875 8  -3580564.42845  24675723.209    24675722.8424   24675732.4544
  -9307955.376 9  -7231709.53646  23278714.497    23278714.3924   23278722.8064
    839011.488 9    680079.38546  22739993.176    22739993.0804   22740001.0794
 -13570992.113 9 -10564319.73746  22765307.035    22765307.2664   22765313.9104
 -24211468.114 9 -18607549.88549  20423362.781    20423362.5304   20423367.3694
  -4250853.720 9  -3116486.11845  24353727.832    24353726.9864   24353738.3134
 -18232957.264 9 -14196737.62348  20827569.431    20827569.0644   20827575.2764
 01  3  8  2 48 30.0000000  0 10 14 21 23 28  3  6 26 18 22 17      -0.000000005
  -7545587.201 9  -5849449.86546  23690751.117    23690750.6954   23690760.0404
 -15494274.432 9 -12059478.21147  22457195.910    22457195.6174   22457203.3784
 -20587526.084 9 -16030190.47549  20816048.075    20816047.7404   20816053.6784
  -4603748.923 8  -3579919.22345  24675880.703    24675880.3744   24675889.5854
  -9393268.245 9  -7298186.97446  23262479.893    23262479.8414   23262488.1964
    940218.267 9    758941.75146  22759252.259    22759252.1984   22759260.2354
 -13492143.784 9 -10502879.45946  22780311.447    22780311.6484   22780318.2004
 -24217187.858 9 -18612006.79449  20422274.331    20422274.0644   20422278.8904
  -4195650.827 9  -3073470.90245  24364232.611    24364231.8434   24364243.1014
 -18226531.793 9 -14191730.73648  20828792.182    20828791.7884   20828797.9784
 01  3  8  2 49  0.0000000  0 10 14 21 23 28  3  6 26 18 22 17      -0.000000004
  -7656521.914 9  -5935892.23046  23669640.655    23669640.3204   23669649.5994
 -15545983.583 9 -12099770.95947  22447355.932    22447355.6194   22447363.3464
 -20567759.620 9 -16014787.99849  20819809.466    20819809.1364   20819815.0684
  -4602444.274 8  -3578902.58045  24676128.962    24676128.9224   24676137.8684
  -9478270.697 9  -7364422.52046  23246304.368    23246304.3184   23246312.6424
   1041668.211 9    837993.58846  22778557.634    22778557.5134   22778565.5944
 -13412852.136 9 -10441093.75346  22795400.119    22795400.3234   22795406.8974
 -24222542.260 9 -18616179.01049  20421255.372    20421255.1194   20421259.9354
  -4140209.075 9  -3030269.54745  24374782.858    24374782.1004   24374793.2364
 -18219862.964 9 -14186534.20948  20830061.170    20830060.7894   20830066.9884
 01  3  8  2 49 30.0000000  0 10 14 21 23 28  3  6 26 18 22 17      -0.000000004
  -7767353.035 9  -6022253.87846  23648549.928    23648549.7114   23648558.8054
 -15597454.982 9 -12139878.45047  22437561.177    22437560.8604   22437568.5624
 -20547724.773 9 -15999176.39149  20823621.927    20823621.5874   20823627.5284
  -4600663.027 8  -3577514.55045  24676467.940    24676467.7374   24676476.5644
  -9562959.009 9  -7430413.28546  23230188.621    23230188.5754   23230196.8314
   1143359.728 9    917233.66946  22797908.920    22797908.8164   22797916.9154
 -13333118.762 9 -10378963.82846  22810572.893    22810573.0794   22810579.6654
 -24227531.174 9 -18620066.43349  20420305.994    20420305.7374   20420310.5414
  -4084530.708 9  -2986883.83945  24385378.170    24385377.3754   24385388.5494
 -18212948.833 9 -14181146.54848  20831376.812    20831376.4484   20831382.6574
 01  3  8  2 50  0.0000000  0 10 14 21 23 28  3  6 26 18 22 17      -0.000000004
  -7878077.664 9  -6108532.54546  23627479.526    23627479.2674   23627488.3874
 -15648689.537 9 -12179801.38747  22427811.487    22427811.1694   22427818.8544
 -20527423.065 9 -15983356.84549  20827485.222    20827484.8824   20827490.8094
  -4598406.097 8  -3575755.88345  24676897.362    24676897.1304   24676906.0764
  -9647330.396 9  -7496157.09046  23214133.161    23214133.1104   23214141.3334
   1245290.333 9    996660.06046  22817305.729    22817305.6784   22817313.7124
 -13252946.378 9 -10316491.83046  22825829.117    22825829.3074   22825835.9154
 -24232155.707 9 -18623669.91849  20419425.960    20419425.6964   20419430.5144
  -4028618.446 9  -2943315.86245  24396017.922    24396017.1594   24396028.3544
 -18205788.736 9 -14175567.22048  20832739.347    20832738.9754   20832745.1664
 01  3  8  2 50 30.0000000  0 10 14 21 23 28  3  6 26 18 22 17      -0.000000004
  -7988692.859 9  -6194725.94146  23606429.945    23606429.7094   23606438.7504
 -15699687.003 9 -12219539.58447  22418106.912    22418106.5784   22418114.2454
 -20506855.780 9 -15967330.36449  20831398.997    20831398.6634   20831404.5944
  -4595674.111 8  -3573627.03045  24677417.151    24677416.8404   24677426.0474
  -9731382.601 9  -7561652.18946  23198138.459    23198138.4044   23198146.6404
   1347458.063 9   1076271.21746  22836747.644    22836747.5894   22836755.6544
 -13172337.473 9 -10253679.68546  22841168.502    22841168.7084   22841175.2434
 -24236416.518 9 -18626989.99449  20418615.115    20418614.8574   20418619.6634
  -3972474.311 9  -2899567.21545  24406701.779    24406701.0334   24406712.2294
 -18198381.449 9 -14169795.28348  20834148.862    20834148.4894   20834154.6794
 01  3  8  2 51  0.0000000  0 10 14 21 23 28  3  6 26 18 22 17      -0.000000004
  -8099197.470 9  -6280833.17946  23585401.449    23585401.1574   23585410.1714
 -15750449.716 9 -12259094.84447  22408447.036    22408446.6654   22408454.3574
 -20486026.090 9 -15951099.40549  20835362.715    20835362.3894   20835368.3154
  -4592469.567 8  -3571129.93045  24678026.938    24678026.5174   24678035.6514
  -9815114.269 9  -7626897.50546  23182204.743    23182204.6644   23182212.9204
   1449858.915 9   1156064.02446  22856233.906    22856233.8984   22856241.9964
 -13091296.327 9 -10190530.71846  22856590.089    22856590.3524   22856596.8724
 -24240316.390 9 -18630028.81049  20417872.951    20417872.6914   20417877.5004
  -3916102.349 9  -2855641.03945  24417429.026    24417428.3064   24417439.4354
 -18190727.317 9 -14163830.99748  20835605.373    20835604.9914   20835611.1884
 01  3  8  2 51 30.0000000  0 10 14 21 23 28  3  6 26 18 22 17      -0.000000003
  -8209586.940 9  -6366850.70846  23564394.895    23564394.6104   23564403.4524
 -15800976.465 9 -12298466.24847  22398832.092    22398831.7414   22398839.3624
 -20464933.658 9 -15934663.71048  20839376.453    20839376.1204   20839382.0394
  -4588791.750 8  -3568264.04945  24678726.760    24678726.6544   24678735.8674
  -9898521.176 9  -7691889.77246  23166332.805    23166332.7024   23166340.9274
   1552492.328 9   1236038.04846  22875764.424    22875764.4174   22875772.4754
 -13009823.799 9 -10127045.62046  22872093.782    22872093.9994   22872100.4904
 -24243854.490 9 -18632785.73149  20417199.636    20417199.3874   20417204.1844
  -3859503.874 9  -2811538.35745  24428199.396    24428198.6804   24428209.7804
 -18182823.409 9 -14157672.07348  20837109.399    20837109.0404   20837115.2334
 01  3  8  2 52  0.0000000  0 10 14 21 23 28  3  6 26 18 22 17      -0.000000003
  -8319859.115 9  -6452776.82246  23543410.580    23543410.2274   23543419.0644
 -15851267.901 9 -12337654.27947  22389261.874    22389261.5274   22389269.1144
 -20443580.639 9 -15918024.96448  20843439.758    20843439.4174   20843445.3444
  -4584641.990 8  -3565030.44545  24679516.408    24679516.3274   24679525.5894
  -9981601.262 9  -7756627.38246  23150523.107    23150523.0074   23150531.2374
   1655355.236 9   1316190.90746  22895338.610    22895338.5774   22895346.7034
 -12927923.091 9 -10063226.85546  22887678.971    22887679.2194   22887685.6594
 -24247032.396 9 -18635261.97949  20416594.871    20416594.6164   20416599.3924
  -3802682.509 9  -2767261.99745  24439012.188    24439011.4444   24439022.6854
 -18174669.249 9 -14151318.15348  20838661.057    20838660.6854   20838666.8574
 01  3  8  2 52 30.0000000  0 10 14 21 23 28  3  6 26 18 22 17      -0.000000002
  -8430011.277 9  -6538609.44846  23522449.127    23522448.7384   23522457.6244
 -15901324.006 9 -12376658.94747  22379736.461    22379736.1014   22379743.6514
 -20421968.749 9 -15901184.50248  20847552.310    20847551.9804   20847557.9034
  -4580021.664 8  -3561430.16845  24680395.635    24680395.3474   24680404.8204
 -10064352.340 9  -7821108.60646  23134776.018    23134775.8684   23134784.1064
   1758445.154 9   1396520.64046  22914955.996    22914955.9664   22914964.0814
 -12845597.204 9  -9999076.80646  22903345.051    22903345.2844   22903351.7544
 -24249851.282 9 -18637458.47749  20416058.430    20416058.1774   20416062.9334
  -3745640.972 9  -2722814.08445  24449866.836    24449866.0994   24449877.3464
 -18166264.267 9 -14144768.79248  20840260.472    20840260.0984   20840266.2524
 01  3  8  2 53  0.0000000  0  9 14 21 23  3  6 26 18 22 17          0.000000002
  -8540041.043 9  -6624346.71146  23501510.976    23501510.5834   23501519.3584
 -15951145.735 9 -12415480.97347  22370255.603    22370255.2254   22370262.7634
 -20400099.896 9 -15884143.80248  20851713.822    20851713.4894   20851719.3934
 -10146772.265 9  -7885331.80046  23119091.996    23119091.8564   23119099.9774
   1861759.306 9   1477025.11746  22934616.049    22934616.0664   22934624.1404
 -12762849.251 9  -9934597.84346  22919091.505    22919091.6934   22919098.1344
 -24252312.548 9 -18639376.30149  20415590.025    20415589.7614   20415594.5114
  -3688382.086 9  -2678196.78845  24460762.915    24460762.1474   24460773.4284
 -18157607.973 9 -14138023.59548  20841907.682    20841907.3084   20841913.4714
 01  3  8  2 53 30.0000000  0  9 14 21 23  3  6 26 18 22 17          0.000000007
  -8649938.695 9  -6709981.00546  23480597.975    23480597.5814   23480606.2874
 -16000726.409 9 -12454115.17047  22360820.627    22360820.2474   22360827.7824
 -20377968.736 9 -15866898.71348  20855925.212    20855924.8744   20855930.7544
 -10228851.636 9  -7949289.63846  23103472.726    23103472.5594   23103480.6904
   1965301.994 9   1557707.66946  22954319.644    22954319.5954   22954327.7704
 -12679675.195 9  -9869786.88146  22934918.963    22934919.1364   22934925.5624
 -24254410.455 9 -18641010.99449  20415190.778    20415190.5284   20415195.2564
  -3630901.686 9  -2633406.90045  24471701.052    24471700.3754   24471711.6204
 -18148692.525 9 -14131076.47148  20843604.230    20843603.8434   20843609.9884
 01  3  8  2 54  0.0000000  0  9 14 21 23  3  6 26 18 22 17          0.000000009
  -8759711.455 9  -6795518.00546  23459708.765    23459708.3624   23459716.9634
 -16050075.873 9 -12492569.20347  22351429.671    22351429.2984   22351436.8164
 -20355586.606 9 -15849458.06248  20860184.341    20860184.0054   20860189.9024
 -10310597.916 9  -8012987.91446  23087916.837    23087916.6884   23087924.7864
   2069060.918 9   1638558.72346  22974064.399    22974064.3364   22974072.5164
 -12596087.375 9  -9804653.48846  22950825.120    22950825.3154   22950831.7714
 -24256155.813 9 -18642370.97549  20414858.613    20414858.3584   20414863.0834
  -3573212.751 9  -2588454.51545  24482678.882    24482678.2344   24482689.4484
 -18139526.878 9 -14123934.38748  20845348.332    20845347.9564   20845354.0884
 01  3  8  2 54 30.0000000  0  9 14 21 23  3  6 26 18 22 17          0.000000011
  -8869354.456 9  -6880953.89246  23438844.226    23438843.7764   23438852.2804
 -16099193.036 9 -12530842.22047  22342082.904    22342082.5484   22342090.0004
 -20332952.839 9 -15831821.33248  20864491.390    20864491.0634   20864496.9504
 -10392006.556 9  -8076423.09846  23072425.174    23072425.0524   23072433.0924
   2173035.792 9   1719578.04246  22993850.230    22993850.1994   22993858.3584
 -12512086.644 9  -9739198.35846  22966809.896    22966810.1384   22966816.6004
 -24257547.642 9 -18643455.47749  20414593.709    20414593.4714   20414598.1864
  -3515316.137 9  -2543340.29945  24493696.286    24493695.7374   24493706.9174
 -18130107.828 9 -14116594.84448  20847140.718    20847140.3354   20847146.4514
 01  3  8  2 55  0.0000000  0  9 14 21 23  3  6 26 18 22 17          0.000000012
  -8978864.898 9  -6966286.48646  23418004.878    23418004.4744   23418012.9324
 -16148077.760 9 -12568934.10647  22332780.374    22332780.0484   22332787.4354
 -20310069.064 9 -15813989.78648  20868845.988    20868845.6494   20868851.5414
 -10473074.698 9  -8139592.95246  23056998.333    23056998.1634   23057006.1644
   2277224.189 9   1800763.74846  23013676.697    23013676.6234   23013684.8164
 -12427675.682 9  -9673423.57546  22982872.737    22982872.9284   22982879.4014
 -24258587.017 9 -18644265.33749  20414395.893    20414395.6484   20414400.3464
  -3457214.123 8  -2498066.03645  24504752.677    24504752.2234   24504763.3634
 -18120434.521 9 -14109057.17048  20848981.456    20848981.0814   20848987.1914
 01  3  8  2 55 30.0000000  0 10 14 21 23  3  6 26 18 29 22 17       0.000000013
  -9088239.297 9  -7051513.06646  23397191.400    23397191.0324   23397199.4544
 -16196730.033 9 -12606844.87647  22323522.054    22323521.7474   22323529.1194
 -20286936.190 9 -15795964.13848  20873248.001    20873247.6714   20873253.5384
 -10553799.602 9  -8202495.35546  23041636.800    23041636.6374   23041644.5834
   2381623.996 9   1882114.17946  23033543.361    23033543.3094   23033551.4904
 -12342856.805 9  -9607330.90946  22999013.223    22999013.4744   22999019.9514
 -24259274.490 9 -18644800.99449  20414265.029    20414264.7794   20414269.4684
  -1065150.158 8   -809108.87143         0.000           0.0004   24437430.1614
  -3398908.826 8  -2452633.36745  24515847.787    24515847.1634   24515858.4954
 -18110505.611 9 -14101320.33348  20850870.834    20850870.4634   20850876.6024
 01  3  8  2 56  0.0000000  0 10 14 21 23  3  6 26 18 29 22 17       0.000000022
  -9197475.166 9  -7136631.71246  23376404.324    23376404.0324   23376412.3444
 -16245150.208 9 -12644574.78447  22314307.935    22314307.6274   22314314.9764
 -20263555.818 9 -15777745.63148  20877697.142    20877696.8014   20877702.6764
 -10634178.924 9  -8265128.47346  23026341.024    23026340.8864   23026348.8084
   2486232.899 9   1963627.54846  23053449.827    23053449.7794   23053457.9934
 -12257632.835 9  -9540922.61246  23015230.738    23015230.9974   23015237.5004
 -24259611.173 9 -18645063.29949  20414200.938    20414200.6934   20414205.3594
  -1174444.978 8   -894273.22845  24416623.276    24416620.2464   24416632.5814
  -3340403.254 8  -2407044.63845  24526981.058    24526980.4454   24526991.7244
 -18100319.888 9 -14093383.37748  20852809.095    20852808.7214   20852814.8514
 01  3  8  2 56 30.0000000  0 10 14 21 23  3  6 26 18 29 22 17       0.000000021
  -9306569.686 9  -7221640.22946  23355644.131    23355643.9054   23355652.0804
 -16293338.156 9 -12682123.74047  22305137.995    22305137.6754   22305144.9984
 -20239929.522 9 -15759335.50048  20882193.045    20882192.6894   20882198.5654
 -10714209.974 9  -8327490.21246  23011111.481    23011111.3304   23011119.2784
   2591048.368 9   2045301.87046  23073395.572    23073395.5114   23073403.7314
 -12172006.671 9  -9474200.90946  23031524.861    23031525.1674   23031531.5274
 -24259598.155 9 -18645053.11749  20414203.419    20414203.1714   20414207.8304
  -1283705.541 8   -979410.96745  24395830.074    24395828.6794   24395840.0434
  -3281700.559 8  -2361302.31745  24538151.783    24538151.0914   24538162.3954
 -18089876.475 9 -14085245.63948  20854796.381    20854796.0154   20854802.1384
 01  3  8  2 57  0.0000000  0 10 14 21 23  3  6 26 18 29 22 17       0.000000019
  -9415520.300 9  -7306536.59746  23334911.402    23334911.1584   23334919.2364
 -16341294.650 9 -12719492.33747  22296012.084    22296011.7534   22296019.0644
 -20216058.896 9 -15740734.98048  20886735.439    20886735.1044   20886740.9794
 -10793890.545 9  -8389578.83846  22995948.706    22995948.5464   22995956.4394
   2696067.691 9   2127135.04046  23093380.113    23093380.0364   23093388.3164
 -12085981.184 9  -9407168.04246  23047894.943    23047895.2544   23047901.6834
 -24259237.109 9 -18644771.74249  20414272.093    20414271.8444   20414276.4904
  -1392929.752 8  -1064520.37445  24375044.586    24375044.2684   24375055.2714
  -3222803.715 8  -2315408.70445  24549359.510    24549358.8424   24549370.1824
 -18079174.615 9 -14076906.49648  20856832.880    20856832.5054   20856838.6274
 01  3  8  2 57 30.0000000  0 10 14 21 23  3  6 26 18 29 22 17       0.000000018
  -9524323.790 9  -7391318.34146  23314206.562    23314206.3414   23314214.3904
 -16389019.818 9 -12756680.68947  22286930.222    22286929.9194   22286937.2214
 -20191944.850 9 -15721944.78148  20891324.159    20891323.8084   20891329.6964
 -10873217.639 9  -8451392.03446  22980853.154    22980852.9674   22980860.7934
   2801288.951 9   2209125.56946  23113403.109    23113403.0644   23113411.3034
 -11999558.727 9  -9339825.85046  23064340.578    23064340.8094   23064347.1614
 -24258528.209 9 -18644219.31249  20414406.961    20414406.7104   20414411.3424
  -1502114.521 8  -1149599.04545  24354266.957    24354266.5044   24354277.7934
  -3163714.526 8  -2269365.20645  24560603.827    24560603.1284   24560614.4714
 -18068212.771 9 -14068364.77548  20858918.821    20858918.4714   20858924.5524
 01  3  8  2 58  0.0000000  0 10 14 21 23  3  6 26 18 29 22 17       0.000000017
  -9632975.965 9  -7475982.16946  23293530.576    23293530.3454   23293538.3154
 -16436512.568 9 -12793687.92847  22277892.564    22277892.2664   22277899.5244
 -20167587.506 9 -15702965.00048  20895959.160    20895958.8094   20895964.6894
 -10952187.297 9  -8512926.70546  22965825.596    22965825.4504   22965833.2104
   2906710.953 9   2291272.51546  23133464.227    23133464.2264   23133472.4624
 -11912740.844 9  -9272175.53746  23080861.438    23080861.6824   23080868.0564
 -24257471.429 9 -18643395.80549  20414608.034    20414607.7814   20414612.4024
  -1611255.914 8  -1234643.90345  24333497.820    24333496.9814   24333508.8874
  -3104434.395 8  -2223172.93645  24571884.492    24571883.8694   24571895.1964
 -18056988.658 9 -14059618.68548  20861054.689    20861054.3134   20861060.3904
 01  3  8  2 58 30.0000000  0 10 14 21 23  3  6 26 18 29 22 17       0.000000017
  -9741475.386 9  -7560526.95446  23272883.648    23272883.4094   23272891.3494
 -16483774.481 9 -12830515.30147  22268898.848    22268898.5524   22268905.7774
 -20142989.723 9 -15683797.86448  20900639.932    20900639.5884   20900645.4604
 -11030798.535 9  -8574182.08646  22950866.265    22950866.1174   22950873.8664
   3012329.970 9   2373572.98146  23153562.898    23153562.8824   23153571.1624
 -11825531.629 9  -9204220.29946  23097456.785    23097456.9544   23097463.4064
 -24256069.030 9 -18642302.98449  20414874.869    20414874.6174   20414879.2294
  -1720353.073 8  -1319654.29845  24312737.052    24312736.5334   24312748.2974
  -3044967.627 8  -2176835.23445  24583200.610    24583199.9854   24583211.4354
 -18045502.650 9 -14050668.52148  20863240.394    20863240.0204   20863246.0764
 01  3  8  2 59  0.0000000  0 10 14 21 23  3  6 26 18 29 22 17       0.000000017
  -9849817.716 9  -7644949.34946  23252266.599    23252266.3314   23252274.3174
 -16530804.633 9 -12867162.07847  22259949.239    22259948.9384   22259956.1454
 -20118151.453 9 -15664443.33748  20905366.455    20905366.1364   20905371.9824
 -11109047.154 9  -8635154.91346  22935975.965    22935975.8154   22935983.5504
   3118145.106 9   2456026.28146  23173698.939    23173698.8524   23173707.1744
 -11737932.200 9  -9135960.98646  23114126.436    23114126.6234   23114133.0804
 -24254320.451 9 -18640940.41849  20415207.579    20415207.3264   20415211.9344
  -1829401.719 8  -1404626.90845  24291985.693    24291985.1504   24291996.9144
  -2985315.707 8  -2130353.25845  24594551.994    24594551.3064   24594562.7974
 -18033752.155 9 -14041512.27348  20865476.391    20865476.0424   20865482.0764
 01  3  8  2 59 30.0000000  0 10 14 21 23  3  6 26 18 29 22 17       0.000000017
  -9958001.722 9  -7729248.38046  23231679.765    23231679.5034   23231687.3734
 -16577604.266 9 -12903629.23047  22251043.472    22251043.1444   22251050.3424
 -20093075.870 9 -15644903.89448  20910138.173    20910137.8534   20910143.6904
 -11186932.342 9  -8695844.53946  22921154.802    22921154.6954   22921162.4024
   3224152.311 9   2538629.23846  23193871.518    23193871.3974   23193879.6904
 -11649946.945 9  -9067401.03446  23130869.499    23130869.5824   23130876.1454
 -24252228.762 9 -18639310.49249  20415605.593    20415605.3214   20415609.9214
  -1938401.056 8  -1489561.11345  24271243.677    24271243.0394   24271254.8854
  -2925482.874 8  -2083730.30645  24605937.781    24605937.1834   24605948.6934
 -18021737.852 9 -14032150.45048  20867762.669    20867762.2894   20867768.3034
 01  3  8  3  0  0.0000000  0 10 14 21 23  3  6 26 18 29 22 17       0.000000017
 -10066025.011 9  -7813422.16946  23211123.464    23211123.1544   23211131.0724
 -16624174.470 9 -12939917.61747  22242181.381    22242181.0694   22242188.2604
 -20067765.132 9 -15625181.21048  20914954.636    20914954.3084   20914960.1474
 -11264452.309 9  -8756249.59146  22906403.164    22906403.0184   22906410.7084
   3330348.544 9   2621379.48446  23214080.050    23214079.9564   23214088.2674
 -11561579.267 9  -8998543.08546  23147685.322    23147685.4304   23147691.9524
 -24249795.317 9 -18637414.26249  20416068.613    20416068.3604   20416072.9364
  -2047348.798 8  -1574455.09545  24250511.425    24250510.7814   24250522.4844
  -2865471.806 8  -2036968.47945  24617357.507    24617356.9584   24617368.4454
 -18009459.084 9 -14022582.55048  20870099.200    20870098.8214   20870104.8134
 01  3  8  3  0 30.0000000  0 10 14 21 23  3  6 26 18 29 22 17       0.000000018
 -10173883.495 9  -7897467.53546  23190598.514    23190598.1834   23190606.0274
 -16670514.329 9 -12976026.50447  22233363.136    22233362.8234   22233370.0214
 -20042219.448 9 -15605275.44648  20919815.804    20919815.4734   20919821.3034
 -11341602.986 9  -8816366.87747  22891721.800    22891721.6514   22891729.3134
   3436732.708 9   2704276.17546  23234324.311    23234324.2324   23234332.5124
 -11472830.600 9  -8929388.25946  23164573.644    23164573.7594   23164580.3124
 -24247019.964 9 -18635251.60849  20416596.705    20416596.4554   20416601.0244
  -2156241.421 8  -1659306.15145  24229789.607    24229789.0564   24229800.7074
  -2805284.030 8  -1990068.95245  24628810.875    24628810.2494   24628821.8104
 -17996913.832 9 -14012807.00148  20872486.439    20872486.0694   20872492.0954
 01  3  8  3  1  0.0000000  0 10 14 21 23  3  6 26 18 29 22 17       0.000000018
 -10281575.485 9  -7981383.17346  23170105.272    23170104.9714   23170112.7474
 -16716625.790 9 -13011957.43547  22224588.390    22224588.0484   22224595.2044
 -20016441.054 9 -15585188.36248  20924721.238    20924720.8874   20924726.7124
 -11418383.385 9  -8876195.63947  22877110.892    22877110.7164   22877118.3734
   3543301.383 9   2787316.63846  23254603.734    23254603.6034   23254611.9604
 -11383704.871 9  -8859939.62446  23181533.679    23181533.8084   23181540.4184
 -24243904.642 9 -18632824.04949  20417189.517    20417189.2544   20417193.8174
  -2265077.388 8  -1744113.06445  24209078.527    24209078.0944   24209089.5624
  -2744923.907 8  -1943035.13145  24640297.027    24640296.5284   24640307.9204
 -17984102.101 9 -14002823.81748  20874924.392    20874924.0314   20874930.0744
 01  3  8  3  1 30.0000000  0 10 14 21 23  3  6 26 18 29 22 17       0.000000018
 -10389098.307 9  -8065166.99046  23149644.184    23149643.9654   23149651.6494
 -16762508.695 9 -13047710.25747  22215857.098    22215856.7634   22215863.8734
 -19990431.665 9 -15564921.26548  20929670.644    20929670.2914   20929676.1194
 -11494790.891 9  -8935733.83747  22862570.936    22862570.7624   22862578.3474
   3650051.963 9   2870498.84646  23274917.737    23274917.6204   23274925.8604
 -11294204.832 9  -8790199.31746  23198564.892    23198565.0874   23198571.7134
 -24240450.752 9 -18630132.65749  20417846.719    20417846.4494   20417851.0124
  -2373854.478 8  -1828874.09945  24188378.625    24188378.3144   24188389.7444
  -2684394.408 8  -1895869.32945  24651815.434    24651814.9144   24651826.4364
 -17971022.989 9 -13992632.26848  20877413.264    20877412.8784   20877418.9204
 01  3  8  3  2  0.0000000  0 10 14 21 23  3  6 26 18 29 22 17       0.000000018
 -10496448.120 9  -8148815.99846  23129216.088    23129215.7974   23129223.5384
 -16808162.538 9 -13083284.59547  22207169.378    22207169.0474   22207176.1424
 -19964191.876 9 -15544474.64648  20934663.881    20934663.5344   20934669.3534
 -11570822.297 9  -8994978.98247  22848102.595    22848102.4284   22848109.9574
   3756982.896 9   2953821.58946  23295266.100    23295265.9734   23295274.2914
 -11204332.743 9  -8720169.11446  23215666.898    23215667.0984   23215673.7534
 -24236658.694 9 -18627177.77049  20418568.296    20418568.0404   20418572.5884
  -2482569.086 8  -1913586.42145  24167690.517    24167690.3874   24167701.7144
  -2623696.959 8  -1848572.66145  24663365.767    24663365.1384   24663376.7214
 -17957674.444 9 -13982230.77948  20879953.385    20879952.9994   20879959.0394
 01  3  8  3  2 30.0000000  0 10 14 21 23  3  6 26 18 29 22 17       0.000000018
 -10603622.836 9  -8232328.56146  23108821.273    23108821.0364   23108828.6184
 -16853588.667 9 -13118681.49447  22198525.004    22198524.6814   22198531.7454
 -19937723.699 9 -15523850.06648  20939700.573    20939700.2274   20939706.0314
 -11646475.838 9  -9053929.68147  22833706.112    22833705.9354   22833713.3904
   3864091.078 9   3037282.44146  23315648.180    23315648.0234   23315656.4084
 -11114091.811 9  -8649851.49546  23232839.222    23232839.3904   23232846.1114
 -24232530.142 9 -18623960.67849  20419353.913    20419353.6464   20419358.1844
  -2591219.370 8  -1998248.64045  24147014.694    24147014.7104   24147025.9784
  -2562834.802 8  -1801147.64145  24674947.466    24674946.7494   24674958.4014
 -17944056.057 9 -13971619.03048  20882544.885    20882544.5054   20882550.5164
 01  3  8  3  3  0.0000000  0 10 14 21 23  3  6 26 18 29 22 17       0.000000018
 -10710619.475 9  -8315702.37346  23088460.326    23088460.0624   23088467.6234
 -16898787.403 9 -13153901.20947  22189923.893    22189923.5564   22189930.6074
 -19911028.327 9 -15503048.44748  20944780.513    20944780.1714   20944785.9814
 -11721748.273 9  -9112583.42047  22819382.165    22819381.9914   22819389.4084
   3971374.444 9   3120879.80846  23336063.553    23336063.3794   23336071.8454
 -11023484.679 9  -8579248.51446  23250081.143    23250081.3444   23250087.8934
 -24228065.798 9 -18620481.93149  20420203.397    20420203.1484   20420207.6784
  -2699802.487 8  -2082858.53345  24126351.704    24126351.7844   24126362.9124
  -2501810.380 8  -1753596.19245  24686560.026    24686559.4014   24686571.1274
 -17930166.789 9 -13960796.19348  20885187.894    20885187.4964   20885193.5324
 01  3  8  3  3 30.0000000  0 10 14 21 23  3  6 26 18 29 22 17       0.000000018
 -10817436.572 9  -8398936.27546  23068133.506    23068133.2944   23068140.8494
 -16943760.148 9 -13188944.82947  22181365.824    22181365.4704   22181372.5104
 -19884108.692 9 -15482072.08148  20949903.128    20949902.7844   20949908.5924
 -11796639.012 9  -9170939.74547  22805130.821    22805130.7174   22805138.0404
   4078828.867 9   3204610.46846  23356511.496    23356511.3434   23356519.7474
 -10932515.614 9  -8508363.52346  23267391.993    23267392.2294   23267398.7244
 -24223268.535 9 -18616743.76649  20421116.273    20421116.0354   20421120.5504
  -2808317.666 8  -2167415.47645  24105701.623    24105701.7504   24105712.8064
  -2440628.779 8  -1705922.23545  24698202.512    24698201.8614   24698213.4984
 -17916007.119 9 -13949762.65848  20887882.378    20887881.9804   20887888.0124
 01  3  8  3  4  0.0000000  0 10 14 21 23  3  6 26 18 29 22 17       0.000000019
 -10924069.650 9  -8482026.79046  23047841.694    23047841.5724   23047849.0414
 -16988505.839 9 -13223811.51947  22172850.935    22172850.5754   22172857.6124
 -19856964.433 9 -15460920.68048  20955068.474    20955068.1084   20955073.9154
 -11871143.937 9  -9228995.43247  22790952.921    22790952.7724   22790960.1404
   4186453.805 9   3288474.00246  23376991.854    23376991.7454   23377000.1764
 -10841185.747 9  -8437197.37546  23284771.457    23284771.7484   23284778.2634
 -24218137.455 9 -18612745.48549  20422092.648    20422092.4004   20422096.9054
  -2916760.200 8  -2251915.80345  24085065.382    24085065.6574   24085076.5054
  -2379290.459 8  -1658126.18445  24709874.888    24709874.3394   24709885.7754
 -17901574.077 9 -13938516.10348  20890628.867    20890628.4894   20890634.4884
 01  3  8  3  4 30.0000000  0 10 14 21 23  3  6 26 18 29 22 17       0.000000019
 -11030517.147 9  -8564972.68846  23027585.302    23027585.1454   23027592.6634
 -17033025.740 9 -13258502.26847  22164378.990    22164378.6504   22164385.6674
 -19829598.142 9 -15439596.26248  20960276.093    20960275.7334   20960281.5424
 -11945261.692 9  -9286749.43447  22776848.711    22776848.5664   22776855.8734
   4294245.546 9   3372467.49946  23397503.991    23397503.9254   23397512.3664
 -10749499.039 9  -8365753.17446  23302218.879    23302219.1104   23302225.6934
 -24212674.964 9 -18608488.95749  20423132.082    20423131.8304   20423136.3454
  -3025129.120 8  -2336358.76545  24064443.215    24064443.4634   24064454.3774
  -2317799.109 8  -1610210.88645  24721576.492    24721575.9004   24721587.5074
 -17886868.074 9 -13927056.85548  20893427.313    20893426.9224   20893432.9184
 01  3  8  3  5  0.0000000  0 10 14 21 23  3  6 26 18 29 22 17       0.000000019
 -11136776.335 9  -8647771.87046  23007364.693    23007364.5234   23007372.0114
 -17077320.045 9 -13293017.23747  22155949.992    22155949.6654   22155956.6704
 -19802011.505 9 -15418100.16248  20965525.613    20965525.2494   20965531.0594
 -12018990.193 9  -9344200.12247  22762818.577    22762818.4494   22762825.7094
   4402201.156 9   3456588.68546  23418047.302    23418047.2134   23418055.7424
 -10657458.551 9  -8294033.31346  23319733.617    23319733.8654   23319740.4274
 -24206882.282 9 -18603975.15249  20424234.369    20424234.1174   20424238.6344
  -3133421.874 8  -2420742.40445  24043835.590    24043835.6694   24043846.6364
  -2256157.657 8  -1562178.61045  24733306.499    24733305.7584   24733317.4524
 -17871888.141 9 -13915384.17048  20896277.874    20896277.5084   20896283.4924
 01  3  8  3  5 30.0000000  0 10 14 21 23  3  6 26 18 29 22 17       0.000000020
 -11242843.343 9  -8730421.30046  22987180.683    22987180.5064   22987187.9364
 -17121388.557 9 -13327356.25847  22147563.979    22147563.6414   22147570.6434
 -19774204.828 9 -15396432.59048  20970817.035    20970816.6864   20970822.4964
 -12092325.748 9  -9401344.61647  22748863.215    22748863.0804   22748870.3004
   4510319.749 9   3540836.87746  23438621.636    23438621.5504   23438630.0444
 -10565065.965 9  -8222039.08246  23337315.347    23337315.5834   23337322.0944
 -24200759.470 9 -18599204.09349  20425399.461    20425399.2004   20425403.7274
  -3241634.907 8  -2505063.90345  24023243.040    24023243.1354   24023254.0074
  -2194368.036 8  -1514030.88645  24745064.684    24745063.9894   24745075.5844
 -17856632.188 9 -13903496.38948  20899180.976    20899180.5984   20899186.5964
 01  3  8  3  6  0.0000000  0 10 14 21 23  3  6 26 18 29 22 17       0.000000020
 -11348715.794 9  -8812919.13646  22967033.736    22967033.5244   22967040.9114
 -17165231.767 9 -13361519.72447  22139220.839    22139220.4964   22139227.4654
 -19746180.003 9 -15374595.03348  20976149.948    20976149.6044   20976155.4034
 -12165266.273 9  -9458181.29947  22734983.046    22734982.9294   22734990.0934
   4618598.230 9   3625209.64746  23459226.356    23459226.2264   23459234.7594
 -10472324.614 9  -8149773.09046  23354963.462    23354963.6854   23354970.1634
 -24194308.266 9 -18594177.14749  20426627.038    20426626.7914   20426631.3044
  -3349766.150 9  -2589321.67145  24002665.995    24002666.2214   24002676.9804
  -2132433.764 8  -1465770.44145  24756850.445    24756849.6404   24756861.2384
 -17841099.714 9 -13891393.12648  20902136.691    20902136.3224   20902142.2974
 01  3  8  3  6 30.0000000  0 10 14 21 23  3  6 26 18 29 22 17       0.000000020
 -11454392.528 9  -8895264.47546  22946923.959    22946923.7254   22946931.0654
 -17208852.039 9 -13395509.45947  22130920.118    22130919.7534   22130926.7524
 -19717940.087 9 -15352589.87548  20981523.800    20981523.4544   20981529.2454
 -12237811.214 9  -9514709.73847  22721178.156    22721178.0464   22721185.1224
   4727032.395 9   3709703.72646  23479860.714    23479860.6514   23479869.1184
 -10379239.043 9  -8077238.85846  23372677.092    23372677.2724   23372683.7854
 -24187531.423 9 -18588896.45649  20427916.601    20427916.3484   20427920.8574
  -3457814.725 8  -2673515.02945  23982104.771    23982104.9554   23982115.6754
  -2070358.811 8  -1417400.37945  24768662.981    24768662.2524   24768673.8464
 -17825291.317 9 -13879074.86548  20905144.894    20905144.5204   20905150.5144
 01  3  8  3  7  0.0000000  0 10 14 21 23  3  6 26 18 29 22 17       0.000000020
 -11559868.583 9  -8977453.43846  22926852.407    22926852.2204   22926859.4464
 -17252247.707 9 -13429324.19447  22122662.103    22122661.7504   22122668.7424
 -19689484.451 9 -15330416.62548  20986938.707    20986938.3554   20986944.1594
 -12309955.954 9  -9570926.32747  22707449.419    22707449.2904   22707456.3874
   4835621.997 9   3794318.91446  23500524.676    23500524.6554   23500533.1514
 -10285809.861 9  -8004436.88546  23390456.047    23390456.2344   23390462.7784
 -24180427.837 9 -18583361.16849  20429268.347    20429268.1124   20429272.6064
  -3565776.070 8  -2757640.41445  23961560.151    23961560.3074   23961570.9994
  -2008143.529 8  -1368920.95845  24780502.131    24780501.4464   24780513.0974
 -17809203.777 9 -13866539.10248  20908206.218    20908205.8304   20908211.8124
 01  3  8  3  7 30.0000000  0 10 14 21 23  3  6 26 18 29 22 17       0.000000020
 -11665143.057 9  -9059485.33046  22906819.259    22906819.0304   22906826.1794
 -17295420.394 9 -13462965.16748  22114446.567    22114446.1984   22114453.1724
 -19660816.451 9 -15308077.89048  20992394.027    20992393.6784   20992399.4664
 -12381699.943 9  -9626830.63947  22693796.918    22693796.8014   22693803.8444
   4944362.637 9   3879051.81246  23521217.352    23521217.3804   23521225.8754
 -10192041.781 9  -7931370.84146  23408299.497    23408299.6814   23408306.2254
 -24173000.446 9 -18577573.55249  20430681.707    20430681.4844   20430685.9574
  -3673649.436 8  -2841697.26545  23941032.298    23941032.3594   23941043.0014
  -1945792.583 9  -1320335.82945  24792367.174    24792366.4914   24792378.0164
 -17792838.037 9 -13853786.55248  20911320.526    20911320.1354   20911326.1004
 01  3  8  3  8  0.0000000  0 10 14 21 23  3  6 26 18 29 22 17       0.000000021
 -11770210.916 9  -9141356.22346  22886825.396    22886825.1514   22886832.2954
 -17338369.126 9 -13496431.63548  22106273.657    22106273.2964   22106280.2184
 -19631935.405 9 -15285573.15548  20997889.878    20997889.5244   20997895.3024
 -12453038.788 9  -9682419.25447  22680221.502    22680221.3804   22680228.4094
   5053253.871 9   3963902.05346  23541938.755    23541938.7354   23541947.2714
 -10097935.651 9  -7858041.37146  23426207.267    23426207.5344   23426214.0044
 -24165248.442 9 -18571532.99949  20432156.857    20432156.6124   20432161.0734
  -3781430.077 8  -2925681.87845  23920522.054    23920522.2274   23920532.6584
  -1883307.204 8  -1271645.95045  24804257.794    24804257.0594   24804268.5144
 -17776191.151 9 -13840814.93448  20914488.295    20914487.9214   20914493.8724
 01  3  8  3  8 30.0000000  0 10 14 21 23  3  6 26 18 29 22 17       0.000000021
 -11875071.508 9  -9223065.61046  22866870.927    22866870.6654   22866877.7604
 -17381096.300 9 -13529725.45448  22098142.888    22098142.5244   22098149.4134
 -19602844.620 9 -15262904.97748  21003425.661    21003425.3214   21003431.0864
 -12523972.107 9  -9737691.87647  22666723.240    22666723.1244   22666730.1624
   5162291.474 9   4048866.33746  23562687.966    23562687.9214   23562696.5734
 -10003496.347 9  -7784452.29446  23444178.457    23444178.6534   23444185.2294
 -24157175.383 9 -18565242.26449  20433693.080    20433692.8394   20433697.2824
  -3889117.683 8  -3009593.98745  23900029.455    23900029.7354   23900040.0294
  -1820692.138 8  -1222855.02245  24816173.074    24816172.3824   24816183.8074
 -17759263.922 9 -13827624.85948  20917709.427    20917709.0614   20917715.0014
 01  3  8  3  9  0.0000000  0 10 14 21 23  3  6 26 18 29 22 17       0.000000021
 -11979721.114 9  -9304610.59946  22846956.692    22846956.4024   22846963.4604
 -17423601.111 9 -13562846.00148  22090054.432    22090054.0644   22090060.9604
 -19573544.779 9 -15240073.90648  21009001.204    21009000.8624   21009006.6044
 -12594496.457 9  -9792645.82747  22653302.803    22653302.6654   22653309.7174
   5271473.848 9   4133943.44146  23583464.792    23583464.7474   23583473.3774
  -9908725.666 9  -7710604.99546  23462212.673    23462212.8184   23462219.4044
 -24148780.865 9 -18558701.04949  20435290.508    20435290.2434   20435294.6754
  -3996708.794 8  -3093430.90345  23879555.218    23879555.6084   23879565.7514
  -1757948.729 9  -1173964.07945  24828112.776    24828112.1654   24828123.5534
 -17742054.408 9 -13814214.81848  20920984.261    20920983.8844   20920989.8264
 01  3  8  3  9 30.0000000  0  9 14 21 23  3  6 26 18 29 17          0.000000014
 -12084152.519 9  -9385985.54946  22827083.903    22827083.5994   22827090.6384
 -17465879.640 9 -13595790.22548  22082009.017    22082008.6644   22082015.5414
 -19544032.838 9 -15217077.56048  21014617.134    21014616.7744   21014622.5074
 -12664605.291 9  -9847275.98947  22639961.431    22639961.3314   22639968.3764
   5380802.879 9   4219134.82846  23604269.497    23604269.4744   23604277.9994
  -9813622.115 9  -7636498.33746  23480310.184    23480310.3304   23480317.0394
 -24140061.859 9 -18551906.98349  20436949.665    20436949.4044   20436953.8074
  -4104196.354 8  -3177187.16345  23859100.756    23859101.1494   23859111.1964
 -17724557.466 9 -13800580.81248  20924313.782    20924313.4294   20924319.3554
 01  3  8  3 10  0.0000000  0 10 14 21 23  9  3  6 26 18 29 17       0.000000011
 -12188368.245 9  -9467192.44646  22807252.185    22807251.9484   22807258.9184
 -17507937.749 9 -13628562.69648  22074005.548    22074005.2144   22074012.0434
 -19514315.082 9 -15193920.83248  21020272.199    21020271.8594   21020277.5894
  -1184355.256 8   -916249.57345  24411088.117    24411087.7264   24411095.5954
 -12734301.221 9  -9901584.40247  22626698.637    22626698.5634   22626705.5914
   5490270.996 9   4304434.59446  23625100.664    23625100.6334   23625109.1124
  -9718193.893 9  -7562138.66046  23498469.593    23498469.8184   23498476.3254
 -24131024.709 9 -18544865.01149  20438669.330    20438669.0744   20438673.4794
  -4211583.065 8  -3260864.85645  23838665.487    23838665.8664   23838675.8604
 -17706777.146 9 -13786725.98648  20927697.258    20927696.8874   20927702.7994
 01  3  8  3 10 30.0000000  0 10 14 21 23  9  3  6 26 18 29 17       0.000000012
 -12292366.636 9  -9548229.99346  22787461.860    22787461.5794   22787468.5334
 -17549777.042 9 -13661164.66048  22066043.741    22066043.4164   22066050.2234
 -19484394.587 9 -15170606.13848  21025965.838    21025965.5074   21025971.2314
  -1246189.834 8   -964432.24245  24399320.869    24399319.9424   24399328.4274
 -12803583.320 9  -9955570.35747  22613514.620    22613514.5004   22613521.5764
   5599874.297 9   4389839.68445  23645957.526    23645957.5644   23645965.9934
  -9622444.989 8  -7487529.14745  23516689.866    23516690.0744   23516696.7334
 -24121671.806 9 -18537577.00549  20440449.087    20440448.8324   20440453.2264
  -4318867.574 8  -3344462.88445  23818249.701    23818250.0594   23818259.9424
 -17688713.668 9 -13772650.52048  20931134.595    20931134.2274   20931140.1544
 01  3  8  3 11  0.0000000  0 10 14 21 23  9  3  6 26 18 29 17       0.000000014
 -12396143.818 9  -9629095.16846  22767713.573    22767713.3114   22767720.1724
 -17591396.661 9 -13693595.43848  22058123.710    22058123.3794   22058130.2044
 -19454271.253 9 -15147133.37848  21031698.098    21031697.7794   21031703.4794
  -1307804.341 8  -1012443.43245  24387595.778    24387595.0804   24387603.7154
 -12872448.293 9 -10009231.27147  22600409.999    22600409.8824   22600416.9494
   5709611.461 9   4475349.10045  23666839.841    23666839.8284   23666848.2744
  -9526377.216 8  -7412671.12945  23534971.016    23534971.2484   23534977.6714
 -24112003.468 9 -18530043.19649  20442288.897    20442288.6284   20442293.0374
  -4426046.469 8  -3427978.65745  23797854.039    23797854.3294   23797864.0014
 -17670365.213 9 -13758352.99148  20934626.170    20934625.8204   20934631.7124
 01  3  8  3 11 30.0000000  0 10 14 21 23  9  3  6 26 18 29 17       0.000000015
 -12499697.452 9  -9709786.15646  22748007.867    22748007.5924   22748014.4044
 -17632797.705 9 -13725855.91848  22050245.258    22050244.9434   22050251.7824
 -19423947.227 9 -15123504.24248  21037468.537    21037468.2244   21037473.9264
  -1369196.157 8  -1060281.09545  24375913.101    24375912.4174   24375921.0544
 -12940894.217 9 -10062565.66347  22587385.080    22587384.9994   22587392.0474
   5819479.389 9   4560960.38645  23687747.103    23687747.1244   23687755.5794
  -9429994.019 9  -7337567.35745  23553312.060    23553312.3314   23553318.8774
 -24102021.280 9 -18522264.83649  20444188.402    20444188.1434   20444192.5514
  -4533117.578 8  -3511410.43845  23777478.929    23777479.1854   23777488.8084
 -17651731.388 9 -13743833.10448  20938172.058    20938171.6954   20938177.5834
 01  3  8  3 12  0.0000000  0 10 14 21 23  9  3  6 26 18 29 17       0.000000016
 -12603026.100 9  -9790301.82046  22728344.957    22728344.6854   22728351.4704
 -17673981.766 9 -13757947.30848  22042408.153    22042407.8594   22042414.6644
 -19393425.076 9 -15099720.71648  21043276.693    21043276.3634   21043282.0664
  -1430363.200 8  -1107943.62645  24364273.204    24364272.8844   24364281.4494
 -13008919.678 9 -10115572.41547  22574440.187    22574440.0814   22574447.0854
   5929474.619 8   4646670.88745  23708678.517    23708678.4534   23708687.0824
  -9333299.220 8  -7262220.74845  23571712.470    23571712.6834   23571719.1734
 -24091727.505 9 -18514243.67749  20446147.226    20446146.9674   20446151.3664
  -4640079.581 8  -3594757.17645  23757124.495    23757124.7154   23757134.3844
 -17632812.170 9 -13729090.83248  20941772.257    20941771.8834   20941777.7494
 01  3  8  3 12 30.0000000  0 10 14 21 23  9  3  6 26 18 29 17       0.000000016
 -12706124.943 9  -9870638.41746  22708725.738    22708725.4674   22708732.2514
 -17714947.038 9 -13789868.21848  22034612.662    22034612.3764   22034619.1424
 -19362704.506 9 -15075782.58048  21049122.571    21049122.2464   21049127.9674
  -1491300.593 8  -1155427.20445  24352677.087    24352676.7834   24352685.4624
 -13076521.033 9 -10168248.70047  22561576.012    22561575.8864   22561582.9014
   6039596.491 8   4732480.07145  23729633.979    23729633.9164   23729642.4964
  -9236293.905 8  -7186632.21245  23590171.960    23590172.2344   23590178.6954
 -24081121.297 9 -18505979.06049  20448165.486    20448165.2504   20448169.6404
  -4746928.042 8  -3678015.44545  23736791.788    23736791.9914   23736801.4474
 -17613604.725 9 -13714123.96948  20945427.309    20945426.9434   20945432.7754
 01  3  8  3 13  0.0000000  0 10 14 21 23  9  3  6 26 18 29 17       0.000000017
 -12808990.844 9  -9950793.50746  22689150.854    22689150.6184   22689157.2974
 -17755694.058 9 -13821619.07148  22026858.699    22026858.4034   22026865.1444
 -19331786.365 9 -15051690.50148  21055006.070    21055005.7434   21055011.4724
  -1552004.600 8  -1202728.93345  24341125.463    24341125.2294   24341133.6654
 -13143695.574 9 -10220592.40447  22548793.026    22548792.9364   22548799.8954
   6149842.879 8   4818386.28645  23750613.287    23750613.2634   23750621.8054
  -9138980.700 9  -7110803.71845  23608690.070    23608690.3344   23608696.8204
 -24070203.641 9 -18497471.77549  20450243.013    20450242.7824   20450247.1564
  -4853659.995 8  -3761182.94245  23716481.228    23716481.3624   23716490.6974
 -17594107.649 9 -13698931.42648  20949137.464    20949137.1044   20949142.9164
 01  3  8  3 13 30.0000000  0 10 14 21 23  9  3  6 26 18 29 17       0.000000017
 -12911622.846 9 -10030766.34946  22669620.546    22669620.3184   22669626.9374
 -17796225.009 9 -13853201.54848  22019145.861    22019145.5434   22019152.2614
 -19300673.286 9 -15027446.51248  21060926.680    21060926.3644   21060932.0794
  -1612473.620 8  -1249847.57945  24329618.512    24329618.3864   24329626.4844
 -13210442.205 9 -10272602.66447  22536091.509    22536091.4194   22536098.3034
   6260209.807 9   4904386.41845  23771615.491    23771615.3534   23771624.0044
  -9041363.804 9  -7034738.60945  23627266.025    23627266.2654   23627272.8004
 -24058977.315 9 -18488723.94949  20452379.277    20452379.0434   20452383.4194
  -4960274.661 8  -3844259.01445  23696192.969    23696193.0784   23696202.3084
 -17574321.357 9 -13683513.50448  20952902.666    20952902.2884   20952908.1174
 01  3  8  3 14  0.0000000  0 10 14 21 23  9  3  6 26 18 29 17       0.000000017
 -13014017.000 9 -10110553.83647  22650135.451    22650135.2384   22650141.8554
 -17836539.227 9 -13884615.14948  22011474.239    22011473.9244   22011480.6104
 -19269365.937 9 -15003051.14548  21066884.249    21066883.9304   21066889.6274
  -1672704.135 8  -1296780.36345  24318157.034    24318156.7314   24318164.7514
 -13276757.967 9 -10324277.18447  22523471.958    22523471.8154   22523478.7334
   6370695.504 8   4990479.08945  23792640.252    23792640.1584   23792648.8524
  -8943445.500 9  -6958438.63445  23645899.238    23645899.5744   23645905.8984
 -24047442.617 9 -18479735.84349  20454574.218    20454573.9734   20454578.3664
  -5066768.542 9  -3927240.98245  23675927.653    23675927.7774   23675937.0214
 -17554244.297 9 -13667869.02048  20956723.168    20956722.7934   20956728.6124
 01  3  8  3 14 30.0000000  0 10 14 21 23  9  3  6 26 18 29 17       0.000000018
 -13116170.736 9 -10190154.00147  22630696.090    22630695.8964   22630702.4314
 -17876636.744 9 -13915859.89348  22003843.916    22003843.6064   22003850.2594
 -19237866.014 9 -14978505.72048  21072878.478    21072878.1504   21072883.8314
  -1732692.722 8  -1343524.63245  24306741.525    24306741.0354   24306749.2944
 -13342640.660 9 -10375614.25247  22510934.853    22510934.6944   22510941.5724
   6481297.621 9   5076662.46745  23813687.223    23813687.1374   23813695.8594
  -8845228.511 9  -6881905.90045  23664589.309    23664589.7154   23664595.9454
 -24035600.711 9 -18470508.35149  20456827.644    20456827.3934   20456831.7704
  -5173139.171 9  -4010126.89146  23655685.857    23655685.8704   23655695.2444
 -17533875.258 9 -13651997.02248  20960599.240    20960598.8594   20960604.6874
 01  3  8  3 15  0.0000000  0 10 14 21 23  9  3  6 26 18 29 17       0.000000018
 -13218081.070 9 -10269564.50546  22611303.050    22611302.8114   22611309.3604
 -17916518.624 9 -13946936.60748  21996254.576    21996254.2504   21996260.8924
 -19206174.557 9 -14953811.04948  21078909.159    21078908.8354   21078914.4834
  -1792436.049 8  -1390077.76945  24295372.567    24295372.1444   24295380.2374
 -13408087.698 9 -10426611.84947  22498480.660    22498480.4964   22498487.3264
   6592013.758 8   5162934.71245  23834755.833    23834755.8524   23834764.4504
  -8746715.748 9  -6805142.71645  23683335.699    23683336.0774   23683342.3064
 -24023452.780 9 -18461042.39849  20459139.276    20459139.0434   20459143.3854
  -5279383.787 9  -4092914.63146  23635468.018    23635467.9364   23635477.2854
 -17513213.222 9 -13635896.71848  20964531.071    20964530.6984   20964536.5204
